[[{"header":{"parameterUnit":"m.s-1","parameterCategory":1,"la1":30.6,"la2":29.2853,"lo1":-89.7004,"lo2":-87.6739,"dy":0.0162,"dx":0.0183,"nx":112,"ny":82,"refTime":"2026-03-27T00:00:00:Z","depth":0,"parameterNumber":2,"parameterNumberName":"U-component_of_WINDS"},"data":[0.0,0.0,0.0,0.0,0.0,0.0,0.0,0.0,0.0,0.0,0.0,0.0,0.0,0.0,0.0,0.0,0.0,0.0,0.0,0.0,0.0,0.0,0.0,0.0,0.0,0.0,0.0,0.0,0.0,0.0,0.0,0.0,0.0,0.0,0.0,0.0,0.0,0.0,0.0,0.0,0.0,0.0,0.0,0.0,0.0,0.0,0.0,0.0,0.0,0.0,0.0,0.0,0.0,0.0,0.0,0.0,0.0,0.0,0.0,0.0,0.0,0.0,0.0,0.0,0.0,0.0,0.0,0.0,0.0,0.0,0.0,0.0,0.0,0.0,0.0,0.0,0.0,0.0,0.0,0.0,0.0,0.0,0.0,0.0,0.0,0.0,0.0,0.0,0.0,0.0,-2.7537,-2.8069,-2.8835,-2.9166,-2.8805,-2.9074,-2.8723,-2.7503,0.0,0.0,0.0,0.0,0.0,0.0,0.0,0.0,0.0,0.0,0.0,0.0,0.0,0.0,0.0,0.0,0.0,0.0,0.0,0.0,0.0,0.0,0.0,0.0,0.0,0.0,0.0,0.0,0.0,0.0,0.0,0.0,0.0,0.0,0.0,0.0,0.0,0.0,0.0,0.0,0.0,0.0,0.0,0.0,0.0,0.0,0.0,0.0,0.0,0.0,0.0,0.0,0.0,0.0,0.0,0.0,0.0,0.0,0.0,0.0,0.0,0.0,0.0,0.0,0.0,0.0,0.0,0.0,0.0,0.0,0.0,0.0,0.0,0.0,0.0,0.0,0.0,0.0,0.0,0.0,0.0,0.0,0.0,0.0,0.0,0.0,0.0,0.0,0.0,0.0,0.0,0.0,0.0,0.0,0.0,0.0,0.0,0.0,0.0,0.0,0.0,0.0,0.0,0.0,-2.7786,-2.8959,-2.9228,-2.9332,-2.9434,-2.9136,-2.8707,-2.8114,0.0,0.0,0.0,0.0,0.0,0.0,0.0,0.0,0.0,0.0,0.0,0.0,0.0,0.0,0.0,0.0,0.0,0.0,0.0,0.0,0.0,0.0,0.0,0.0,0.0,0.0,0.0,0.0,0.0,0.0,0.0,0.0,0.0,0.0,0.0,0.0,0.0,0.0,0.0,0.0,0.0,0.0,0.0,0.0,0.0,0.0,0.0,0.0,0.0,0.0,0.0,0.0,0.0,0.0,0.0,0.0,0.0,0.0,0.0,0.0,0.0,0.0,0.0,0.0,0.0,0.0,0.0,0.0,0.0,0.0,0.0,0.0,0.0,0.0,0.0,0.0,0.0,0.0,0.0,0.0,0.0,0.0,0.0,0.0,0.0,0.0,0.0,0.0,0.0,0.0,0.0,0.0,0.0,0.0,0.0,0.0,0.0,0.0,0.0,0.0,0.0,0.0,0.0,-2.7354,-2.7892,-2.8747,-2.9053,-2.9225,-2.9323,-2.8938,-2.8512,-2.7996,-2.6866,0.0,0.0,0.0,0.0,0.0,0.0,0.0,0.0,0.0,0.0,0.0,0.0,0.0,0.0,0.0,0.0,0.0,0.0,0.0,0.0,0.0,0.0,0.0,0.0,0.0,0.0,0.0,0.0,0.0,0.0,0.0,0.0,0.0,0.0,0.0,0.0,0.0,0.0,0.0,0.0,0.0,0.0,0.0,0.0,0.0,0.0,0.0,0.0,0.0,0.0,0.0,0.0,0.0,0.0,0.0,0.0,0.0,0.0,0.0,0.0,0.0,0.0,0.0,0.0,0.0,0.0,0.0,0.0,0.0,0.0,0.0,0.0,0.0,0.0,0.0,0.0,0.0,0.0,0.0,0.0,0.0,0.0,0.0,0.0,0.0,0.0,0.0,0.0,0.0,0.0,0.0,0.0,0.0,0.0,0.0,0.0,0.0,0.0,0.0,0.0,0.0,0.0,-2.7633,-2.8095,-2.8589,-2.8931,-2.9079,-2.9026,-2.8625,-2.8184,-2.7743,-2.646,0.0,0.0,0.0,0.0,0.0,0.0,0.0,0.0,0.0,0.0,0.0,0.0,0.0,0.0,0.0,0.0,0.0,0.0,0.0,0.0,0.0,0.0,0.0,0.0,0.0,0.0,0.0,0.0,0.0,0.0,0.0,0.0,0.0,0.0,0.0,0.0,0.0,0.0,0.0,0.0,0.0,0.0,0.0,0.0,0.0,0.0,0.0,0.0,0.0,0.0,0.0,0.0,0.0,0.0,0.0,0.0,0.0,0.0,0.0,0.0,0.0,0.0,0.0,0.0,0.0,0.0,0.0,0.0,0.0,0.0,0.0,0.0,0.0,0.0,0.0,0.0,0.0,0.0,0.0,0.0,0.0,0.0,0.0,0.0,0.0,0.0,0.0,0.0,0.0,0.0,0.0,0.0,0.0,0.0,0.0,0.0,0.0,0.0,0.0,0.0,0.0,0.0,-2.7941,-2.8329,-2.8978,-2.9059,-2.8973,-2.8727,-2.8363,-2.7926,-2.747,-2.617,0.0,0.0,0.0,0.0,0.0,0.0,0.0,0.0,0.0,0.0,0.0,0.0,0.0,0.0,0.0,0.0,0.0,0.0,0.0,0.0,0.0,0.0,0.0,0.0,0.0,0.0,0.0,0.0,0.0,0.0,0.0,0.0,0.0,0.0,0.0,0.0,0.0,0.0,0.0,0.0,0.0,0.0,0.0,0.0,0.0,0.0,0.0,0.0,0.0,0.0,0.0,0.0,0.0,0.0,0.0,0.0,0.0,0.0,0.0,0.0,0.0,0.0,0.0,0.0,0.0,0.0,0.0,0.0,0.0,0.0,0.0,0.0,0.0,0.0,0.0,0.0,0.0,0.0,0.0,0.0,0.0,0.0,0.0,0.0,0.0,0.0,0.0,0.0,0.0,0.0,0.0,0.0,0.0,0.0,0.0,0.0,0.0,0.0,0.0,0.0,0.0,0.0,-2.5848,-2.5864,0.0,-2.6464,-2.6427,-2.6517,-2.6173,-2.5876,-2.566,0.0,0.0,0.0,0.0,0.0,0.0,0.0,0.0,0.0,0.0,0.0,0.0,0.0,0.0,0.0,0.0,0.0,0.0,0.0,0.0,0.0,0.0,0.0,0.0,0.0,0.0,0.0,0.0,0.0,0.0,0.0,0.0,0.0,0.0,0.0,0.0,0.0,0.0,0.0,0.0,0.0,0.0,0.0,0.0,0.0,0.0,0.0,0.0,0.0,0.0,0.0,0.0,0.0,0.0,0.0,0.0,0.0,0.0,0.0,0.0,0.0,0.0,0.0,0.0,0.0,0.0,0.0,0.0,0.0,0.0,0.0,0.0,0.0,0.0,0.0,0.0,0.0,0.0,0.0,0.0,0.0,0.0,0.0,0.0,0.0,0.0,0.0,0.0,0.0,0.0,0.0,0.0,0.0,0.0,0.0,0.0,0.0,0.0,0.0,0.0,0.0,0.0,-2.4663,-2.4576,-2.4616,0.0,-2.5116,-2.5133,-2.5332,-2.4906,-2.457,-2.4273,0.0,0.0,0.0,0.0,0.0,0.0,0.0,0.0,0.0,0.0,0.0,0.0,0.0,0.0,0.0,0.0,0.0,0.0,0.0,0.0,0.0,0.0,0.0,0.0,0.0,0.0,0.0,0.0,0.0,0.0,0.0,0.0,0.0,0.0,0.0,0.0,0.0,0.0,0.0,0.0,0.0,0.0,0.0,0.0,0.0,0.0,0.0,0.0,0.0,0.0,0.0,0.0,0.0,0.0,0.0,0.0,0.0,0.0,0.0,0.0,0.0,0.0,0.0,0.0,0.0,0.0,0.0,0.0,0.0,0.0,0.0,0.0,0.0,0.0,0.0,0.0,0.0,0.0,0.0,0.0,0.0,0.0,0.0,0.0,0.0,0.0,0.0,0.0,0.0,0.0,0.0,0.0,0.0,0.0,0.0,0.0,0.0,0.0,0.0,0.0,0.0,0.0,-2.3562,-2.4497,-2.5196,-2.5196,-2.5479,-2.57,-2.57,-2.5003,-2.4255,0.0,0.0,0.0,0.0,0.0,0.0,0.0,0.0,0.0,0.0,0.0,0.0,0.0,0.0,0.0,0.0,0.0,0.0,0.0,0.0,0.0,0.0,0.0,0.0,0.0,0.0,0.0,0.0,0.0,0.0,0.0,0.0,0.0,0.0,0.0,0.0,0.0,0.0,0.0,0.0,0.0,0.0,0.0,0.0,0.0,0.0,0.0,0.0,0.0,0.0,0.0,0.0,0.0,0.0,0.0,0.0,0.0,0.0,0.0,0.0,0.0,0.0,0.0,0.0,0.0,0.0,0.0,0.0,0.0,0.0,0.0,0.0,0.0,0.0,0.0,0.0,0.0,0.0,0.0,0.0,0.0,0.0,0.0,0.0,0.0,0.0,0.0,0.0,0.0,0.0,0.0,0.0,0.0,0.0,0.0,0.0,0.0,0.0,0.0,0.0,0.0,0.0,0.0,-2.2624,-2.3074,-2.3395,-2.3395,-2.3488,-2.3489,-2.3489,-2.2935,-2.2342,-2.1957,0.0,0.0,0.0,0.0,0.0,0.0,0.0,0.0,0.0,0.0,0.0,0.0,0.0,0.0,0.0,0.0,0.0,0.0,0.0,0.0,0.0,0.0,0.0,0.0,0.0,0.0,0.0,0.0,0.0,0.0,0.0,0.0,0.0,0.0,0.0,0.0,0.0,0.0,0.0,0.0,0.0,0.0,0.0,0.0,0.0,0.0,0.0,0.0,0.0,0.0,0.0,0.0,0.0,0.0,0.0,0.0,0.0,0.0,0.0,0.0,0.0,0.0,0.0,0.0,0.0,0.0,0.0,0.0,0.0,0.0,0.0,0.0,0.0,0.0,0.0,0.0,0.0,0.0,0.0,0.0,0.0,0.0,0.0,0.0,0.0,0.0,0.0,0.0,0.0,0.0,0.0,0.0,0.0,0.0,0.0,0.0,0.0,0.0,0.0,0.0,0.0,0.0,-2.176,-2.232,-2.2686,-2.3003,-2.312,-2.3087,-2.2831,-2.2489,-2.1876,-2.1058,0.0,0.0,0.0,0.0,0.0,0.0,0.0,0.0,0.0,0.0,0.0,0.0,0.0,0.0,0.0,0.0,0.0,0.0,0.0,0.0,0.0,0.0,0.0,0.0,0.0,0.0,0.0,0.0,0.0,0.0,0.0,0.0,0.0,0.0,0.0,0.0,0.0,0.0,0.0,0.0,0.0,0.0,0.0,0.0,0.0,0.0,0.0,0.0,0.0,0.0,0.0,0.0,0.0,0.0,0.0,0.0,0.0,0.0,0.0,0.0,0.0,0.0,0.0,0.0,0.0,0.0,0.0,0.0,0.0,0.0,0.0,0.0,0.0,0.0,0.0,0.0,0.0,0.0,0.0,0.0,0.0,0.0,0.0,0.0,0.0,0.0,0.0,0.0,0.0,0.0,0.0,0.0,0.0,0.0,0.0,0.0,0.0,0.0,0.0,0.0,0.0,0.0,-2.1016,-2.2025,-2.2869,-2.3476,-2.386,-2.3804,-2.3164,-2.3058,-2.2335,-2.0816,0.0,0.0,0.0,0.0,0.0,0.0,0.0,0.0,0.0,0.0,0.0,0.0,0.0,0.0,0.0,0.0,0.0,0.0,0.0,0.0,0.0,0.0,0.0,0.0,0.0,0.0,0.0,0.0,0.0,0.0,0.0,0.0,0.0,0.0,0.0,0.0,0.0,0.0,0.0,0.0,0.0,0.0,0.0,0.0,0.0,0.0,0.0,0.0,0.0,0.0,0.0,0.0,0.0,0.0,0.0,0.0,0.0,0.0,0.0,0.0,-2.5768,-2.622,0.0,0.0,0.0,0.0,0.0,0.0,0.0,0.0,0.0,0.0,0.0,0.0,0.0,0.0,0.0,0.0,0.0,0.0,0.0,0.0,0.0,0.0,0.0,0.0,0.0,0.0,0.0,0.0,0.0,0.0,0.0,0.0,0.0,0.0,0.0,0.0,0.0,0.0,0.0,0.0,-2.1017,-2.2171,-2.299,-2.3111,-2.3408,-2.3464,-2.3088,-2.2617,-2.1869,-2.0749,-2.0145,0.0,0.0,0.0,0.0,0.0,0.0,0.0,0.0,0.0,0.0,0.0,0.0,0.0,0.0,0.0,0.0,0.0,0.0,0.0,0.0,0.0,0.0,0.0,0.0,0.0,0.0,0.0,0.0,0.0,0.0,0.0,0.0,0.0,0.0,0.0,0.0,0.0,0.0,0.0,0.0,0.0,0.0,0.0,0.0,0.0,0.0,0.0,0.0,0.0,0.0,0.0,0.0,0.0,0.0,0.0,0.0,0.0,0.0,0.0,-2.5232,-2.5317,0.0,0.0,0.0,0.0,0.0,0.0,0.0,0.0,0.0,0.0,0.0,0.0,0.0,0.0,0.0,0.0,0.0,0.0,0.0,0.0,0.0,0.0,0.0,0.0,0.0,0.0,0.0,0.0,0.0,0.0,0.0,0.0,0.0,0.0,0.0,0.0,0.0,0.0,0.0,0.0,-2.1202,-2.232,-2.3109,-2.3462,-2.3616,-2.3521,-2.3015,-2.2827,-2.232,-2.1202,-2.0405,0.0,0.0,0.0,0.0,0.0,0.0,0.0,0.0,0.0,0.0,0.0,0.0,0.0,0.0,0.0,0.0,0.0,0.0,0.0,0.0,0.0,0.0,0.0,0.0,0.0,0.0,0.0,0.0,0.0,0.0,0.0,0.0,0.0,0.0,0.0,0.0,0.0,0.0,0.0,0.0,0.0,0.0,0.0,0.0,0.0,0.0,0.0,0.0,0.0,0.0,0.0,0.0,0.0,-2.5185,-2.5303,-2.5547,-2.5577,-2.5571,-2.5635,-2.5116,-2.4559,-2.4018,-2.3846,0.0,0.0,0.0,0.0,0.0,0.0,0.0,0.0,0.0,0.0,0.0,0.0,0.0,0.0,0.0,0.0,0.0,0.0,0.0,0.0,0.0,0.0,0.0,0.0,-2.2084,-2.2015,-2.0997,0.0,0.0,0.0,0.0,0.0,0.0,0.0,0.0,0.0,0.0,0.0,-2.143,-2.2415,-2.3241,-2.3886,-2.3983,-2.3749,-2.3161,-2.3308,-2.2894,-2.1824,-2.1066,-2.0319,0.0,0.0,0.0,0.0,0.0,0.0,0.0,0.0,0.0,0.0,0.0,0.0,0.0,0.0,0.0,0.0,0.0,0.0,0.0,0.0,0.0,0.0,0.0,0.0,0.0,0.0,0.0,0.0,0.0,0.0,0.0,0.0,-2.4796,-2.4825,0.0,0.0,0.0,0.0,0.0,0.0,0.0,0.0,0.0,0.0,0.0,0.0,0.0,-2.4031,-2.4469,-2.5389,-2.5819,-2.5832,-2.6814,-2.7336,-2.7377,-2.7335,-2.7495,-2.7805,-2.7377,0.0,-2.4938,-2.5112,0.0,0.0,0.0,0.0,0.0,0.0,0.0,0.0,0.0,0.0,0.0,0.0,0.0,0.0,0.0,0.0,0.0,0.0,0.0,0.0,0.0,0.0,-2.3728,-2.322,-2.3327,-2.3477,0.0,-2.148,-2.0127,-1.9811,-1.9499,0.0,0.0,0.0,0.0,0.0,0.0,0.0,-2.1388,-2.2335,-2.3157,-2.3735,-2.386,-2.3776,-2.3665,-2.3252,-2.2781,-2.2338,-2.1316,-2.0402,-1.9771,-1.8867,0.0,0.0,0.0,0.0,0.0,0.0,0.0,0.0,0.0,0.0,0.0,0.0,0.0,0.0,0.0,0.0,0.0,0.0,0.0,0.0,0.0,0.0,0.0,0.0,0.0,0.0,0.0,0.0,0.0,-2.4568,-2.4197,-2.3843,-2.4181,-2.4293,0.0,0.0,0.0,0.0,0.0,0.0,0.0,0.0,0.0,-2.5648,-2.5281,-2.5358,-2.6106,-2.6653,-2.7108,-2.7455,-2.8136,-2.8631,-2.8951,-2.8951,-2.9112,-2.9454,-2.9072,-2.8511,-2.7709,-2.6507,-2.5585,-2.4877,0.0,0.0,0.0,0.0,-2.3728,-2.3888,-2.4088,-2.4155,-2.4128,-2.3928,0.0,0.0,0.0,0.0,0.0,0.0,0.0,0.0,0.0,0.0,-2.4462,-2.4543,-2.4649,-2.4676,-2.4382,-2.346,-2.2325,0.0,-2.0698,-2.0315,-1.9479,0.0,0.0,0.0,0.0,-2.1239,-2.1894,-2.2807,-2.3474,-2.3741,-2.3768,-2.3768,-2.3768,-2.3527,-2.3247,-2.2953,-2.2124,-2.139,-2.0877,-2.0094,-1.9279,0.0,0.0,0.0,0.0,0.0,0.0,0.0,0.0,0.0,0.0,0.0,0.0,0.0,0.0,0.0,0.0,0.0,0.0,0.0,0.0,0.0,0.0,0.0,0.0,0.0,0.0,0.0,0.0,-2.4237,-2.4315,-2.3728,-2.4502,-2.4676,0.0,0.0,0.0,0.0,0.0,0.0,-2.4863,-2.4943,-2.5531,-2.6707,-2.668,-2.7054,-2.7936,-2.8163,-2.8537,-2.9058,-2.9272,-2.9646,-3.014,-3.014,-3.0261,-3.0448,-3.0154,-2.998,-2.9766,-2.7776,-2.66,-2.5999,-2.5184,-2.4957,-2.505,-2.4756,-2.4836,-2.5157,-2.5665,-2.5798,-2.5705,-2.5491,-2.497,-2.4249,-2.3273,0.0,0.0,0.0,0.0,-2.2187,-2.3178,-2.3568,-2.3833,-2.4326,-2.4427,-2.4507,-2.47,-2.4425,-2.3792,0.0,-2.2057,-2.1561,-2.0254,0.0,0.0,0.0,0.0,-2.1964,-2.2472,-2.326,-2.3768,-2.3768,-2.3834,-2.3888,-2.3888,-2.3888,-2.3781,-2.3567,-2.2979,-2.2458,-2.2017,-2.1443,-2.0641,-1.9613,0.0,0.0,0.0,0.0,0.0,0.0,0.0,0.0,0.0,0.0,0.0,0.0,0.0,0.0,0.0,0.0,0.0,0.0,0.0,0.0,0.0,0.0,0.0,0.0,0.0,0.0,0.0,0.0,0.0,-2.4636,-2.5598,0.0,0.0,0.0,0.0,-2.5384,-2.5945,-2.64,-2.668,-2.6961,-2.7655,-2.8845,-2.8617,-2.8898,-2.978,-2.9793,-2.9967,-3.0274,-3.0287,-3.0448,-3.0755,-3.0755,-3.0755,-3.0755,-3.0461,-3.0181,-2.9847,-2.8885,-2.8136,-2.7522,-2.6921,-2.6533,-2.6266,-2.5972,-2.6052,-2.6346,-2.6653,-2.6573,-2.648,-2.7281,-2.6413,-2.497,-2.4636,-2.245,0.0,0.0,-2.0377,-1.9423,-2.0093,-2.0815,-2.1491,-2.1513,-2.1605,-2.203,-2.3392,-2.3333,-2.3101,0.0,-2.3263,-2.266,-2.1964,0.0,-2.1534,-2.1534,-2.1991,-2.2485,-2.2806,-2.338,-2.3768,-2.3768,-2.4022,-2.4182,-2.4182,-2.4182,-2.4168,-2.4155,-2.3607,-2.3273,-2.3247,-2.2659,-2.2044,-2.1494,-1.9386,0.0,0.0,0.0,0.0,0.0,0.0,0.0,0.0,0.0,0.0,0.0,0.0,0.0,0.0,0.0,0.0,0.0,0.0,0.0,0.0,0.0,0.0,0.0,0.0,0.0,0.0,0.0,0.0,-2.5812,-2.6974,0.0,-2.6453,-2.644,-2.6453,-2.636,-2.7268,-2.7856,-2.7963,-2.843,-2.9058,-2.986,-2.9793,-2.998,-3.0474,-3.0474,-3.0635,-3.0915,-3.0915,-3.1076,-3.1356,-3.1356,-3.1356,-3.1343,-3.1049,-3.0862,-3.0702,-3.002,-2.9165,-2.8257,-2.8056,-2.7789,-2.7535,-2.7629,-2.7722,-2.7856,-2.815,-2.8177,-2.7875,-2.6427,-2.5282,-2.4116,-2.2082,-2.0671,-1.9926,-2.0089,-1.9748,-1.9474,-2.0089,-2.0436,-2.0702,-2.0702,-2.0952,-2.1346,-2.185,-2.1985,-2.2009,-2.2035,-2.2929,-2.3541,-2.2953,-2.2592,-2.2325,-2.2138,-2.2445,-2.2819,-2.3126,-2.3514,-2.3768,-2.3768,-2.3861,-2.3928,-2.3928,-2.4102,-2.4209,-2.4209,-2.4008,-2.3888,-2.3888,-2.2486,-2.137,-2.0714,-1.8708,-1.7107,0.0,0.0,0.0,0.0,0.0,0.0,0.0,0.0,0.0,0.0,0.0,0.0,0.0,0.0,0.0,0.0,0.0,0.0,0.0,0.0,0.0,0.0,0.0,0.0,0.0,-2.6226,-2.7241,-2.7148,-2.827,-2.8738,-2.7936,-2.7949,-2.7976,-2.7869,-2.8698,-2.9205,-2.9205,-2.9659,-3.0154,-3.0635,-3.0648,-3.0795,-3.1089,-3.1089,-3.1183,-3.137,-3.137,-3.1476,-3.1664,-3.1664,-3.1664,-3.165,-3.1356,-3.1223,-3.1196,-3.0702,-3.0047,-2.9312,-2.9018,-2.8711,-2.847,-2.8671,-2.8751,-2.8778,-2.8978,-2.9112,-2.8683,-2.5811,-2.4628,-2.3739,-2.0771,-1.942,-1.8818,-1.8945,-1.8431,-1.8014,-1.8591,-1.8712,-1.8657,-1.8657,-1.881,-1.9127,-1.9722,-1.997,-2.0181,-2.0586,-2.1923,-2.2843,-2.2197,-2.1923,-2.1828,-2.2018,-2.1849,-2.2134,-2.332,-2.33,-2.3288,-2.3781,-2.3861,-2.366,-2.3112,-2.33,-2.3237,-2.2641,-2.2554,-2.2541,-2.2641,-2.127,-2.0215,-1.9691,-1.7548,-1.5673,-1.3994,0.0,0.0,0.0,0.0,0.0,0.0,0.0,0.0,0.0,0.0,0.0,0.0,0.0,0.0,0.0,0.0,0.0,0.0,0.0,0.0,0.0,0.0,0.0,-2.6077,-2.7336,-2.831,-2.8631,-2.9446,-2.998,-2.998,-2.9713,-2.9659,-2.9953,-3.0234,-3.0408,-3.0421,-3.0675,-3.0969,-3.1263,-3.1249,-3.1383,-3.1677,-3.1677,-3.1677,-3.1664,-3.169,-3.169,-3.1664,-3.1582,-3.1582,-3.1555,-3.1168,-3.0955,-3.0928,-3.0637,-3.061,-3.0517,-2.9757,-2.9251,-2.8911,-2.881,-2.881,-2.8797,-2.8797,-2.8982,-2.8709,-2.5577,-2.4543,-2.4,-2.1063,-1.866,-1.7188,-1.7708,-1.6404,-1.4901,-1.5491,-1.5578,-1.5458,-1.5458,-1.5213,-1.547,-1.7127,-1.7386,-1.7728,-1.944,-2.0237,-2.0415,-1.9713,-1.9575,-1.9927,-2.1077,-2.0185,0.0,-2.3295,-2.2538,-2.2238,-2.3496,-2.3864,-2.3313,-2.1582,-2.1728,-2.1214,-1.9582,-1.9365,-1.9344,-1.9498,-1.9138,-1.879,-1.8482,-1.6008,-1.3706,-1.1695,0.0,0.0,0.0,0.0,0.0,0.0,0.0,0.0,0.0,0.0,0.0,0.0,0.0,0.0,0.0,0.0,0.0,0.0,0.0,0.0,0.0,-2.6453,-2.7148,-2.6934,-2.8177,-2.9379,-3.01,-3.0969,-3.1503,-3.1503,-3.1036,-3.0862,-3.1169,-3.1263,-3.1396,-3.161,-3.1704,-3.1877,-3.2171,-3.177,-3.169,-3.1984,-3.1984,-3.1877,-3.1677,-3.2104,-3.1885,-3.1107,-2.9729,-2.8825,-2.8152,-2.6619,-2.5913,-2.5891,-2.5553,-2.5356,-2.545,-2.7036,-2.7543,-2.713,-2.5183,-2.4434,-2.4291,-2.4291,-2.4215,-2.3713,-2.1462,-2.0584,-1.9887,-1.7329,-1.6084,-1.5563,-1.5352,-1.4847,-1.4509,-1.4639,-1.4622,-1.4503,-1.4503,-1.4614,-1.4805,-1.5308,-1.5509,-1.5758,-1.6389,-1.6411,-1.7019,-1.8993,-1.8881,-1.8746,-1.9286,-1.8969,0.0,-2.0116,-1.9944,-1.9826,-2.0092,-2.0198,-1.9995,-1.9498,-1.9709,-1.9708,-1.9271,-1.9137,-1.9148,-1.9333,-1.7832,-1.6367,-1.5021,-1.3595,-1.2582,0.0,0.0,0.0,0.0,0.0,0.0,0.0,0.0,0.0,0.0,0.0,0.0,0.0,0.0,0.0,0.0,0.0,0.0,0.0,0.0,0.0,0.0,-2.8056,-2.8885,-2.9085,-2.974,-3.0541,-3.1423,-3.1984,-3.2332,-3.2452,-3.2051,-3.1851,-3.2024,-3.2038,-3.2104,-3.2278,-3.2291,-3.2372,-3.2545,-3.2211,-3.2118,-3.2291,-3.1186,-3.0514,-3.0349,-2.9481,-2.8772,-2.8097,-2.7063,-2.6354,-2.582,-2.4551,-2.4011,-2.4001,-2.3682,-2.3607,0.0,0.0,0.0,0.0,0.0,-2.2645,-2.2556,-2.2464,-2.2373,-2.1878,-1.9715,-1.882,-1.8181,-1.5701,-1.491,-1.4833,-1.4572,-1.4482,-1.4468,-1.4407,-1.4326,-1.4224,-1.4102,-1.4212,-1.4258,-1.4195,-1.4281,-1.4393,-1.4414,-1.4271,0.0,-1.6427,-1.658,-1.6675,-1.7329,-1.6815,-1.6907,-1.8361,-1.8138,-1.8,-1.8602,-1.8665,-1.8341,-1.7583,-1.7693,0.0,0.0,0.0,-1.6451,-1.6449,-1.5309,0.0,0.0,0.0,0.0,0.0,0.0,0.0,0.0,-1.2425,-1.2406,0.0,0.0,0.0,0.0,0.0,0.0,0.0,0.0,0.0,0.0,0.0,0.0,0.0,0.0,0.0,0.0,-2.9686,-3.0782,-3.169,-3.1583,-3.1717,-3.2505,-3.2625,-3.2746,-3.2901,-3.2661,-3.2612,-3.2639,-3.2612,-3.2612,-3.2639,-3.271,0.0,0.0,0.0,-3.2155,-3.2097,-2.9369,-2.795,-2.7927,-2.5477,-2.4377,-2.4227,-2.4057,-2.3857,-2.3718,-2.3413,-2.3227,-2.3217,-2.3092,-2.2984,-2.3004,-2.2596,-2.2266,-2.1975,-2.1927,-2.1894,-2.1738,-2.1728,0.0,0.0,-1.896,-1.8151,-1.7727,-1.5406,-1.4719,-1.4692,-1.4692,-1.4692,-1.4658,-1.4523,-1.4475,-1.4394,-1.4136,-1.3953,-1.3804,-1.3682,-1.3641,-1.3593,-1.3471,-1.3424,-1.3356,-1.322,-1.3703,-1.4388,-1.5295,-1.4436,-1.4629,-1.733,-1.663,-1.6501,-1.793,0.0,0.0,-1.5798,-1.5688,-1.5002,-1.3589,-1.3215,-1.2902,-1.254,-1.2533,-1.2455,-1.2384,-1.2384,-1.238,-1.237,-1.2391,-1.2321,-1.2142,-1.1803,-1.1905,0.0,0.0,0.0,0.0,0.0,0.0,0.0,0.0,0.0,0.0,0.0,0.0,0.0,0.0,0.0,-2.9152,-3.0301,-3.145,-3.2572,-3.2679,-3.2706,-3.2879,-3.3106,-3.3067,-3.272,-3.2471,-3.2405,-3.2529,-3.2432,-3.2604,-3.3227,-3.3026,-3.2802,-3.2642,-3.0367,-2.9132,-2.896,-2.6623,-2.5312,-2.5136,-2.5003,0.0,-2.3656,-2.2213,-2.1189,-2.0536,-1.866,-1.7795,-1.7788,-1.7617,-1.7568,-1.7614,-1.9471,-1.8806,-1.6987,-1.6713,-1.6688,-1.6666,-1.6666,-1.6572,-1.6565,-1.5982,-1.5711,-1.5315,-1.4838,-1.4577,0.0,-1.4387,-1.4387,-1.438,-1.4346,-1.4251,-1.4143,-1.4089,-1.3953,-1.3745,-1.3804,-1.3709,-1.3654,-1.3736,-1.3559,-1.339,-1.3363,-1.3301,-1.3401,-1.3936,-1.3683,-1.374,-1.4845,-1.4618,-1.4485,-1.4789,-1.4789,-1.4696,-1.4353,-1.423,-1.3992,-1.3692,-1.3386,-1.2956,-1.2595,-1.2595,-1.2595,-1.2595,-1.23,-1.2181,-1.2168,-1.2292,-1.2292,-1.2237,-1.2086,-1.207,0.0,0.0,0.0,0.0,0.0,0.0,0.0,0.0,0.0,0.0,0.0,-2.6787,-2.7388,0.0,-2.9245,-3.0581,-3.153,-3.2315,-3.2907,-3.3158,-3.3132,-3.2828,-3.3066,-3.3035,-3.2415,-3.2428,-3.2428,-3.2428,-3.2299,-3.231,-3.2611,-3.2481,-3.2368,-3.2209,-2.9775,-2.8376,-2.8312,-2.4737,-2.2849,-2.2646,-2.163,-2.0803,-2.0225,-1.9394,-1.8773,-1.8277,-1.7002,-1.653,-1.651,-1.6286,-1.6151,-1.6254,-1.7277,-1.6845,-1.5622,-1.5466,-1.5364,-1.5289,-1.5208,-1.5181,-1.5181,-1.5181,-1.5079,-1.4964,-1.4964,-1.4862,-1.4726,-1.4658,-1.4638,-1.4597,-1.4448,-1.4407,-1.4367,-1.4224,-1.4129,-1.4048,-1.3973,-1.3899,-1.3851,-1.3844,-1.3783,-1.3688,-1.3539,-1.3397,-1.3302,-1.3311,-1.3214,-1.3272,-1.3582,-1.3532,-1.3483,-1.3483,-1.3483,-1.3483,-1.3483,-1.3411,-1.3326,-1.3248,-1.3014,-1.2817,-1.2588,-1.2581,-1.2547,-1.2623,-1.2469,-1.2433,-1.2515,-1.2589,-1.2623,-1.2623,-1.2549,-1.2467,0.0,0.0,0.0,0.0,0.0,0.0,0.0,-2.6613,-2.7134,-2.7014,-2.7455,-2.819,-2.9272,-2.9713,-3.0421,-3.2011,-3.2621,-3.2967,-3.3068,-3.3291,-3.3175,-3.2542,-3.2697,-3.2737,-3.2213,-3.2325,-3.2363,-3.2123,-3.2098,-3.2086,-3.1908,-3.1895,-3.1567,-3.0987,-2.8811,-2.7465,-2.6955,-2.2545,-2.0279,-2.0279,-1.8013,-1.6978,-1.6978,-1.6978,-1.6978,-1.6971,-1.6815,-1.672,-1.6646,-1.6408,-1.6293,-1.6239,-1.5995,-1.5825,-1.5716,-1.5662,-1.554,-1.5391,-1.5269,-1.5208,-1.5181,-1.5181,-1.516,-1.514,-1.514,-1.512,-1.5072,-1.4957,-1.4903,-1.4821,-1.4577,-1.4584,-1.459,-1.4353,-1.4299,-1.4265,-1.4143,-1.4095,-1.4034,-1.3912,-1.396,-1.3953,-1.3715,-1.3668,-1.3532,-1.3112,-1.3024,-1.301,-1.3044,-1.3024,-1.3017,-1.3044,-1.3051,-1.3037,-1.3003,-1.3003,-1.2935,-1.2786,-1.2773,-1.2718,-1.2596,-1.2589,-1.2651,-1.2773,-1.2773,-1.2834,-1.2963,-1.307,-1.3003,-1.3003,-1.303,-1.2949,-2.4462,-2.4743,-2.5438,-2.5732,-2.644,-2.7201,0.0,-2.8136,-2.8551,-2.9032,-2.9606,-3.0207,-3.0862,-3.1223,-3.1744,-3.2719,-3.2762,-3.2869,-3.3368,-3.3174,-3.2809,-3.1975,-3.2388,-3.2401,-3.1884,-3.1908,-3.1908,-3.1884,-3.1871,-3.1965,-3.2099,-3.2188,-3.0929,-2.8212,-2.6035,-2.3672,-2.1207,-1.8738,-1.7496,-1.7496,-1.7188,-1.6978,-1.6978,-1.6978,-1.6978,-1.6971,-1.6815,-1.6598,-1.6354,-1.6327,-1.6232,-1.6103,-1.6069,-1.6049,-1.6001,-1.5737,-1.554,-1.5411,-1.5391,-1.5296,-1.5181,-1.5181,-1.5099,-1.4991,-1.4991,-1.4896,-1.4787,-1.4767,-1.4665,-1.4557,-1.4523,-1.4428,-1.434,-1.4306,-1.4299,-1.4292,-1.4278,-1.417,-1.4068,-1.4048,-1.3946,-1.3858,-1.3824,-1.3817,-1.3709,-1.3397,-1.3234,-1.32,-1.3336,-1.3234,-1.32,-1.3336,-1.3349,-1.3295,-1.3159,-1.3152,-1.3085,-1.2942,-1.2935,-1.2929,-1.2908,-1.2908,-1.2915,-1.2935,-1.2935,-1.2942,-1.2963,-1.3085,-1.3152,-1.3152,-1.3288,-1.32,-2.5558,-2.5865,-2.652,-2.7509,-2.8283,-2.8965,-2.9553,-3.0047,-3.0408,-3.0488,-3.0969,-3.145,-3.169,-3.1683,-3.1926,-3.2623,-3.2719,-3.2648,-3.2758,-3.2734,-3.248,-3.1671,-3.1899,-3.2041,-3.1554,-3.1688,-3.1713,-3.1542,-3.153,-3.1524,-3.1462,-3.0133,-2.8746,-2.7502,-2.3945,-2.1414,-2.0279,-1.8118,-1.6978,-1.6978,-1.6978,-1.6978,-1.6978,-1.6978,-1.6978,-1.6978,-1.691,-1.6815,-1.6693,-1.6605,-1.6476,-1.6327,-1.6246,-1.6157,-1.6056,-1.5839,-1.5723,-1.5655,-1.5574,-1.5445,-1.5316,-1.5316,-1.5215,-1.5092,-1.5092,-1.5045,-1.4977,-1.4896,-1.4828,-1.476,-1.4665,-1.4597,-1.4557,-1.4557,-1.4489,-1.4421,-1.4421,-1.4306,-1.4204,-1.4204,-1.415,-1.4082,-1.3987,-1.3973,-1.3905,-1.3688,-1.36,-1.3587,-1.3648,-1.36,-1.3587,-1.3648,-1.3654,-1.3634,-1.3566,-1.3485,-1.3451,-1.3471,-1.3397,-1.339,-1.3471,-1.3471,-1.3471,-1.3471,-1.3471,-1.3471,-1.3471,-1.3532,-1.3559,-1.3559,-1.3627,-1.3593,-2.6306,-2.6894,-2.7736,-2.8965,-2.99,-3.0648,-3.1156,-3.1664,-3.2024,-3.1971,-3.2158,-3.2398,-3.2559,-3.2136,-3.209,-3.2755,-3.2597,-3.2461,-3.2313,-3.2385,-3.2209,-3.1538,-3.1566,-3.159,-3.1312,-3.1602,-3.1722,-3.1517,-3.1505,-3.1384,-3.1119,-2.8797,-2.7381,-2.7355,-2.2812,-2.0328,-2.0279,-1.8118,-1.6978,-1.6978,-1.6978,-1.6978,-1.6985,-1.7019,-1.7019,-1.6985,-1.7019,-1.6992,-1.6904,-1.6748,-1.6598,-1.6449,-1.63,-1.6178,-1.6069,-1.5954,-1.5893,-1.5839,-1.5737,-1.5601,-1.5466,-1.5425,-1.5337,-1.5235,-1.5194,-1.5181,-1.516,-1.5059,-1.5004,-1.4943,-1.4835,-1.4774,-1.474,-1.474,-1.4658,-1.4577,-1.4577,-1.4496,-1.4407,-1.4367,-1.436,-1.4312,-1.4163,-1.4136,-1.4095,-1.3987,-1.3966,-1.3933,-1.3851,-1.3838,-1.3838,-1.3838,-1.3838,-1.3838,-1.3838,-1.3749,-1.3729,-1.3745,-1.3743,-1.3736,-1.3838,-1.3838,-1.3838,-1.3838,-1.3838,-1.3838,-1.3838,-1.3838,-1.3838,-1.3838,-1.3838,-1.3838,-2.6306,-2.7655,-2.9125,-2.974,-3.0969,-3.2118,-3.2425,-3.2719,-3.3106,-3.3681,-3.3347,-3.3133,-3.3721,-3.296,-3.2468,-3.3328,-3.2542,-3.2015,-3.2561,-3.2334,-3.1988,-3.1457,-3.1397,-3.13,-3.1034,-3.1493,-3.1807,-3.1795,-3.1795,-3.1674,-3.1397,-2.9119,-2.7725,-2.7262,-2.2843,-2.0458,-2.0279,-1.8118,-1.6978,-1.6978,-1.6978,-1.6978,-1.6985,-1.7121,-1.7114,-1.6985,-1.7127,-1.7019,-1.6748,-1.6592,-1.6442,-1.63,-1.6151,-1.6083,-1.6083,-1.6076,-1.5981,-1.5852,-1.5845,-1.575,-1.5608,-1.5459,-1.5404,-1.5377,-1.5228,-1.5181,-1.5181,-1.5174,-1.5079,-1.497,-1.4964,-1.4855,-1.474,-1.474,-1.4733,-1.4733,-1.4733,-1.4726,-1.4679,-1.4536,-1.4502,-1.4462,-1.4319,-1.4292,-1.4292,-1.4285,-1.4285,-1.4177,-1.3878,-1.3838,-1.3838,-1.3838,-1.3838,-1.3838,-1.3838,-1.3838,-1.3838,-1.3838,-1.3838,-1.3838,-1.3838,-1.3838,-1.3838,-1.3838,-1.3838,-1.3838,-1.3838,-1.3838,-1.3838,-1.3838,-1.3838,-1.3838,-2.7308,-2.8564,-2.9953,-3.1316,-3.2318,-3.3106,-3.3614,-3.3948,-3.4108,-3.3921,-3.3574,-3.3227,-3.304,-3.2136,-3.1534,-3.2187,-3.1685,-3.1493,-3.1935,-3.2144,-3.1867,-3.0974,-3.1336,-3.1348,-3.0564,-3.0962,-3.1336,-3.1517,-3.1698,-3.1106,-2.9377,-2.7066,-2.5632,-2.5483,-2.0898,-1.922,-2.0637,-1.8321,-1.7121,-1.7121,-1.7026,-1.6978,-1.6985,-1.7032,-1.7026,-1.6985,-1.7032,-1.6992,-1.689,-1.6734,-1.6585,-1.6435,-1.6293,-1.6171,-1.6083,-1.6083,-1.6049,-1.6001,-1.6001,-1.5906,-1.5771,-1.5723,-1.5574,-1.5404,-1.535,-1.5262,-1.5181,-1.5181,-1.5147,-1.5113,-1.5113,-1.5072,-1.5031,-1.5031,-1.4964,-1.4896,-1.4896,-1.4814,-1.4726,-1.4672,-1.4665,-1.4652,-1.4597,-1.459,-1.459,-1.459,-1.4428,-1.4265,-1.4156,-1.4143,-1.4143,-1.4143,-1.4143,-1.4143,-1.4143,-1.4055,-1.4075,-1.4272,-1.4102,-1.4082,-1.4278,-1.4197,-1.4143,-1.4143,-1.4143,-1.4143,-1.4143,-1.4143,-1.4143,-1.4143,-1.4143,-1.4143,-2.843,-2.9646,-3.0889,-3.2345,-3.3227,-3.3841,-3.4229,-3.4549,-3.4629,-3.4135,-3.3547,-3.2973,-3.2478,-3.1263,-3.0527,-3.1287,-3.0969,-3.0938,-3.1566,-3.1891,-3.1735,-3.0853,-3.1119,-3.1071,-3.0286,-3.0612,-3.0962,-3.1228,-3.1505,-3.0681,-2.8285,-2.5957,-2.4589,-2.4523,-1.9908,-1.8539,-2.0815,-1.8429,-1.7168,-1.7114,-1.7026,-1.6978,-1.6985,-1.7032,-1.7026,-1.6985,-1.7032,-1.7026,-1.6965,-1.6754,-1.6612,-1.6503,-1.6307,-1.6171,-1.6083,-1.6083,-1.6083,-1.6083,-1.6083,-1.6015,-1.5927,-1.5872,-1.5689,-1.5486,-1.5425,-1.5303,-1.5181,-1.5181,-1.5181,-1.5194,-1.5248,-1.5221,-1.5194,-1.5248,-1.5153,-1.5045,-1.5045,-1.497,-1.4882,-1.4835,-1.4821,-1.4808,-1.4746,-1.474,-1.474,-1.474,-1.4577,-1.4434,-1.438,-1.4421,-1.4414,-1.4312,-1.4394,-1.4434,-1.438,-1.4333,-1.4394,-1.4584,-1.4414,-1.4394,-1.4584,-1.4509,-1.4455,-1.4455,-1.4455,-1.4455,-1.4455,-1.4401,-1.4373,-1.4373,-1.4326,-1.4299,-2.9566,-3.0822,-3.1917,-3.2786,-3.3668,-3.4322,-3.4322,-3.4523,-3.4629,-3.4322,-3.3293,-3.2372,-3.2091,-3.0496,-2.967,-3.0704,-3.0489,-3.0527,-3.13,-3.1674,-3.165,-3.1071,-3.0817,-3.0564,-3.0262,-3.0467,-3.0733,-3.0974,-3.124,-3.0423,-2.8058,-2.5909,-2.4632,-2.4444,-2.0031,-1.8668,-2.0749,-1.8337,-1.7127,-1.6978,-1.6978,-1.6978,-1.6985,-1.7121,-1.7107,-1.6985,-1.7114,-1.7093,-1.6944,-1.6639,-1.651,-1.6483,-1.6191,-1.6083,-1.6083,-1.6083,-1.6083,-1.6083,-1.6083,-1.6083,-1.6056,-1.5913,-1.5771,-1.5622,-1.5479,-1.5323,-1.5208,-1.5208,-1.5208,-1.5242,-1.5384,-1.5316,-1.5242,-1.5391,-1.5309,-1.5201,-1.5194,-1.5194,-1.5153,-1.5011,-1.4984,-1.4936,-1.4801,-1.4767,-1.4767,-1.478,-1.4774,-1.4706,-1.4543,-1.4652,-1.4631,-1.4353,-1.457,-1.4679,-1.4536,-1.4658,-1.474,-1.4753,-1.4746,-1.474,-1.4753,-1.4746,-1.474,-1.474,-1.474,-1.474,-1.474,-1.459,-1.4523,-1.4523,-1.4387,-1.4326,-3.0287,-3.1423,-3.2478,-3.3133,-3.3814,-3.4322,-3.4322,-3.4215,-3.3961,-3.3427,-3.2211,-3.1116,-3.0662,-2.9814,-2.9482,-3.0216,-3.0595,-3.101,-3.1614,-3.2266,-3.2266,-3.1131,-3.1469,-3.1457,-3.0588,-3.0745,-3.0926,-3.0986,-3.124,-3.0423,-2.8058,-2.5909,-2.4806,-2.4651,-2.0201,-1.8877,-2.123,-1.8668,-1.7236,-1.6978,-1.6978,-1.6978,-1.6985,-1.7019,-1.7012,-1.6978,-1.6897,-1.6842,-1.6788,-1.6483,-1.6368,-1.6347,-1.6157,-1.6083,-1.6083,-1.6083,-1.6083,-1.6083,-1.6083,-1.6083,-1.6076,-1.6035,-1.592,-1.5791,-1.575,-1.5635,-1.552,-1.552,-1.552,-1.5533,-1.5567,-1.5554,-1.5533,-1.5574,-1.5554,-1.5493,-1.5377,-1.535,-1.5309,-1.516,-1.5126,-1.5153,-1.5228,-1.5147,-1.5147,-1.5377,-1.5215,-1.4977,-1.4713,-1.4713,-1.4713,-1.4638,-1.4692,-1.4726,-1.4685,-1.4719,-1.4787,-1.4903,-1.4801,-1.4794,-1.4909,-1.4801,-1.474,-1.474,-1.474,-1.474,-1.474,-1.4699,-1.4679,-1.4679,-1.4645,-1.4624,-3.0849,-3.1749,-3.2557,-3.3194,-3.3369,-3.3376,-3.3367,-3.312,-3.2676,-3.1864,-3.0782,-2.988,-2.9546,-2.8822,-2.8594,-2.9599,-3.0152,-3.0745,-3.1517,-3.2205,-3.2362,-3.1614,-3.1819,-3.1747,-3.1022,-3.1083,-3.0701,-2.9515,-2.9745,-2.9236,-2.7951,-2.4938,-2.3311,-2.3311,-1.9823,-1.8494,-1.9725,-1.8248,-1.7405,-1.7175,-1.7107,-1.7073,-1.7066,-1.6937,-1.6876,-1.687,-1.6714,-1.6686,-1.6727,-1.6429,-1.6347,-1.6388,-1.6239,-1.6144,-1.6096,-1.6225,-1.6191,-1.609,-1.6157,-1.6137,-1.6083,-1.6083,-1.5981,-1.5852,-1.5852,-1.575,-1.5642,-1.5642,-1.5642,-1.5655,-1.5716,-1.5683,-1.5655,-1.5716,-1.5683,-1.5615,-1.5527,-1.5513,-1.5486,-1.5398,-1.5384,-1.5411,-1.5499,-1.5438,-1.5438,-1.5615,-1.5493,-1.5296,-1.5065,-1.4977,-1.4882,-1.4753,-1.4855,-1.4909,-1.4848,-1.4896,-1.497,-1.5059,-1.4984,-1.497,-1.5059,-1.4984,-1.4936,-1.4936,-1.4936,-1.4936,-1.4936,-1.4869,-1.4841,-1.4841,-1.4774,-1.474,-3.1325,-3.1744,-3.2298,-3.3047,-3.2706,-3.2186,-3.1917,-3.1605,-3.1073,-2.9922,-2.9176,-2.877,-2.851,-2.7861,-2.775,-2.9082,-2.9676,-3.0262,-3.13,-3.1606,-3.1832,-3.1761,-3.1259,-3.0928,-3.0976,-3.0705,-2.9731,-2.7714,-2.7239,-2.7131,-2.7419,-2.353,-2.1132,-2.0811,-1.8964,-1.7792,-1.765,-1.765,-1.7568,-1.7419,-1.7283,-1.7209,-1.7182,-1.6924,-1.6788,-1.6637,-1.6612,-1.6605,-1.6673,-1.6435,-1.6388,-1.6456,-1.6347,-1.6218,-1.611,-1.6368,-1.6313,-1.613,-1.6239,-1.6205,-1.611,-1.609,-1.5995,-1.5886,-1.5886,-1.5798,-1.5696,-1.5696,-1.5696,-1.5723,-1.5852,-1.5791,-1.573,-1.5852,-1.5791,-1.5689,-1.5669,-1.5655,-1.5642,-1.5642,-1.5642,-1.5642,-1.5662,-1.5649,-1.5655,-1.5689,-1.5662,-1.5601,-1.5486,-1.5316,-1.5106,-1.4828,-1.5031,-1.5133,-1.5011,-1.5113,-1.5181,-1.5181,-1.5181,-1.5181,-1.5181,-1.5181,-1.5181,-1.5181,-1.5181,-1.5181,-1.5181,-1.5059,-1.4997,-1.4997,-1.4862,-1.4801,-3.1868,-3.1987,-3.1856,-3.1995,-3.2059,-3.1703,-3.0761,-3.0183,-2.9499,-2.868,-2.8104,-2.7693,-2.7548,-2.7889,-2.8452,-2.9286,-2.9936,-3.0769,-3.1614,-3.0608,-2.9646,-2.9152,-2.7574,-2.7265,-2.8891,-2.7161,-2.6606,-2.807,-2.4651,-2.3195,-2.4961,-2.267,-2.0482,-1.8508,-1.8088,-1.7792,-1.765,-1.765,-1.7568,-1.7419,-1.7392,-1.7317,-1.7188,-1.7141,-1.6978,-1.6748,-1.672,0.0,-1.6388,-1.6456,-1.6354,-1.6171,-1.6273,-1.6218,-1.609,-1.6137,-1.6205,-1.6252,-1.6157,-1.6185,-1.6252,-1.6123,-1.6062,-1.6042,-1.6042,-1.6022,-1.6008,-1.6008,-1.6008,-1.6008,-1.6035,-1.6022,-1.6008,-1.6035,-1.6022,-1.5967,-1.5845,-1.5723,-1.5642,-1.5642,-1.5642,-1.5676,-1.5798,-1.5716,-1.5723,-1.5967,-1.5798,-1.5676,-1.5764,-1.554,-1.5303,-1.5126,-1.5153,-1.5174,-1.5147,-1.5167,-1.5181,-1.5181,-1.5181,-1.5181,-1.5181,-1.5181,-1.5181,-1.5181,-1.5181,-1.5181,-1.5181,-1.516,-1.5147,-1.5147,-1.512,-1.5106,-3.1285,-3.1516,-3.1591,-3.1756,-3.1416,-3.0677,-2.9576,-2.8875,-2.8153,-2.6859,-2.6691,-2.6748,-2.6673,-2.7109,-2.7693,-2.8438,-2.9019,-2.9779,-3.101,-2.9568,-2.8478,-2.8875,-2.6814,-2.5731,-2.6854,-2.568,-2.4726,-2.4608,-2.2555,-2.2303,-2.4477,-2.2504,-2.0262,-1.7977,-1.786,-1.7826,-1.7758,-1.7758,-1.7717,-1.765,-1.7494,-1.7385,-1.7304,-1.7066,-1.6883,-1.6748,-1.6666,-1.6551,-1.6422,-1.649,-1.6395,-1.6218,-1.6361,-1.6279,-1.6103,-1.6252,-1.6307,-1.63,-1.6225,-1.6246,-1.6286,-1.613,-1.6083,-1.6083,-1.6083,-1.6083,-1.6083,-1.6083,-1.6137,-1.6185,-1.6103,-1.6198,-1.6273,-1.6117,-1.6083,-1.6083,-1.609,-1.5974,-1.5872,-1.5872,-1.5934,-1.6008,-1.6083,-1.6035,-1.6035,-1.6178,-1.6015,-1.5866,-1.5852,-1.573,-1.5588,-1.5438,-1.5418,-1.5391,-1.5309,-1.5303,-1.5303,-1.5303,-1.5303,-1.5337,-1.5418,-1.5418,-1.5384,-1.5303,-1.5303,-1.5303,-1.5303,-1.5303,-1.5303,-1.5303,-1.5384,-1.5337,-3.0752,-3.0947,-3.1195,-3.144,-3.0772,-2.9712,-2.8499,-2.7743,-2.692,-2.5307,-2.5407,-2.5911,-2.6018,-2.6352,-2.6844,-2.7626,-2.7944,-2.8681,-3.0298,-2.8328,-2.7089,-2.8296,-2.5567,-2.3989,-2.4605,-2.3854,-2.2765,-2.136,-2.0811,-2.136,-2.3202,-2.1571,-1.9728,-1.7977,-1.786,-1.7846,-1.7812,-1.7846,-1.7846,-1.7812,-1.7609,-1.748,-1.7405,-1.7053,-1.6842,-1.6748,-1.6659,-1.6564,-1.6483,-1.6544,-1.6449,-1.6273,-1.6422,-1.6313,-1.611,-1.6381,-1.6422,-1.6354,-1.6354,-1.6374,-1.6381,-1.6225,-1.613,-1.609,-1.6123,-1.613,-1.6137,-1.6171,-1.6259,-1.6327,-1.6205,-1.6347,-1.6463,-1.6232,-1.6151,-1.6171,-1.632,-1.6239,-1.6137,-1.6171,-1.6273,-1.6354,-1.6354,-1.6354,-1.6354,-1.6354,-1.6225,-1.6096,-1.6008,-1.594,-1.5872,-1.5791,-1.5696,-1.5588,-1.5472,-1.5459,-1.5459,-1.5459,-1.5459,-1.5513,-1.5635,-1.5642,-1.5581,-1.5459,-1.5459,-1.5459,-1.5459,-1.5459,-1.5459,-1.5459,-1.5581,-1.5513,-3.0999,-3.0803,-3.04,-3.0618,-3.0121,-2.9055,-2.7493,-2.6742,-2.6052,-2.4877,-2.5013,-2.5462,-2.5737,-2.6362,-2.7004,-2.7408,-2.7679,-2.8415,-3.002,-2.6513,-2.4249,-2.5319,-2.1541,-1.9655,-2.1755,-1.9825,-1.9287,-2.1132,-1.9405,-1.8302,-1.8508,-1.8302,-1.8074,-1.786,-1.786,-1.7792,-1.767,-1.7792,-1.7792,-1.767,-1.7772,-1.7684,-1.7419,-1.7378,-1.7134,-1.6754,-1.6883,-1.6707,0.0,-1.6619,-1.6483,-1.6117,-1.6273,-1.6225,-1.6103,-1.6266,-1.6402,-1.6503,-1.6503,-1.6592,-1.6686,-1.653,-1.63,-1.611,-1.6246,-1.6286,-1.6313,-1.6442,-1.649,-1.6497,-1.6483,-1.6503,-1.6517,-1.649,-1.6381,-1.6327,-1.6469,-1.6388,-1.6327,-1.6456,-1.649,-1.6503,-1.6503,-1.6503,-1.6503,-1.6503,-1.6381,-1.6334,-1.6442,-1.6225,-1.611,-1.6232,-1.5879,-1.5635,-1.5622,-1.5615,-1.5615,-1.5615,-1.5615,-1.5628,-1.5642,-1.5642,-1.5635,-1.5615,-1.5615,-1.5615,-1.5615,-1.5615,-1.5615,-1.5615,-1.5635,-1.5622,-3.031,-3.0732,-3.0672,-3.0624,-3.025,-2.9429,-2.7667,-2.6725,-2.5868,-2.4637,-2.4477,-2.4656,-2.4806,-2.5313,-2.5847,-2.6146,-2.6447,-2.7123,-2.856,-2.6245,-2.4493,-2.435,-2.1665,-1.975,-1.95,-1.8503,-1.8302,-1.9177,-1.8412,-1.786,-1.786,-1.786,-1.786,-1.786,-1.786,-1.7826,-1.7772,-1.7826,-1.7826,-1.7772,-1.7758,-1.7623,-1.7419,-1.7324,-1.7141,-1.689,-1.6951,-1.6829,0.0,-1.6802,-1.6625,-1.6232,-1.6381,-1.6347,-1.6225,-1.6286,-1.6456,-1.6646,-1.6551,-1.6619,-1.6727,-1.6571,-1.6442,-1.6361,-1.6422,-1.6435,-1.6449,-1.6503,-1.6585,-1.6639,-1.6544,-1.6524,-1.6564,-1.6754,-1.6551,-1.6347,-1.649,-1.6408,-1.6327,-1.6381,-1.6537,-1.6659,-1.6659,-1.6659,-1.6659,-1.6659,-1.653,-1.6456,-1.6517,-1.6422,-1.6334,-1.6313,-1.6069,-1.5866,-1.5778,-1.5771,-1.5771,-1.5771,-1.5771,-1.5811,-1.59,-1.5906,-1.5859,-1.5771,-1.5771,-1.5771,-1.5771,-1.5771,-1.5771,-1.5771,-1.5859,-1.5811,-2.9803,-3.0491,-3.0745,-3.0636,-3.0165,-2.932,-2.7679,-2.6616,-2.5651,-2.448,-2.4238,-2.4263,-2.4335,-2.465,-2.5023,-2.5289,-2.5675,-2.6327,-2.7425,-2.6023,-2.4526,-2.3625,-2.1689,-1.9731,-1.7998,-1.7846,-1.786,-1.786,-1.786,-1.786,-1.786,-1.786,-1.786,-1.786,-1.786,-1.7846,-1.7792,-1.7846,-1.7826,-1.7738,-1.767,-1.7548,-1.7351,-1.7243,-1.7114,-1.6978,-1.6978,-1.6897,0.0,-1.687,-1.67,-1.6381,-1.6483,-1.6463,-1.6381,-1.6422,-1.6571,-1.6741,-1.668,-1.6727,-1.6802,-1.6693,-1.6659,-1.6659,-1.6659,-1.6625,-1.6598,-1.6646,-1.6734,-1.6795,-1.6686,-1.6659,-1.6714,-1.6931,-1.67,-1.6483,-1.6625,-1.6544,-1.6456,-1.6497,-1.668,-1.6815,-1.6815,-1.6815,-1.6815,-1.6815,-1.6686,-1.6605,-1.6653,-1.6578,-1.6483,-1.6381,-1.6239,-1.609,-1.5934,-1.592,-1.592,-1.592,-1.592,-1.5967,-1.6076,-1.6083,-1.6029,-1.5927,-1.592,-1.592,-1.592,-1.592,-1.592,-1.5927,-1.6029,-1.5967,-2.9806,-3.0214,-3.0286,-3.0539,-2.961,-2.8355,-2.728,-2.6206,-2.5216,-2.4395,-2.4238,-2.4311,-2.4576,-2.4854,-2.4963,-2.4963,-2.5699,-2.6411,-2.6966,-2.5425,-2.3889,-2.2802,-2.0599,-1.8572,-1.7353,-1.7602,-1.786,-1.786,-1.786,-1.786,-1.786,-1.786,-1.786,-1.786,-1.786,-1.7792,-1.765,-1.7792,-1.7724,-1.7426,-1.7575,-1.7487,-1.7195,-1.7195,-1.7114,-1.6978,-1.6978,-1.6897,0.0,-1.6754,-1.6659,-1.6517,-1.6524,-1.6517,-1.6537,-1.6686,-1.6748,-1.6768,-1.6924,-1.6978,-1.6978,-1.6978,-1.6978,-1.6978,-1.6978,-1.687,-1.6781,-1.6931,-1.6978,-1.6978,-1.6978,-1.6978,-1.6978,-1.6978,-1.6863,-1.6788,-1.6944,-1.6856,-1.6788,-1.6944,-1.6978,-1.6978,-1.6978,-1.6978,-1.6978,-1.6978,-1.6842,-1.6802,-1.6958,-1.6714,-1.6524,-1.6517,-1.6395,-1.6246,-1.609,-1.6083,-1.6083,-1.6083,-1.6083,-1.6083,-1.6083,-1.6083,-1.6083,-1.6083,-1.6083,-1.6083,-1.6083,-1.6083,-1.6083,-1.6083,-1.6083,-1.6083,-2.7727,-2.8427,-2.8813,-2.8717,-2.8379,-2.7787,-2.6725,-2.594,-2.5252,-2.4637,-2.4214,-2.4045,-2.4311,-2.4432,-2.459,-2.5216,-2.5675,-2.5695,-2.4936,-2.4747,-2.3524,-2.0263,-1.8691,-1.7735,-1.7711,-1.7772,-1.786,-1.786,-1.786,-1.786,-1.786,-1.7772,-1.7758,-1.786,-1.7772,-1.7704,-1.765,-1.7487,-1.7412,-1.7419,-1.7365,-1.7236,-1.7046,-1.7046,-1.6965,-1.6822,-1.6822,-1.6856,-1.691,-1.691,-1.6815,-1.668,-1.668,-1.668,-1.668,-1.663,-1.6815,-1.6917,-1.6965,-1.6978,-1.6978,-1.6978,-1.6978,-1.6978,-1.6978,-1.6944,-1.6917,-1.6965,-1.6978,-1.6978,-1.6978,-1.6978,-1.6978,-1.6978,-1.6863,-1.6761,-1.6809,-1.6781,-1.6761,-1.6815,-1.691,-1.6978,-1.6978,-1.6978,-1.6978,-1.6978,-1.6937,-1.6924,-1.6971,-1.6897,-1.6795,-1.6686,-1.6639,-1.6469,-1.611,-1.6083,-1.6083,-1.6083,-1.6083,-1.6083,-1.6083,-1.6083,-1.6083,-1.6083,-1.6083,-1.6083,-1.6083,-1.6083,-1.6083,-1.6083,-1.6083,-1.6083,-2.6701,-2.7461,-2.7896,-2.7824,-2.7594,-2.7135,-2.6266,-2.559,-2.4975,-2.4444,-2.3989,-2.3808,-2.4057,-2.4166,-2.415,-2.3969,-2.4499,-2.4204,-2.2444,-2.2932,-2.2186,-1.886,-1.7574,-1.7093,-1.7494,-1.7738,-1.7846,-1.7792,-1.7772,-1.7758,-1.7704,-1.7609,-1.7602,-1.7684,-1.7609,-1.7561,-1.7561,-1.7372,-1.7297,-1.7331,-1.7182,-1.7032,-1.689,-1.6836,-1.6788,-1.6748,-1.6748,-1.6836,0.0,-1.6978,-1.6924,-1.6836,-1.6836,-1.6836,-1.6836,-1.6836,-1.6897,-1.6978,-1.6978,-1.6978,-1.6978,-1.6978,-1.6978,-1.6978,-1.6978,-1.6978,-1.6978,-1.6978,-1.6978,-1.6978,-1.6978,-1.6978,-1.6978,-1.6978,-1.691,-1.6836,-1.6836,-1.6836,-1.6836,-1.6836,-1.6917,-1.6998,-1.7053,-1.7019,-1.6998,-1.7053,-1.7012,-1.6978,-1.6978,-1.6978,-1.6924,-1.6768,-1.6748,-1.6612,-1.6279,-1.6246,-1.6246,-1.6246,-1.6246,-1.6225,-1.6171,-1.6171,-1.6144,-1.6083,-1.6137,-1.6171,-1.6171,-1.6225,-1.6246,-1.6246,-1.6246,-1.6246,0.0,-2.7027,-2.728,-2.7498,-2.7027,-2.6363,-2.5832,-2.5132,0.0,-2.3892,-2.3772,-2.3772,-2.3624,-2.3815,-2.3482,-2.1878,-2.2428,-2.2304,-1.9914,-2.0271,-1.9998,-1.8295,-1.7191,-1.6659,-1.6978,-1.7521,-1.7792,-1.765,-1.754,-1.7582,-1.7433,-1.7412,-1.7405,-1.7405,-1.7392,-1.7392,-1.7405,-1.7385,-1.7304,-1.7175,-1.7032,-1.6883,-1.6727,-1.6585,-1.6598,0.0,-1.6734,-1.6829,-1.6978,-1.6978,-1.6978,-1.6978,-1.6978,-1.6978,-1.6978,-1.6978,-1.6978,-1.6978,-1.6978,-1.6978,-1.6978,-1.6978,-1.6978,-1.6978,-1.6978,-1.6978,-1.6978,-1.6978,-1.6978,-1.6978,-1.6978,-1.6978,-1.6978,-1.6978,-1.6978,-1.6978,-1.6978,-1.6978,-1.6978,-1.6978,-1.6978,-1.7026,-1.7168,-1.708,-1.7039,-1.7175,-1.708,-1.6992,-1.6985,-1.6978,-1.6924,-1.6781,-1.6768,-1.6707,-1.6564,-1.653,-1.6524,-1.6524,-1.6524,-1.6463,-1.6334,-1.6327,-1.6259,-1.6117,-1.6252,-1.6327,-1.6327,-1.6456,-1.6524,-1.6524,-1.6524,-1.6524,-2.4721,0.0,-2.5252,-2.5108,-2.5083,-2.5011,0.0,-2.4468,-2.4287,-2.4166,-2.3904,-2.3499,-2.2296,-2.1974,-2.1981,-2.2208,-2.1531,-2.0764,-2.0,-1.7911,-1.6546,-1.685,-1.6721,-1.6856,-1.7277,-1.7548,-1.7629,-1.7487,-1.7582,-1.7582,-1.7433,-1.7311,-1.7249,-1.7249,-1.7141,-1.7134,-1.7243,-1.7019,-1.6951,-1.7026,-1.6876,-1.672,-1.6571,-1.6537,-1.6537,-1.6578,-1.6578,-1.6727,-1.6978,-1.6978,-1.6978,-1.6978,-1.6978,-1.6978,-1.6978,-1.6978,-1.6978,-1.6978,-1.6978,-1.6978,-1.6978,-1.6978,-1.6978,-1.6978,-1.6978,-1.6978,-1.6978,-1.6978,-1.6978,-1.6978,-1.6978,-1.6978,-1.6978,-1.6978,-1.6978,-1.6978,-1.6978,-1.6978,-1.6978,-1.6978,-1.6978,-1.7026,-1.7168,-1.7161,-1.7154,-1.7188,-1.7161,-1.7107,-1.6992,-1.6978,-1.6965,-1.6931,-1.6924,-1.691,-1.6876,-1.6659,-1.6524,-1.6524,-1.6524,-1.651,-1.6476,-1.6469,-1.6456,-1.6422,-1.6456,-1.6469,-1.6469,-1.6503,-1.6524,-1.6524,-1.6524,-1.6524,-2.4021,-2.4335,-2.4625,-2.453,-2.4709,-2.4745,-2.448,-2.4323,-2.4202,-2.4001,-2.3856,-2.3279,-2.1588,-2.1243,-2.0821,-1.961,-1.891,-1.8401,-1.7762,-1.6231,-1.5404,-1.6313,-1.6619,-1.6897,-1.7277,-1.7453,-1.748,-1.7324,-1.7392,-1.7372,-1.7229,-1.7141,-1.7093,-1.7093,-1.7019,-1.7019,-1.7093,-1.6937,-1.6897,-1.6978,-1.6822,-1.6666,-1.6524,-1.6524,-1.6524,-1.6524,-1.6598,-1.6761,-1.6978,-1.6978,-1.6978,-1.6978,-1.6978,-1.6978,-1.6978,-1.6978,-1.6978,-1.6978,-1.6978,-1.6978,-1.6978,-1.6978,-1.6978,-1.6978,-1.6978,-1.7026,-1.7066,-1.6998,-1.6978,-1.6998,-1.706,-1.7032,-1.6998,-1.706,-1.7026,-1.6978,-1.6978,-1.6978,-1.6998,-1.7066,-1.7026,-1.7073,-1.7351,-1.7283,-1.7216,-1.729,-1.7236,-1.7141,-1.6998,-1.6978,-1.6978,-1.6978,-1.6978,-1.6978,-1.6978,-1.6829,-1.6734,-1.6734,-1.6734,-1.67,-1.6625,-1.6625,-1.6625,-1.6625,-1.6625,-1.6659,-1.6734,-1.6734,-1.6734,-1.6734,-1.6734,-1.6734,-2.3808,-2.4006,-2.433,-2.4735,-2.4639,-2.4425,-2.4152,-2.3669,-2.3272,-2.3027,-2.2968,-2.2419,-2.0522,-2.0338,-1.94,-1.6408,-1.6365,-1.6259,-1.531,-1.5221,-1.5554,-1.6293,-1.6619,-1.6883,-1.7134,-1.7297,-1.7324,-1.7168,-1.7182,-1.7127,-1.6985,-1.6978,-1.6978,-1.6978,-1.6978,-1.6978,-1.6978,-1.6978,-1.6978,-1.6978,-1.6849,-1.6707,-1.6558,-1.6558,-1.6558,-1.6564,-1.6693,0.0,-1.6978,-1.6978,-1.6978,-1.6978,-1.6978,-1.6978,-1.6978,-1.6978,-1.6978,-1.6978,-1.6978,-1.6978,-1.6978,-1.6978,-1.6978,-1.6978,-1.6978,-1.708,-1.7168,-1.7046,-1.7032,-1.7073,-1.7195,-1.7141,-1.7073,-1.7168,-1.71,-1.7005,-1.6985,-1.6978,-1.7026,-1.7161,-1.7093,-1.7148,-1.7575,-1.7433,-1.7297,-1.7405,-1.7311,-1.7168,-1.7005,-1.6978,-1.6978,-1.6978,-1.6978,-1.6978,-1.6978,-1.6978,-1.6992,-1.7012,-1.6992,-1.6924,-1.6788,-1.6788,-1.6788,-1.6788,-1.6788,-1.6849,-1.6978,-1.6978,-1.6978,-1.6978,-1.6978,-1.6978,-2.4118,-2.3223,-2.2604,-2.3713,-2.3039,-2.2053,-2.1801,-2.0567,-1.942,-1.9283,-1.9234,-1.8663,-1.6877,-1.67,-1.6725,-1.6576,-1.692,-1.6903,-1.6077,-1.5818,-1.5981,-1.6605,-1.6836,-1.6965,-1.7012,-1.7141,-1.7168,-1.7026,-1.7127,-1.7127,-1.6985,-1.6978,-1.6978,-1.6978,-1.6978,-1.6978,-1.6978,-1.6978,-1.6978,-1.6978,-1.6958,-1.6863,-1.6714,-1.6714,-1.6714,-1.6714,0.0,-1.6836,-1.6978,-1.6978,-1.6978,-1.6978,-1.6978,-1.6978,-1.6978,-1.6978,-1.6978,-1.6978,-1.6978,-1.6978,-1.6978,-1.6978,-1.6978,-1.6978,-1.6978,-1.708,-1.7188,-1.7168,-1.7256,-1.7358,-1.7378,-1.7372,-1.7324,-1.7216,-1.7175,-1.7127,-1.7005,-1.6978,-1.7026,-1.7161,-1.7175,-1.7263,-1.7595,-1.7609,-1.7541,-1.7439,-1.7399,-1.729,-1.7019,-1.6978,-1.6978,-1.6978,-1.6978,-1.6978,-1.6978,-1.6978,-1.7032,-1.7154,-1.7046,-1.6971,-1.6944,-1.6944,-1.6944,-1.6944,-1.6944,-1.6958,-1.6978,-1.6978,-1.6978,-1.6978,-1.6978,-1.6978,-2.3904,-2.2887,-2.1926,-2.2631,-2.1533,-2.0216,-2.0067,-1.9274,-1.856,-1.8432,-1.8385,-1.7876,-1.6018,-1.5991,-1.6119,-1.5868,-1.5985,-1.604,-1.6048,-1.5967,-1.6171,-1.6686,-1.689,-1.6978,-1.6978,-1.7039,-1.7053,-1.6985,-1.7039,-1.7053,-1.6985,-1.6978,-1.6978,-1.6978,-1.6978,-1.6978,-1.6978,-1.6978,-1.6978,-1.6978,-1.6978,-1.6897,-1.6651,-1.6836,-1.6829,-1.6754,0.0,-1.6917,-1.6978,-1.6978,-1.6978,-1.6978,-1.6978,-1.6978,-1.6978,-1.6978,-1.6978,-1.6978,-1.6978,-1.6978,-1.6978,-1.6978,-1.6978,-1.6978,-1.6978,-1.7134,-1.7317,-1.7317,-1.7365,-1.7439,-1.7521,-1.748,-1.7426,-1.7439,-1.7378,-1.7277,-1.7127,-1.7093,-1.7141,-1.729,-1.7249,-1.7311,-1.7704,-1.7704,-1.7623,-1.7555,-1.7541,-1.7467,-1.7249,-1.7216,-1.7216,-1.7216,-1.7216,-1.7216,-1.7216,-1.7216,-1.7175,-1.7087,-1.7087,-1.706,-1.6985,-1.6978,-1.6978,-1.6978,-1.6978,-1.6978,-1.6978,-1.6978,-1.6978,-1.6978,-1.6978,-1.6978,-2.376,-2.2391,-2.1014,-2.1106,-1.9832,-1.8575,-1.8612,-1.8094,-1.7548,-1.7481,-1.7375,-1.6845,-1.5384,-1.5622,-1.5835,-1.5186,-1.5167,-1.5466,-1.5988,-1.6164,-1.6381,-1.6761,-1.691,-1.6978,-1.6978,-1.6978,-1.6978,-1.6978,-1.6978,-1.6978,-1.6978,-1.6978,-1.6978,-1.6978,-1.6978,-1.6978,-1.6978,-1.6978,-1.6978,-1.6978,-1.6978,-1.6917,-1.6809,-1.6931,-1.6897,-1.6761,-1.691,-1.6958,-1.6931,-1.6931,-1.6951,-1.6978,-1.6944,-1.6951,-1.6978,-1.6978,-1.6978,-1.6978,-1.6978,-1.6978,-1.6978,-1.6978,-1.6978,-1.6985,-1.7019,-1.7216,-1.7426,-1.7467,-1.75,-1.7548,-1.767,-1.7616,-1.7548,-1.7629,-1.7561,-1.7433,-1.7277,-1.7243,-1.729,-1.7446,-1.7378,-1.7419,-1.7792,-1.7772,-1.7684,-1.765,-1.765,-1.7595,-1.7439,-1.7419,-1.7419,-1.7419,-1.7419,-1.7419,-1.7419,-1.7453,-1.7365,-1.71,-1.7182,-1.7195,-1.7087,-1.7087,-1.7087,-1.7087,-1.7087,-1.7087,-1.7087,-1.7087,-1.7087,-1.708,-1.7046,-1.7032,-2.376,-2.1486,-1.903,-1.9059,-1.7944,-1.6877,-1.7364,-1.6024,-1.4576,-1.4569,-1.4333,-1.4083,-1.3775,-1.4352,-1.4872,-1.5113,-1.5757,-1.6327,-1.6639,-1.6693,-1.6768,-1.6944,-1.6971,-1.6978,-1.6978,-1.6978,-1.6978,-1.6978,-1.6978,-1.6978,-1.6978,-1.6978,-1.6978,-1.6978,-1.6978,-1.6978,-1.6978,-1.6978,-1.6978,-1.6978,-1.6978,-1.6978,-1.6965,-1.6978,-1.6897,-1.6761,-1.691,-1.6897,-1.6768,-1.6768,-1.6849,-1.6965,-1.6822,-1.6856,-1.6978,-1.6978,-1.6978,-1.6978,-1.6978,-1.6978,-1.6978,-1.6978,-1.6978,-1.7005,-1.7141,-1.729,-1.7453,-1.7595,-1.7717,-1.7826,-1.7846,-1.7846,-1.7792,-1.7684,-1.754,-1.7589,-1.7439,-1.7405,-1.7446,-1.7602,-1.7623,-1.767,-1.7826,-1.786,-1.7812,-1.767,-1.765,-1.7595,-1.7439,-1.7419,-1.7419,-1.7419,-1.7419,-1.7419,-1.7419,-1.7548,-1.7561,-1.7399,-1.7399,-1.7399,-1.7392,-1.7392,-1.7392,-1.7392,-1.7392,-1.7392,-1.7392,-1.7392,-1.7392,-1.7385,-1.7243,-1.7175,-2.2076,-2.0165,-1.8265,-1.7678,-1.6238,-1.5097,-1.5446,-1.4888,-1.4434,-1.4434,-1.434,-1.4245,-1.419,-1.4489,-1.4896,-1.5384,-1.5859,-1.6273,-1.6564,-1.653,-1.6564,-1.6809,-1.6836,-1.6876,-1.6971,-1.6978,-1.6978,-1.6978,-1.6978,-1.6978,-1.6978,-1.6978,-1.6978,-1.6978,-1.6978,-1.6978,-1.6978,-1.6978,-1.6978,-1.6978,-1.6978,-1.6978,-1.6978,-1.6978,-1.6951,-1.6897,-1.6958,-1.6944,-1.689,-1.6788,-1.6842,-1.6978,-1.6917,-1.6931,-1.6978,-1.6978,-1.6978,-1.6978,-1.6978,-1.6978,-1.6978,-1.6978,-1.6978,-1.6992,-1.7046,-1.7161,-1.7311,-1.7467,-1.7616,-1.7758,-1.7846,-1.786,-1.7846,-1.7792,-1.7772,-1.7738,-1.7595,-1.7561,-1.7582,-1.7629,-1.765,-1.7704,-1.7846,-1.786,-1.7846,-1.7792,-1.7772,-1.7758,-1.7704,-1.7704,-1.7704,-1.7704,-1.7704,-1.7704,-1.7704,-1.7758,-1.7758,-1.7704,-1.7616,-1.7521,-1.7426,-1.7419,-1.7419,-1.7419,-1.7419,-1.7419,-1.7419,-1.7419,-1.7419,-1.7419,-1.7263,-1.7195,-2.0074,-1.8639,-1.7242,-1.6516,-1.5201,-1.4136,-1.438,-1.4624,-1.4821,-1.4916,-1.4787,-1.4611,-1.4468,-1.4685,-1.5018,-1.5425,-1.59,-1.6293,-1.649,-1.6476,-1.6503,-1.6659,-1.672,-1.6788,-1.6897,-1.6951,-1.6978,-1.6978,-1.6978,-1.6978,-1.6978,-1.6978,-1.6978,-1.6978,-1.6978,-1.6978,-1.6978,-1.6978,-1.6978,-1.6978,-1.6978,-1.6978,-1.6978,-1.6978,-1.6951,-1.691,-1.6958,-1.6951,-1.6897,-1.6741,-1.6741,-1.6842,-1.689,-1.6937,-1.6978,-1.6978,-1.6978,-1.6978,-1.6978,-1.6978,-1.6985,-1.7032,-1.7019,-1.6998,-1.7093,-1.7188,-1.7297,-1.7453,-1.7602,-1.7738,-1.7846,-1.786,-1.786,-1.786,-1.786,-1.7826,-1.7738,-1.7717,-1.7717,-1.7717,-1.7717,-1.7758,-1.7846,-1.786,-1.786,-1.786,-1.786,-1.786,-1.786,-1.786,-1.786,-1.786,-1.786,-1.786,-1.786,-1.786,-1.786,-1.786,-1.7772,-1.767,-1.7561,-1.7561,-1.7561,-1.7561,-1.7561,-1.7561,-1.7561,-1.7561,-1.7561,-1.7555,-1.7405,-1.7338,-1.805,-1.688,-1.5748,-1.5586,-1.4883,-1.4197,-1.4645,-1.5092,-1.5499,-1.5798,-1.5384,-1.4841,-1.4394,-1.4787,-1.5181,-1.5181,-1.5934,-1.6517,-1.6517,-1.6646,-1.6686,-1.6537,-1.6653,-1.6748,-1.6748,-1.689,-1.6978,-1.6978,-1.6978,-1.6978,-1.6978,-1.6978,-1.6978,-1.6978,-1.6978,-1.6978,-1.6978,-1.6978,-1.6978,-1.6978,-1.6978,-1.6978,-1.6978,-1.6978,-1.6897,-1.6761,-1.6917,-1.6897,-1.6734,-1.6585,-1.6524,-1.6537,-1.6686,-1.6842,-1.6978,-1.6978,-1.6978,-1.6978,-1.6978,-1.6985,-1.7005,-1.7148,-1.71,-1.7039,-1.7331,-1.7419,-1.7453,-1.7602,-1.7758,-1.786,-1.786,-1.786,-1.786,-1.786,-1.786,-1.786,-1.786,-1.786,-1.786,-1.786,-1.786,-1.786,-1.786,-1.786,-1.786,-1.786,-1.786,-1.786,-1.786,-1.786,-1.786,-1.786,-1.786,-1.786,-1.786,-1.786,-1.786,-1.786,-1.786,-1.786,-1.786,-1.786,-1.786,-1.786,-1.786,-1.786,-1.786,-1.786,-1.786,-1.786,-1.7717,-1.765,-1.6156,-1.5731,-1.5407,-1.4426,-1.4368,-1.4658,-1.5106,-1.5398,-1.5655,-1.5954,-1.5622,-1.5242,-1.5106,-1.5221,-1.5343,-1.5343,-1.5832,-1.6212,-1.6212,-1.6252,-1.63,-1.6368,-1.6503,-1.6632,-1.6741,-1.689,-1.6978,-1.6978,-1.6978,-1.6978,-1.6978,-1.6978,-1.6978,-1.6978,-1.6978,-1.6978,-1.6978,-1.6978,-1.6978,-1.6978,-1.6978,-1.6978,-1.6978,-1.6978,-1.6958,-1.6917,-1.6958,-1.6897,-1.6734,-1.6585,-1.6524,-1.6537,-1.6686,-1.6842,-1.6978,-1.6978,-1.6978,-1.6978,-1.6978,-1.7046,-1.7134,-1.7175,-1.7161,-1.7148,-1.7236,-1.7263,-1.729,-1.7446,-1.7595,-1.7738,-1.7846,-1.786,-1.786,-1.786,-1.786,-1.786,-1.786,-1.786,-1.786,-1.786,-1.786,-1.786,-1.786,-1.786,-1.786,-1.786,-1.786,-1.786,-1.786,-1.786,-1.786,-1.786,-1.786,-1.786,-1.786,-1.786,-1.786,-1.786,-1.786,-1.786,-1.786,-1.786,-1.786,-1.786,-1.786,-1.786,-1.786,-1.786,-1.786,-1.786,-1.7717,-1.765,-1.4507,-1.4532,-1.4734,-1.3998,-1.4278,-1.4903,-1.5533,-1.575,-1.5866,-1.6042,-1.5818,-1.5567,-1.5513,-1.5547,-1.5567,-1.5513,-1.5879,-1.6171,-1.6171,-1.6171,-1.6205,-1.63,-1.6435,-1.6558,-1.6653,-1.6856,-1.6978,-1.6978,-1.6978,-1.6978,-1.6978,-1.6978,-1.6978,-1.6978,-1.6978,-1.6978,-1.6978,-1.6978,-1.6978,-1.6978,-1.6978,-1.6978,-1.6978,-1.6978,-1.6978,-1.6978,-1.6917,-1.6802,-1.6646,-1.6497,-1.651,-1.6612,-1.6646,-1.6863,-1.7141,-1.7026,-1.7019,-1.706,-1.6998,-1.7039,-1.7121,-1.7175,-1.7154,-1.7121,-1.7175,-1.7236,-1.7304,-1.7392,-1.7575,-1.7758,-1.7846,-1.786,-1.786,-1.786,-1.786,-1.786,-1.786,-1.786,-1.786,-1.786,-1.786,-1.786,-1.786,-1.786,-1.786,-1.786,-1.786,-1.786,-1.786,-1.786,-1.786,-1.786,-1.786,-1.786,-1.786,-1.786,-1.786,-1.786,-1.786,-1.786,-1.786,-1.786,-1.786,-1.786,-1.786,-1.786,-1.786,-1.786,-1.786,-1.786,-1.7772,-1.7738,-1.3173,-1.3519,-1.3919,-1.4089,-1.4489,-1.5059,-1.5893,-1.6083,-1.6083,-1.6096,-1.5981,-1.5832,-1.5703,-1.5784,-1.5832,-1.5703,-1.6022,-1.6286,-1.6286,-1.6286,-1.6286,-1.6286,-1.6429,-1.6524,-1.6524,-1.6802,-1.6978,-1.6978,-1.6978,-1.6978,-1.6978,-1.6978,-1.6978,-1.6978,-1.6978,-1.6978,-1.6978,-1.6978,-1.6978,-1.6978,-1.6978,-1.6978,-1.6978,-1.6978,-1.6978,-1.6971,-1.6802,-1.6653,-1.651,-1.6354,-1.6469,-1.6734,-1.6578,-1.6883,-1.7365,-1.7087,-1.706,-1.7154,-1.7026,-1.6992,-1.7019,-1.7148,-1.7107,-1.7026,-1.7154,-1.7297,-1.7419,-1.7419,-1.7636,-1.786,-1.786,-1.786,-1.786,-1.786,-1.786,-1.786,-1.786,-1.786,-1.786,-1.786,-1.786,-1.786,-1.786,-1.786,-1.786,-1.786,-1.786,-1.786,-1.786,-1.786,-1.786,-1.786,-1.786,-1.786,-1.786,-1.786,-1.786,-1.786,-1.786,-1.786,-1.786,-1.786,-1.786,-1.786,-1.786,-1.786,-1.786,-1.786,-1.786,-1.786,-1.786,-1.786,-1.3173,-1.3675,-1.4265,-1.4529,-1.5113,-1.5696,-1.6008,-1.6083,-1.6117,-1.6239,-1.6137,-1.6022,-1.5995,-1.6008,-1.6022,-1.5995,-1.6069,-1.613,-1.613,-1.613,-1.613,-1.613,-1.6361,-1.6524,-1.6524,-1.6802,-1.6978,-1.6978,-1.6978,-1.6978,-1.6978,-1.6978,-1.6978,-1.6978,-1.6978,-1.6978,-1.6978,-1.6978,-1.6978,-1.6978,-1.6978,-1.6978,-1.6978,-1.6978,-1.6978,-1.6965,-1.6693,-1.6551,-1.6503,-1.6239,-1.6374,-1.6734,-1.6578,-1.6815,-1.7222,-1.7046,-1.6998,-1.7019,-1.6992,-1.7053,-1.7154,-1.7182,-1.7168,-1.7154,-1.7182,-1.7297,-1.7419,-1.7419,-1.7636,-1.786,-1.786,-1.786,-1.786,-1.786,-1.786,-1.786,-1.786,-1.786,-1.786,-1.786,-1.786,-1.786,-1.786,-1.786,-1.786,-1.786,-1.786,-1.786,-1.786,-1.786,-1.786,-1.786,-1.786,-1.786,-1.786,-1.786,-1.786,-1.786,-1.786,-1.786,-1.786,-1.786,-1.786,-1.786,-1.786,-1.786,-1.786,-1.786,-1.786,-1.786,-1.786,-1.786,-1.3336,-1.3885,-1.4543,-1.5126,-1.5622,-1.6001,-1.6157,-1.6137,-1.6123,-1.6279,-1.6191,-1.6083,-1.6083,-1.6083,-1.6083,-1.6083,-1.6083,-1.611,-1.6178,-1.613,-1.611,-1.6185,-1.6327,-1.6449,-1.6517,-1.6734,-1.6904,-1.6978,-1.6978,-1.6978,-1.6978,-1.6978,-1.6978,-1.6978,-1.6978,-1.6978,-1.6978,-1.6978,-1.6978,-1.6978,-1.6978,-1.6978,-1.6978,-1.6978,-1.6978,-1.6971,-1.6734,-1.6592,-1.651,-1.6354,-1.6517,-1.6842,-1.6693,-1.6951,-1.7385,-1.7161,-1.708,-1.708,-1.708,-1.7087,-1.7093,-1.7093,-1.7093,-1.7093,-1.7093,-1.7243,-1.7419,-1.7419,-1.7636,-1.786,-1.786,-1.786,-1.786,-1.786,-1.786,-1.786,-1.786,-1.786,-1.786,-1.786,-1.786,-1.786,-1.786,-1.786,-1.786,-1.786,-1.786,-1.786,-1.786,-1.786,-1.786,-1.786,-1.786,-1.786,-1.786,-1.786,-1.786,-1.786,-1.786,-1.786,-1.786,-1.786,-1.786,-1.786,-1.786,-1.786,-1.786,-1.786,-1.786,-1.786,-1.786,-1.786,-1.3471,-1.4082,-1.4794,-1.5642,-1.5947,-1.6083,-1.6239,-1.6171,-1.6117,-1.6246,-1.6171,-1.6083,-1.6083,-1.6083,-1.6083,-1.6083,-1.6083,-1.6123,-1.6252,-1.6157,-1.613,-1.6252,-1.6293,-1.6354,-1.6476,-1.6646,-1.6802,-1.6931,-1.6965,-1.6978,-1.6978,-1.6978,-1.6978,-1.6978,-1.6978,-1.6978,-1.6978,-1.6978,-1.6978,-1.6978,-1.6951,-1.6931,-1.6904,-1.6904,-1.6931,-1.6971,-1.6815,-1.668,-1.6558,-1.653,-1.67,-1.6971,-1.6842,-1.7107,-1.7541,-1.7283,-1.7175,-1.7154,-1.7154,-1.708,-1.6978,-1.6978,-1.6978,-1.6978,-1.6978,-1.7188,-1.7419,-1.7419,-1.7636,-1.786,-1.786,-1.786,-1.786,-1.786,-1.786,-1.786,-1.786,-1.786,-1.786,-1.786,-1.786,-1.786,-1.786,-1.786,-1.786,-1.786,-1.786,-1.786,-1.786,-1.786,-1.786,-1.786,-1.786,-1.786,-1.786,-1.786,-1.786,-1.786,-1.786,-1.786,-1.786,-1.786,-1.786,-1.786,-1.786,-1.786,-1.786,-1.786,-1.786,-1.786,-1.786,-1.786,-1.3349,-1.4156,-1.5059,-1.5696,-1.5866,-1.5927,-1.6076,-1.6096,-1.609,-1.611,-1.6096,-1.6083,-1.6083,-1.6083,-1.6083,-1.6083,-1.6083,-1.609,-1.611,-1.6096,-1.609,-1.611,-1.6232,-1.632,-1.6334,-1.6585,-1.6761,-1.6781,-1.6904,-1.6978,-1.6978,-1.6978,-1.6978,-1.6978,-1.6978,-1.6978,-1.6978,-1.6978,-1.6978,-1.6978,-1.6842,-1.6714,-1.6585,-1.6585,-1.6727,-1.6971,-1.6815,-1.6734,-1.6707,-1.6578,-1.67,-1.6978,-1.6958,-1.7073,-1.7249,-1.7209,-1.7114,-1.7012,-1.7012,-1.6998,-1.6978,-1.6978,-1.6978,-1.6978,-1.6978,-1.7188,-1.7419,-1.7419,-1.7636,-1.786,-1.786,-1.786,-1.786,-1.786,-1.786,-1.786,-1.786,-1.786,-1.786,-1.786,-1.786,-1.786,-1.786,-1.786,-1.786,-1.786,-1.786,-1.786,-1.786,-1.786,-1.786,-1.786,-1.786,-1.786,-1.786,-1.786,-1.786,-1.786,-1.786,-1.786,-1.786,-1.786,-1.786,-1.786,-1.786,-1.786,-1.786,-1.786,-1.786,-1.786,-1.786,-1.786,-1.3539,-1.4421,-1.5215,-1.5723,-1.592,-1.5974,-1.5961,-1.6022,-1.6083,-1.6083,-1.6083,-1.6083,-1.6083,-1.6083,-1.6083,-1.6083,-1.6083,-1.6083,-1.6083,-1.6083,-1.6083,-1.6083,-1.6144,-1.6218,-1.63,-1.6497,-1.6659,-1.6637,-1.6897,-1.6978,-1.6978,-1.6978,-1.6978,-1.6978,-1.6978,-1.6978,-1.6978,-1.6978,-1.6937,-1.6849,-1.6693,-1.6585,-1.6517,-1.6435,-1.6517,-1.6727,-1.6741,-1.6659,-1.6517,-1.67,-1.6809,-1.6863,-1.6944,-1.7066,-1.7195,-1.7195,-1.71,-1.6992,-1.7073,-1.7046,-1.6978,-1.6978,-1.6978,-1.6978,-1.6978,-1.7127,-1.7311,-1.7399,-1.7575,-1.7758,-1.7846,-1.786,-1.786,-1.786,-1.786,-1.786,-1.786,-1.786,-1.786,-1.786,-1.786,-1.786,-1.786,-1.786,-1.786,-1.786,-1.786,-1.786,-1.786,-1.786,-1.786,-1.786,-1.786,-1.786,-1.786,-1.786,-1.786,-1.786,-1.786,-1.786,-1.786,-1.786,-1.786,-1.786,-1.786,-1.786,-1.786,-1.786,-1.786,-1.786,-1.786,-1.786,-1.3437,-1.419,-1.4801,-1.533,-1.5601,-1.575,-1.5791,-1.5886,-1.5981,-1.6015,-1.6022,-1.6022,-1.6022,-1.6056,-1.6083,-1.6083,-1.6083,-1.6083,-1.6083,-1.6083,-1.6083,-1.6083,-1.6083,-1.613,-1.6239,-1.6415,-1.6571,-1.668,-1.687,-1.6965,-1.6924,-1.6924,-1.6904,-1.6863,-1.6904,-1.6924,-1.6924,-1.6924,-1.6842,-1.6686,-1.6578,-1.6524,-1.6517,-1.6374,-1.6368,-1.6476,-1.6666,-1.6605,-1.6395,-1.6768,-1.6829,-1.6714,-1.6904,-1.7019,-1.7087,-1.7161,-1.71,-1.6998,-1.71,-1.7066,-1.6978,-1.6978,-1.6978,-1.6978,-1.6978,-1.708,-1.7216,-1.7331,-1.75,-1.767,-1.7772,-1.7826,-1.786,-1.786,-1.786,-1.786,-1.786,-1.786,-1.786,-1.786,-1.786,-1.786,-1.786,-1.786,-1.786,-1.786,-1.786,-1.786,-1.786,-1.786,-1.786,-1.786,-1.786,-1.786,-1.786,-1.786,-1.786,-1.786,-1.786,-1.786,-1.786,-1.786,-1.786,-1.786,-1.786,-1.786,-1.786,-1.786,-1.786,-1.786,-1.786,-1.786,-1.2705,-1.3037,-1.3458,-1.4197,-1.4597,-1.4957,-1.552,-1.5655,-1.5703,-1.5839,-1.5866,-1.5866,-1.5866,-1.5981,-1.6083,-1.6083,-1.6083,-1.6083,-1.6083,-1.6083,-1.6083,-1.6083,-1.6083,-1.6083,-1.609,-1.6354,-1.6524,-1.653,-1.6809,-1.6917,-1.6768,-1.6761,-1.6693,-1.6551,-1.6686,-1.6761,-1.6761,-1.6761,-1.6686,-1.653,-1.6524,-1.6524,-1.6517,-1.6374,-1.6313,-1.6334,-1.6625,-1.6659,-1.6524,-1.6693,-1.6673,-1.6564,-1.6863,-1.6897,-1.6809,-1.7087,-1.71,-1.6985,-1.6992,-1.6985,-1.6978,-1.6978,-1.6978,-1.6978,-1.6978,-1.708,-1.7195,-1.7202,-1.7419,-1.765,-1.7554,-1.7758,-1.786,-1.786,-1.786,-1.786,-1.786,-1.786,-1.786,-1.786,-1.786,-1.786,-1.786,-1.786,-1.786,-1.786,-1.786,-1.786,-1.786,-1.786,-1.786,-1.786,-1.786,-1.786,-1.786,-1.786,-1.786,-1.786,-1.786,-1.786,-1.786,-1.786,-1.786,-1.786,-1.786,-1.786,-1.786,-1.786,-1.786,-1.786,-1.786,-1.786,-1.2623,-1.2949,-1.3308,-1.3865,-1.4299,-1.4672,-1.4991,-1.5282,-1.5533,-1.5683,-1.5791,-1.5852,-1.5852,-1.5981,-1.6083,-1.6083,-1.6083,-1.6083,-1.6083,-1.6083,-1.6083,-1.6083,-1.6083,-1.6123,-1.6218,-1.6402,-1.6564,-1.6659,-1.6768,-1.6809,-1.6651,-1.6659,-1.6625,-1.6666,-1.672,-1.6748,-1.6748,-1.6748,-1.6673,-1.6524,-1.6524,-1.6524,-1.6517,-1.6374,-1.6307,-1.6313,-1.6422,-1.6435,-1.6395,-1.6544,-1.6625,-1.668,-1.6788,-1.6863,-1.691,-1.7019,-1.7026,-1.6978,-1.6978,-1.6978,-1.6978,-1.6978,-1.6978,-1.6998,-1.7087,-1.7154,-1.7236,-1.7433,-1.7561,-1.767,-1.7758,-1.7826,-1.786,-1.786,-1.786,-1.786,-1.786,-1.786,-1.786,-1.786,-1.786,-1.786,-1.786,-1.786,-1.7792,-1.7609,-1.7738,-1.7792,-1.7602,-1.7738,-1.786,-1.786,-1.786,-1.786,-1.786,-1.786,-1.786,-1.786,-1.786,-1.786,-1.786,-1.786,-1.786,-1.786,-1.786,-1.786,-1.786,-1.786,-1.786,-1.786,-1.786,-1.786,-1.2277,-1.2535,-1.2854,-1.341,-1.377,-1.4136,-1.4692,-1.497,-1.5194,-1.5499,-1.5676,-1.5784,-1.5784,-1.5947,-1.6083,-1.6083,-1.6083,-1.6096,-1.6151,-1.611,-1.6103,-1.6151,-1.6157,-1.6198,-1.63,-1.6483,-1.6619,-1.6666,-1.672,-1.6727,-1.6673,-1.653,-1.6517,-1.6666,-1.672,-1.6748,-1.6748,-1.6748,-1.67,-1.6598,-1.6598,-1.6625,-1.6673,-1.6524,-1.6456,-1.6456,-1.6402,-1.6354,-1.632,-1.6463,-1.6578,-1.668,-1.6727,-1.6809,-1.691,-1.6965,-1.6978,-1.6978,-1.6978,-1.6978,-1.6978,-1.6978,-1.6978,-1.7005,-1.7148,-1.7195,-1.7243,-1.75,-1.7609,-1.767,-1.7772,-1.7826,-1.786,-1.786,-1.786,-1.786,-1.786,-1.786,-1.786,-1.786,-1.786,-1.786,-1.786,-1.786,-1.7792,-1.7602,-1.7738,-1.7792,-1.7595,-1.7738,-1.786,-1.786,-1.786,-1.786,-1.786,-1.786,-1.786,-1.786,-1.786,-1.786,-1.786,-1.786,-1.786,-1.786,-1.786,-1.786,-1.786,-1.786,-1.786,-1.786,-1.786,-1.786,0.0,0.0,0.0,-1.2745,-1.2935,-1.3288,-1.4611,-1.4692,-1.4658,-1.5269,-1.5513,-1.5628,-1.5642,-1.5886,-1.6083,-1.6083,-1.6083,-1.6137,-1.6286,-1.6178,-1.6144,-1.6293,-1.6307,-1.6313,-1.632,-1.6585,-1.6686,-1.6544,-1.6666,-1.6686,-1.6537,-1.6395,-1.6388,-1.6524,-1.6673,-1.6754,-1.6748,-1.6748,-1.6748,-1.6748,-1.6748,-1.6829,-1.6978,-1.6822,-1.6748,-1.6741,-1.6585,-1.6442,-1.6334,-1.6469,-1.653,-1.6558,-1.6693,-1.6754,-1.6781,-1.6931,-1.6978,-1.6978,-1.6985,-1.6985,-1.6985,-1.6992,-1.6992,-1.7019,-1.7161,-1.7209,-1.7236,-1.7392,-1.7541,-1.765,-1.765,-1.7758,-1.786,-1.786,-1.786,-1.786,-1.786,-1.786,-1.786,-1.786,-1.786,-1.786,-1.786,-1.786,-1.786,-1.7846,-1.7846,-1.7846,-1.7846,-1.7846,-1.7846,-1.786,-1.786,-1.786,-1.786,-1.786,-1.786,-1.786,-1.786,-1.786,-1.786,-1.786,-1.786,-1.786,-1.786,-1.786,-1.786,-1.786,-1.786,-1.786,-1.786,-1.786,-1.1592,0.0,0.0,0.0,0.0,0.0,-1.3356,-1.3702,-1.4075,-1.478,-1.5133,-1.5404,-1.5737,-1.5954,-1.6083,-1.6083,-1.6178,-1.6225,-1.6151,-1.6205,-1.6259,-1.6307,-1.6307,-1.6395,-1.6605,-1.67,-1.6781,-1.6849,-1.6788,-1.6727,-1.6686,-1.6653,-1.6646,-1.6686,-1.6836,-1.6863,-1.6754,-1.6748,-1.6748,-1.6748,-1.6748,-1.6829,-1.6978,-1.6822,-1.6748,-1.6741,-1.6585,-1.6564,-1.6625,-1.6551,-1.6714,-1.6992,-1.6815,-1.6883,-1.7066,-1.7005,-1.6978,-1.6992,-1.71,-1.7134,-1.7154,-1.7263,-1.7297,-1.7324,-1.7473,-1.7521,-1.7555,-1.7704,-1.7772,-1.7812,-1.7812,-1.7826,-1.786,-1.786,-1.786,-1.786,-1.786,-1.786,-1.786,-1.786,-1.786,-1.786,-1.786,-1.786,-1.7792,-1.7575,-1.7541,-1.7541,-1.7541,-1.7541,-1.7623,-1.7846,-1.786,-1.786,-1.786,-1.786,-1.786,-1.786,-1.786,-1.786,-1.786,-1.786,-1.786,-1.786,-1.786,-1.786,-1.786,-1.786,-1.786,-1.786,-1.786,-1.786,0.0,0.0,0.0,0.0,0.0,0.0,-1.3064,-1.339,-1.3743,-1.4489,-1.4882,-1.5194,-1.5513,-1.575,-1.592,-1.5974,-1.6218,-1.6368,-1.6279,-1.6293,-1.6354,-1.6476,-1.649,-1.6564,-1.663,-1.6809,-1.6856,-1.6883,-1.6802,-1.672,-1.6659,-1.6775,-1.6815,-1.6754,-1.6904,-1.6937,-1.6849,-1.6842,-1.6842,-1.6842,-1.6842,-1.6897,-1.6978,-1.689,-1.6842,-1.6842,-1.6754,-1.6761,-1.6842,-1.6815,-1.6917,-1.7087,-1.691,-1.6951,-1.7093,-1.7012,-1.7019,-1.708,-1.7161,-1.7236,-1.7304,-1.7392,-1.7419,-1.7446,-1.7602,-1.765,-1.7684,-1.7826,-1.786,-1.786,-1.786,-1.786,-1.786,-1.786,-1.786,-1.786,-1.786,-1.786,-1.786,-1.786,-1.786,-1.786,-1.786,-1.786,-1.7812,-1.7629,-1.7602,-1.7602,-1.7602,-1.7602,-1.767,-1.7846,-1.786,-1.786,-1.786,-1.786,-1.786,-1.786,-1.786,-1.786,-1.786,-1.786,-1.786,-1.786,-1.786,-1.786,-1.786,-1.786,-1.786,-1.786,-1.786,-1.786,-1.1613,0.0,0.0,0.0,-1.202,0.0,-1.3186,-1.3363,-1.3505,-1.4217,-1.4604,-1.4875,-1.5052,-1.5316,-1.5547,-1.5662,-1.6083,-1.6422,-1.649,-1.6415,-1.6456,-1.672,-1.6748,-1.6754,-1.6775,-1.6904,-1.6924,-1.6788,-1.6775,-1.6707,-1.6558,-1.6822,-1.6917,-1.6781,-1.691,-1.6978,-1.6978,-1.6978,-1.6978,-1.6978,-1.6978,-1.6978,-1.6978,-1.6978,-1.6978,-1.6978,-1.6978,-1.6992,-1.7012,-1.7141,-1.7121,-1.7005,-1.7005,-1.7005,-1.7005,-1.7005,-1.7087,-1.7195,-1.7229,-1.7331,-1.7446,-1.7467,-1.7473,-1.7494,-1.7629,-1.767,-1.7704,-1.7826,-1.786,-1.786,-1.786,-1.786,-1.786,-1.786,-1.786,-1.786,-1.786,-1.786,-1.786,-1.786,-1.786,-1.786,-1.786,-1.786,-1.786,-1.786,-1.7826,-1.7826,-1.786,-1.7826,-1.7826,-1.786,-1.786,-1.786,-1.786,-1.786,-1.786,-1.786,-1.786,-1.786,-1.786,-1.786,-1.786,-1.786,-1.786,-1.786,-1.786,-1.786,-1.786,-1.786,-1.786,-1.786,-1.1586,-1.1619,-1.164,-1.1728,0.0,0.0,-1.2128,-1.244,-1.282,-1.3329,-1.3675,-1.4014,-1.4401,-1.4611,-1.4706,-1.4618,-1.5181,-1.5798,-1.6286,-1.653,-1.6686,-1.6637,-1.6748,-1.6802,-1.6924,-1.6965,-1.6971,-1.6937,-1.6937,-1.687,-1.6714,-1.6876,-1.6965,-1.6937,-1.6965,-1.6978,-1.6978,-1.6978,-1.6978,-1.6978,-1.6978,-1.6978,-1.6978,-1.6978,-1.6978,-1.6978,-1.6978,-1.7046,-1.7154,-1.7182,-1.7175,-1.7154,-1.7154,-1.7154,-1.7154,-1.7154,-1.7168,-1.7229,-1.7473,-1.7582,-1.7623,-1.7738,-1.7772,-1.7772,-1.7812,-1.7826,-1.7826,-1.786,-1.786,-1.786,-1.786,-1.786,-1.786,-1.786,-1.786,-1.786,-1.786,-1.786,-1.786,-1.786,-1.786,-1.786,-1.786,-1.786,-1.786,-1.786,-1.767,-1.7595,-1.7826,-1.765,-1.7595,-1.7846,-1.786,-1.786,-1.786,-1.786,-1.786,-1.786,-1.786,-1.786,-1.786,-1.786,-1.786,-1.786,-1.786,-1.786,-1.786,-1.786,-1.786,-1.786,-1.786,-1.786,-1.1599,-1.1619,-1.164,-1.1708,0.0,0.0,0.0,-1.2237,-1.2501,-1.2874,-1.3193,-1.3471,-1.3695,-1.398,-1.4177,-1.4183,-1.4875,-1.5493,-1.5716,-1.6259,-1.6693,-1.6849,-1.6863,-1.6897,-1.6971,-1.6978,-1.6951,-1.687,-1.6937,-1.691,-1.6761,-1.6897,-1.6978,-1.6978,-1.6978,-1.6978,-1.6978,-1.6978,-1.6978,-1.6978,-1.6978,-1.6978,-1.6978,-1.6978,-1.7019,-1.7087,-1.7087,-1.7168,-1.7304,-1.7304,-1.7263,-1.7195,-1.7195,-1.7148,-1.7093,-1.7168,-1.7195,-1.7236,-1.7541,-1.765,-1.767,-1.7812,-1.786,-1.786,-1.786,-1.786,-1.786,-1.786,-1.786,-1.786,-1.786,-1.786,-1.786,-1.786,-1.786,-1.786,-1.786,-1.786,-1.786,-1.786,-1.786,-1.786,-1.786,-1.786,-1.786,-1.786,-1.7738,-1.7704,-1.7846,-1.7738,-1.7704,-1.7846,-1.786,-1.786,-1.786,-1.786,-1.786,-1.786,-1.786,-1.786,-1.786,-1.786,-1.786,-1.786,-1.786,-1.786,-1.786,-1.786,-1.786,-1.786,-1.786,-1.786,0.0,0.0,0.0,0.0,0.0,-1.1782,0.0,0.0,0.0,-1.2556,-1.2813,-1.3003,-1.3003,-1.3322,-1.3614,-1.3715,-1.4482,-1.5031,-1.4936,-1.5676,-1.6368,-1.6761,-1.6856,-1.6904,-1.6931,-1.6883,-1.6809,-1.6714,-1.6768,-1.6768,-1.6673,-1.6836,-1.6937,-1.6937,-1.6965,-1.6978,-1.6978,-1.6978,-1.6978,-1.6978,-1.6978,-1.6978,-1.6985,-1.7012,-1.7087,-1.7195,-1.7222,-1.7304,-1.7419,-1.7419,-1.7331,-1.7195,-1.7195,-1.7107,-1.7005,-1.7175,-1.7216,-1.7243,-1.7575,-1.767,-1.767,-1.7812,-1.786,-1.786,-1.786,-1.786,-1.786,-1.786,-1.786,-1.786,-1.786,-1.786,-1.786,-1.786,-1.786,-1.786,-1.786,-1.786,-1.786,-1.786,-1.786,-1.786,-1.786,-1.786,-1.786,-1.786,-1.786,-1.786,-1.786,-1.786,-1.786,-1.786,-1.786,-1.786,-1.786,-1.786,-1.786,-1.786,-1.786,-1.786,-1.786,-1.786,-1.786,-1.786,-1.786,-1.786,-1.786,-1.786,-1.786,-1.786,-1.786,-1.786,0.0,0.0,0.0,0.0,-1.1925,0.0,0.0,0.0,-1.2094,-1.2128,0.0,-1.2393,-1.2393,0.0,0.0,-1.2508,-1.3247,-1.3871,-1.398,-1.4658,-1.5404,-1.6103,-1.6415,-1.6625,-1.6761,-1.6537,-1.6429,-1.6537,-1.632,-1.6232,-1.6354,-1.6625,-1.6775,-1.6775,-1.691,-1.6978,-1.6978,-1.6978,-1.6978,-1.6978,-1.6978,-1.6978,-1.6985,-1.7114,-1.7175,-1.7202,-1.7338,-1.7405,-1.7419,-1.7419,-1.7331,-1.7195,-1.7195,-1.7107,-1.7012,-1.729,-1.7311,-1.7256,-1.7684,-1.7758,-1.767,-1.7812,-1.786,-1.786,-1.786,-1.786,-1.786,-1.786,-1.786,-1.786,-1.786,-1.786,-1.786,-1.786,-1.786,-1.786,-1.786,-1.786,-1.786,-1.786,-1.786,-1.786,-1.786,-1.786,-1.786,-1.786,-1.786,-1.786,-1.786,-1.786,-1.786,-1.786,-1.786,-1.786,-1.786,-1.786,-1.786,-1.786,-1.786,-1.786,-1.786,-1.786,-1.786,-1.786,-1.786,-1.786,-1.786,-1.786,-1.786,-1.786,-1.786,-1.786,0.0,0.0,0.0,0.0,0.0,0.0,-1.1769,0.0,-1.1932,0.0,0.0,0.0,0.0,0.0,0.0,0.0,-1.2969,-1.3485,-1.3458,-1.4102,-1.4821,-1.5479,-1.5669,-1.5805,-1.5961,-1.6015,-1.6069,-1.613,-1.6103,-1.6151,-1.63,-1.6592,-1.6748,-1.6748,-1.6904,-1.6978,-1.6978,-1.6978,-1.6978,-1.6978,-1.6978,-1.7026,-1.71,-1.708,-1.7161,-1.7324,-1.7392,-1.7419,-1.7419,-1.7419,-1.7331,-1.7182,-1.71,-1.7032,-1.7019,-1.7311,-1.7324,-1.7256,-1.7704,-1.7772,-1.767,-1.7812,-1.786,-1.786,-1.786,-1.786,-1.786,-1.786,-1.786,-1.786,-1.786,-1.786,-1.786,-1.786,-1.786,-1.786,-1.786,-1.786,-1.786,-1.786,-1.786,-1.786,-1.786,-1.786,-1.786,-1.786,-1.786,-1.786,-1.786,-1.786,-1.786,-1.786,-1.786,-1.786,-1.786,-1.786,-1.786,-1.786,-1.786,-1.786,-1.786,-1.786,-1.786,-1.786,-1.786,-1.786,-1.786,-1.786,-1.786,-1.786,-1.786,-1.786,-1.2277,0.0,0.0,0.0,0.0,0.0,0.0,0.0,0.0,0.0,0.0,0.0,0.0,0.0,0.0,0.0,0.0,-1.318,-1.3064,-1.3559,-1.417,-1.4801,-1.5059,-1.5242,-1.5398,-1.5493,-1.5615,-1.5784,-1.5744,-1.5852,-1.6164,-1.6469,-1.6646,-1.6686,-1.6876,-1.6978,-1.6978,-1.6978,-1.6978,-1.6978,-1.7019,-1.7093,-1.7188,-1.7127,-1.7243,-1.748,-1.7439,-1.7419,-1.7419,-1.7372,-1.727,-1.7121,-1.7019,-1.6978,-1.7012,-1.7263,-1.729,-1.7249,-1.767,-1.7758,-1.7717,-1.7826,-1.786,-1.786,-1.786,-1.786,-1.786,-1.786,-1.786,-1.786,-1.786,-1.786,-1.786,-1.786,-1.786,-1.786,-1.786,-1.786,-1.786,-1.786,-1.786,-1.786,-1.786,-1.786,-1.786,-1.786,-1.786,-1.786,-1.786,-1.786,-1.786,-1.786,-1.786,-1.786,-1.786,-1.786,-1.786,-1.786,-1.786,-1.786,-1.786,-1.786,-1.786,-1.786,-1.786,-1.786,-1.786,-1.786,-1.786,-1.786,-1.786,-1.786,0.0,0.0,0.0,-1.2352,0.0,0.0,0.0,0.0,-1.2094,0.0,0.0,0.0,0.0,0.0,0.0,0.0,0.0,0.0,0.0,0.0,0.0,0.0,0.0,0.0,-1.5398,-1.5025,-1.5018,-1.5601,-1.5113,-1.5099,-1.5825,-1.6157,-1.6388,-1.6524,-1.6822,-1.6978,-1.6978,-1.6978,-1.6978,-1.6985,-1.7121,-1.7188,-1.7195,-1.7344,-1.7494,-1.7629,-1.7487,-1.7419,-1.7405,-1.7263,-1.7114,-1.6985,-1.6985,-1.6978,-1.6998,-1.7148,-1.7195,-1.7236,-1.7548,-1.7738,-1.786,-1.786,-1.786,-1.786,-1.786,-1.786,-1.786,-1.786,-1.786,-1.786,-1.786,-1.786,-1.786,-1.786,-1.786,-1.786,-1.786,-1.786,-1.786,-1.786,-1.786,-1.786,-1.786,-1.786,-1.786,-1.786,-1.786,-1.786,-1.786,-1.786,-1.786,-1.786,-1.786,-1.786,-1.786,-1.786,-1.786,-1.786,-1.786,-1.786,-1.786,-1.786,-1.786,-1.786,-1.786,-1.786,-1.786,-1.786,-1.786,-1.786,-1.786,-1.786,0.0,0.0,-1.2949,-1.2657,0.0,0.0,0.0,0.0,0.0,0.0,0.0,0.0,0.0,0.0,0.0,0.0,0.0,0.0,0.0,0.0,0.0,0.0,0.0,0.0,0.0,-1.4448,-1.4672,-1.4875,-1.4801,-1.5025,-1.5676,-1.5995,-1.6273,-1.6517,-1.6822,-1.6978,-1.6978,-1.6978,-1.6978,-1.6985,-1.7127,-1.7195,-1.7195,-1.7351,-1.7392,-1.7351,-1.7399,-1.7311,-1.7134,-1.7175,-1.7107,-1.6978,-1.6978,-1.6978,-1.6998,-1.7141,-1.7256,-1.7385,-1.7684,-1.7826,-1.786,-1.786,-1.786,-1.786,-1.786,-1.786,-1.786,-1.786,-1.786,-1.786,-1.786,-1.786,-1.786,-1.786,-1.786,-1.786,-1.786,-1.786,-1.786,-1.786,-1.786,-1.786,-1.786,-1.786,-1.786,-1.786,-1.786,-1.786,-1.786,-1.786,-1.786,-1.786,-1.786,-1.786,-1.786,-1.786,-1.786,-1.786,-1.786,-1.786,-1.786,-1.786,-1.786,-1.786,-1.786,-1.786,-1.786,-1.786,-1.786,-1.786,-1.786,-1.786,-1.3383,-1.337,0.0,-1.303,-1.2786,0.0,-1.2413,0.0,0.0,0.0,0.0,0.0,0.0,0.0,0.0,0.0,0.0,0.0,0.0,-1.2698,0.0,0.0,0.0,0.0,0.0,-1.4068,-1.4306,-1.457,-1.4489,-1.4706,0.0,-1.5784,-1.611,-1.6361,-1.6768,-1.6978,-1.6978,-1.6978,-1.6978,-1.6985,-1.7182,-1.7243,-1.7195,-1.7351,-1.7365,-1.727,-1.727,-1.7182,-1.706,-1.71,-1.7066,-1.6978,-1.6978,-1.6978,-1.6992,-1.708,-1.7249,-1.746,-1.7758,-1.786,-1.786,-1.786,-1.786,-1.786,-1.786,-1.786,-1.786,-1.786,-1.786,-1.786,-1.786,-1.786,-1.786,-1.786,-1.786,-1.786,-1.786,-1.786,-1.786,-1.786,-1.786,-1.786,-1.786,-1.786,-1.786,-1.786,-1.786,-1.786,-1.786,-1.786,-1.786,-1.786,-1.786,-1.786,-1.786,-1.786,-1.786,-1.786,-1.786,-1.786,-1.786,-1.786,-1.786,-1.786,-1.786,-1.786,-1.786,-1.786,-1.786,-1.786,-1.786,-1.786]},{"header":{"parameterUnit":"m.s-1","parameterCategory":1,"la1":30.6,"la2":29.2853,"lo1":-89.7004,"lo2":-87.6739,"dy":0.0162,"dx":0.0183,"nx":112,"ny":82,"refTime":"2026-03-27T00:00:00:Z","depth":0,"parameterNumber":3,"parameterNumberName":"V-component_of_WINDS"},"data":[0.0,0.0,0.0,0.0,0.0,0.0,0.0,0.0,0.0,0.0,0.0,0.0,0.0,0.0,0.0,0.0,0.0,0.0,0.0,0.0,0.0,0.0,0.0,0.0,0.0,0.0,0.0,0.0,0.0,0.0,0.0,0.0,0.0,0.0,0.0,0.0,0.0,0.0,0.0,0.0,0.0,0.0,0.0,0.0,0.0,0.0,0.0,0.0,0.0,0.0,0.0,0.0,0.0,0.0,0.0,0.0,0.0,0.0,0.0,0.0,0.0,0.0,0.0,0.0,0.0,0.0,0.0,0.0,0.0,0.0,0.0,0.0,0.0,0.0,0.0,0.0,0.0,0.0,0.0,0.0,0.0,0.0,0.0,0.0,0.0,0.0,0.0,0.0,0.0,0.0,4.3962,4.492,4.6146,4.6676,4.621,4.6641,4.6078,4.4122,0.0,0.0,0.0,0.0,0.0,0.0,0.0,0.0,0.0,0.0,0.0,0.0,0.0,0.0,0.0,0.0,0.0,0.0,0.0,0.0,0.0,0.0,0.0,0.0,0.0,0.0,0.0,0.0,0.0,0.0,0.0,0.0,0.0,0.0,0.0,0.0,0.0,0.0,0.0,0.0,0.0,0.0,0.0,0.0,0.0,0.0,0.0,0.0,0.0,0.0,0.0,0.0,0.0,0.0,0.0,0.0,0.0,0.0,0.0,0.0,0.0,0.0,0.0,0.0,0.0,0.0,0.0,0.0,0.0,0.0,0.0,0.0,0.0,0.0,0.0,0.0,0.0,0.0,0.0,0.0,0.0,0.0,0.0,0.0,0.0,0.0,0.0,0.0,0.0,0.0,0.0,0.0,0.0,0.0,0.0,0.0,0.0,0.0,0.0,0.0,0.0,0.0,0.0,0.0,4.436,4.6344,4.6775,4.717,4.7797,4.743,4.6731,4.5765,0.0,0.0,0.0,0.0,0.0,0.0,0.0,0.0,0.0,0.0,0.0,0.0,0.0,0.0,0.0,0.0,0.0,0.0,0.0,0.0,0.0,0.0,0.0,0.0,0.0,0.0,0.0,0.0,0.0,0.0,0.0,0.0,0.0,0.0,0.0,0.0,0.0,0.0,0.0,0.0,0.0,0.0,0.0,0.0,0.0,0.0,0.0,0.0,0.0,0.0,0.0,0.0,0.0,0.0,0.0,0.0,0.0,0.0,0.0,0.0,0.0,0.0,0.0,0.0,0.0,0.0,0.0,0.0,0.0,0.0,0.0,0.0,0.0,0.0,0.0,0.0,0.0,0.0,0.0,0.0,0.0,0.0,0.0,0.0,0.0,0.0,0.0,0.0,0.0,0.0,0.0,0.0,0.0,0.0,0.0,0.0,0.0,0.0,0.0,0.0,0.0,0.0,0.0,4.4857,4.5627,4.7026,4.7526,4.7925,4.8322,4.7688,4.6987,4.6249,4.4056,0.0,0.0,0.0,0.0,0.0,0.0,0.0,0.0,0.0,0.0,0.0,0.0,0.0,0.0,0.0,0.0,0.0,0.0,0.0,0.0,0.0,0.0,0.0,0.0,0.0,0.0,0.0,0.0,0.0,0.0,0.0,0.0,0.0,0.0,0.0,0.0,0.0,0.0,0.0,0.0,0.0,0.0,0.0,0.0,0.0,0.0,0.0,0.0,0.0,0.0,0.0,0.0,0.0,0.0,0.0,0.0,0.0,0.0,0.0,0.0,0.0,0.0,0.0,0.0,0.0,0.0,0.0,0.0,0.0,0.0,0.0,0.0,0.0,0.0,0.0,0.0,0.0,0.0,0.0,0.0,0.0,0.0,0.0,0.0,0.0,0.0,0.0,0.0,0.0,0.0,0.0,0.0,0.0,0.0,0.0,0.0,0.0,0.0,0.0,0.0,0.0,0.0,4.6103,4.6873,4.7579,4.8149,4.8515,4.8547,4.7876,4.7139,4.6401,4.4255,0.0,0.0,0.0,0.0,0.0,0.0,0.0,0.0,0.0,0.0,0.0,0.0,0.0,0.0,0.0,0.0,0.0,0.0,0.0,0.0,0.0,0.0,0.0,0.0,0.0,0.0,0.0,0.0,0.0,0.0,0.0,0.0,0.0,0.0,0.0,0.0,0.0,0.0,0.0,0.0,0.0,0.0,0.0,0.0,0.0,0.0,0.0,0.0,0.0,0.0,0.0,0.0,0.0,0.0,0.0,0.0,0.0,0.0,0.0,0.0,0.0,0.0,0.0,0.0,0.0,0.0,0.0,0.0,0.0,0.0,0.0,0.0,0.0,0.0,0.0,0.0,0.0,0.0,0.0,0.0,0.0,0.0,0.0,0.0,0.0,0.0,0.0,0.0,0.0,0.0,0.0,0.0,0.0,0.0,0.0,0.0,0.0,0.0,0.0,0.0,0.0,0.0,4.6965,4.7735,4.8348,4.8482,4.8578,4.8769,4.8032,4.7292,4.6518,4.4428,0.0,0.0,0.0,0.0,0.0,0.0,0.0,0.0,0.0,0.0,0.0,0.0,0.0,0.0,0.0,0.0,0.0,0.0,0.0,0.0,0.0,0.0,0.0,0.0,0.0,0.0,0.0,0.0,0.0,0.0,0.0,0.0,0.0,0.0,0.0,0.0,0.0,0.0,0.0,0.0,0.0,0.0,0.0,0.0,0.0,0.0,0.0,0.0,0.0,0.0,0.0,0.0,0.0,0.0,0.0,0.0,0.0,0.0,0.0,0.0,0.0,0.0,0.0,0.0,0.0,0.0,0.0,0.0,0.0,0.0,0.0,0.0,0.0,0.0,0.0,0.0,0.0,0.0,0.0,0.0,0.0,0.0,0.0,0.0,0.0,0.0,0.0,0.0,0.0,0.0,0.0,0.0,0.0,0.0,0.0,0.0,0.0,0.0,0.0,0.0,0.0,0.0,4.8105,4.929,0.0,5.0166,5.0097,5.0668,5.0011,4.8665,4.6651,0.0,0.0,0.0,0.0,0.0,0.0,0.0,0.0,0.0,0.0,0.0,0.0,0.0,0.0,0.0,0.0,0.0,0.0,0.0,0.0,0.0,0.0,0.0,0.0,0.0,0.0,0.0,0.0,0.0,0.0,0.0,0.0,0.0,0.0,0.0,0.0,0.0,0.0,0.0,0.0,0.0,0.0,0.0,0.0,0.0,0.0,0.0,0.0,0.0,0.0,0.0,0.0,0.0,0.0,0.0,0.0,0.0,0.0,0.0,0.0,0.0,0.0,0.0,0.0,0.0,0.0,0.0,0.0,0.0,0.0,0.0,0.0,0.0,0.0,0.0,0.0,0.0,0.0,0.0,0.0,0.0,0.0,0.0,0.0,0.0,0.0,0.0,0.0,0.0,0.0,0.0,0.0,0.0,0.0,0.0,0.0,0.0,0.0,0.0,0.0,0.0,0.0,4.7758,4.9291,5.0751,0.0,5.1638,5.1673,5.2227,5.1349,4.9686,4.7255,0.0,0.0,0.0,0.0,0.0,0.0,0.0,0.0,0.0,0.0,0.0,0.0,0.0,0.0,0.0,0.0,0.0,0.0,0.0,0.0,0.0,0.0,0.0,0.0,0.0,0.0,0.0,0.0,0.0,0.0,0.0,0.0,0.0,0.0,0.0,0.0,0.0,0.0,0.0,0.0,0.0,0.0,0.0,0.0,0.0,0.0,0.0,0.0,0.0,0.0,0.0,0.0,0.0,0.0,0.0,0.0,0.0,0.0,0.0,0.0,0.0,0.0,0.0,0.0,0.0,0.0,0.0,0.0,0.0,0.0,0.0,0.0,0.0,0.0,0.0,0.0,0.0,0.0,0.0,0.0,0.0,0.0,0.0,0.0,0.0,0.0,0.0,0.0,0.0,0.0,0.0,0.0,0.0,0.0,0.0,0.0,0.0,0.0,0.0,0.0,0.0,0.0,4.831,5.0505,5.1946,5.1946,5.2677,5.3134,5.3134,5.1692,5.0145,0.0,0.0,0.0,0.0,0.0,0.0,0.0,0.0,0.0,0.0,0.0,0.0,0.0,0.0,0.0,0.0,0.0,0.0,0.0,0.0,0.0,0.0,0.0,0.0,0.0,0.0,0.0,0.0,0.0,0.0,0.0,0.0,0.0,0.0,0.0,0.0,0.0,0.0,0.0,0.0,0.0,0.0,0.0,0.0,0.0,0.0,0.0,0.0,0.0,0.0,0.0,0.0,0.0,0.0,0.0,0.0,0.0,0.0,0.0,0.0,0.0,0.0,0.0,0.0,0.0,0.0,0.0,0.0,0.0,0.0,0.0,0.0,0.0,0.0,0.0,0.0,0.0,0.0,0.0,0.0,0.0,0.0,0.0,0.0,0.0,0.0,0.0,0.0,0.0,0.0,0.0,0.0,0.0,0.0,0.0,0.0,0.0,0.0,0.0,0.0,0.0,0.0,0.0,4.9788,5.2752,5.4784,5.4784,5.4999,5.5169,5.5169,5.3706,5.1537,4.8461,0.0,0.0,0.0,0.0,0.0,0.0,0.0,0.0,0.0,0.0,0.0,0.0,0.0,0.0,0.0,0.0,0.0,0.0,0.0,0.0,0.0,0.0,0.0,0.0,0.0,0.0,0.0,0.0,0.0,0.0,0.0,0.0,0.0,0.0,0.0,0.0,0.0,0.0,0.0,0.0,0.0,0.0,0.0,0.0,0.0,0.0,0.0,0.0,0.0,0.0,0.0,0.0,0.0,0.0,0.0,0.0,0.0,0.0,0.0,0.0,0.0,0.0,0.0,0.0,0.0,0.0,0.0,0.0,0.0,0.0,0.0,0.0,0.0,0.0,0.0,0.0,0.0,0.0,0.0,0.0,0.0,0.0,0.0,0.0,0.0,0.0,0.0,0.0,0.0,0.0,0.0,0.0,0.0,0.0,0.0,0.0,0.0,0.0,0.0,0.0,0.0,0.0,5.1107,5.4387,5.6683,5.6935,5.7224,5.7322,5.7046,5.5837,5.364,5.0217,0.0,0.0,0.0,0.0,0.0,0.0,0.0,0.0,0.0,0.0,0.0,0.0,0.0,0.0,0.0,0.0,0.0,0.0,0.0,0.0,0.0,0.0,0.0,0.0,0.0,0.0,0.0,0.0,0.0,0.0,0.0,0.0,0.0,0.0,0.0,0.0,0.0,0.0,0.0,0.0,0.0,0.0,0.0,0.0,0.0,0.0,0.0,0.0,0.0,0.0,0.0,0.0,0.0,0.0,0.0,0.0,0.0,0.0,0.0,0.0,0.0,0.0,0.0,0.0,0.0,0.0,0.0,0.0,0.0,0.0,0.0,0.0,0.0,0.0,0.0,0.0,0.0,0.0,0.0,0.0,0.0,0.0,0.0,0.0,0.0,0.0,0.0,0.0,0.0,0.0,0.0,0.0,0.0,0.0,0.0,0.0,0.0,0.0,0.0,0.0,0.0,0.0,5.2345,5.5559,5.7872,5.8471,5.9243,5.9476,5.8805,5.7796,5.5982,5.3013,0.0,0.0,0.0,0.0,0.0,0.0,0.0,0.0,0.0,0.0,0.0,0.0,0.0,0.0,0.0,0.0,0.0,0.0,0.0,0.0,0.0,0.0,0.0,0.0,0.0,0.0,0.0,0.0,0.0,0.0,0.0,0.0,0.0,0.0,0.0,0.0,0.0,0.0,0.0,0.0,0.0,0.0,0.0,0.0,0.0,0.0,0.0,0.0,0.0,0.0,0.0,0.0,0.0,0.0,0.0,0.0,0.0,0.0,0.0,0.0,5.8737,5.639,0.0,0.0,0.0,0.0,0.0,0.0,0.0,0.0,0.0,0.0,0.0,0.0,0.0,0.0,0.0,0.0,0.0,0.0,0.0,0.0,0.0,0.0,0.0,0.0,0.0,0.0,0.0,0.0,0.0,0.0,0.0,0.0,0.0,0.0,0.0,0.0,0.0,0.0,0.0,0.0,5.3354,5.7013,5.9502,5.9623,6.0387,6.0533,5.9757,5.8348,5.6418,5.3877,5.1471,0.0,0.0,0.0,0.0,0.0,0.0,0.0,0.0,0.0,0.0,0.0,0.0,0.0,0.0,0.0,0.0,0.0,0.0,0.0,0.0,0.0,0.0,0.0,0.0,0.0,0.0,0.0,0.0,0.0,0.0,0.0,0.0,0.0,0.0,0.0,0.0,0.0,0.0,0.0,0.0,0.0,0.0,0.0,0.0,0.0,0.0,0.0,0.0,0.0,0.0,0.0,0.0,0.0,0.0,0.0,0.0,0.0,0.0,0.0,6.2649,6.0375,0.0,0.0,0.0,0.0,0.0,0.0,0.0,0.0,0.0,0.0,0.0,0.0,0.0,0.0,0.0,0.0,0.0,0.0,0.0,0.0,0.0,0.0,0.0,0.0,0.0,0.0,0.0,0.0,0.0,0.0,0.0,0.0,0.0,0.0,0.0,0.0,0.0,0.0,0.0,0.0,5.4875,5.8337,6.0795,6.112,6.1521,6.1474,6.0747,5.9857,5.8337,5.5962,5.3507,0.0,0.0,0.0,0.0,0.0,0.0,0.0,0.0,0.0,0.0,0.0,0.0,0.0,0.0,0.0,0.0,0.0,0.0,0.0,0.0,0.0,0.0,0.0,0.0,0.0,0.0,0.0,0.0,0.0,0.0,0.0,0.0,0.0,0.0,0.0,0.0,0.0,0.0,0.0,0.0,0.0,0.0,0.0,0.0,0.0,0.0,0.0,0.0,0.0,0.0,0.0,0.0,0.0,6.736,6.8358,6.9017,6.9797,7.0257,7.0192,6.7177,6.5467,6.4668,6.3356,0.0,0.0,0.0,0.0,0.0,0.0,0.0,0.0,0.0,0.0,0.0,0.0,0.0,0.0,0.0,0.0,0.0,0.0,0.0,0.0,0.0,0.0,0.0,0.0,6.0676,6.0078,5.5789,0.0,0.0,0.0,0.0,0.0,0.0,0.0,0.0,0.0,0.0,0.0,5.6377,5.9554,6.1956,6.284,6.2887,6.2683,6.2153,6.1722,6.0626,5.8566,5.5971,5.3456,0.0,0.0,0.0,0.0,0.0,0.0,0.0,0.0,0.0,0.0,0.0,0.0,0.0,0.0,0.0,0.0,0.0,0.0,0.0,0.0,0.0,0.0,0.0,0.0,0.0,0.0,0.0,0.0,0.0,0.0,0.0,0.0,6.2948,6.3021,0.0,0.0,0.0,0.0,0.0,0.0,0.0,0.0,0.0,0.0,0.0,0.0,0.0,6.5579,6.7,6.9284,7.0457,7.0494,7.3421,7.4852,7.4962,7.5102,7.5542,7.6136,7.4962,0.0,6.8284,6.8761,0.0,0.0,0.0,0.0,0.0,0.0,0.0,0.0,0.0,0.0,0.0,0.0,0.0,0.0,0.0,0.0,0.0,0.0,0.0,0.0,0.0,0.0,6.5191,6.3796,6.409,6.4284,0.0,5.8817,5.5111,5.4063,5.2679,0.0,0.0,0.0,0.0,0.0,0.0,0.0,5.7394,6.0543,6.3195,6.4772,6.4893,6.4882,6.4798,6.3452,6.2168,6.1166,5.817,5.5676,5.3952,5.1662,0.0,0.0,0.0,0.0,0.0,0.0,0.0,0.0,0.0,0.0,0.0,0.0,0.0,0.0,0.0,0.0,0.0,0.0,0.0,0.0,0.0,0.0,0.0,0.0,0.0,0.0,0.0,0.0,0.0,6.421,6.4935,6.3983,6.5108,6.5191,0.0,0.0,0.0,0.0,0.0,0.0,0.0,0.0,0.0,6.9521,6.899,6.9669,7.1725,7.323,7.4478,7.5432,7.7304,7.8662,7.9543,7.9543,7.9984,8.0649,7.9874,7.8332,7.613,7.2826,7.0293,6.8348,0.0,0.0,0.0,0.0,6.5191,6.5632,6.6182,6.6366,6.6292,6.5742,0.0,0.0,0.0,0.0,0.0,0.0,0.0,0.0,0.0,0.0,6.721,6.743,6.7724,6.7797,6.699,6.4457,6.1337,0.0,5.6483,5.5251,5.2978,0.0,0.0,0.0,0.0,5.8157,5.9748,6.245,6.4494,6.5228,6.5301,6.5301,6.5301,6.464,6.387,6.3062,6.0786,5.8767,5.7166,5.5207,5.2968,0.0,0.0,0.0,0.0,0.0,0.0,0.0,0.0,0.0,0.0,0.0,0.0,0.0,0.0,0.0,0.0,0.0,0.0,0.0,0.0,0.0,0.0,0.0,0.0,0.0,0.0,0.0,0.0,6.592,6.6806,6.5191,6.732,6.7797,0.0,0.0,0.0,0.0,0.0,0.0,6.8311,6.8531,7.0146,7.3377,7.3303,7.4331,7.6754,7.7378,7.8405,7.9837,8.0424,8.1452,8.281,8.281,8.3141,8.3654,8.2847,8.237,8.1782,7.6313,7.3083,7.1431,6.9192,6.8568,6.8825,6.8017,6.8238,6.9119,7.0513,7.0881,7.0624,7.0036,6.8605,6.6623,6.3943,0.0,0.0,0.0,0.0,6.536,6.8035,6.9181,6.9958,7.1152,7.1447,7.1172,7.0236,6.9215,6.6953,0.0,6.0395,5.9038,5.5647,0.0,0.0,0.0,0.0,6.0346,6.1741,6.3906,6.5301,6.5301,6.5485,6.5632,6.5632,6.5632,6.5338,6.4751,6.3135,6.1704,6.0493,5.8914,5.6712,5.3885,0.0,0.0,0.0,0.0,0.0,0.0,0.0,0.0,0.0,0.0,0.0,0.0,0.0,0.0,0.0,0.0,0.0,0.0,0.0,0.0,0.0,0.0,0.0,0.0,0.0,0.0,0.0,0.0,0.0,6.7687,7.033,0.0,0.0,0.0,0.0,6.9743,7.1284,7.2532,7.3303,7.4074,7.5983,7.925,7.8626,7.9396,8.1819,8.1856,8.2333,8.3177,8.3214,8.3654,8.4499,8.4499,8.4499,8.4499,8.3691,8.292,8.2003,7.936,7.7304,7.5616,7.3964,7.2899,7.2165,7.1358,7.1578,7.2386,7.323,7.301,7.2753,7.4955,7.2569,6.8605,6.7687,6.6137,0.0,0.0,6.8518,7.0336,7.1244,7.3191,7.4948,7.5023,7.5037,7.467,7.3352,7.1812,6.9545,0.0,6.3697,6.2046,6.0346,0.0,5.8964,5.8964,6.0419,6.1777,6.2658,6.4237,6.5301,6.5301,6.5999,6.6439,6.6439,6.6439,6.6402,6.6366,6.4861,6.3943,6.387,6.2254,6.0566,5.8854,5.6906,0.0,0.0,0.0,0.0,0.0,0.0,0.0,0.0,0.0,0.0,0.0,0.0,0.0,0.0,0.0,0.0,0.0,0.0,0.0,0.0,0.0,0.0,0.0,0.0,0.0,0.0,0.0,0.0,7.0917,7.4111,0.0,7.2679,7.2642,7.2679,7.2422,7.4918,7.6533,7.6827,7.8112,7.9837,8.2039,8.1856,8.237,8.3728,8.3728,8.4168,8.4939,8.4939,8.538,8.6151,8.6151,8.6151,8.6114,8.5306,8.4792,8.4352,8.248,8.0131,7.7635,7.7084,7.635,7.5652,7.5909,7.6166,7.6533,7.7341,7.7414,7.7108,7.6749,7.4746,7.2336,7.1389,7.0631,7.0358,7.1529,7.2434,7.3317,7.4649,7.5607,7.6263,7.6263,7.6195,7.6004,7.5577,7.452,7.3127,7.124,6.779,6.4677,6.3062,6.2071,6.1337,6.0823,6.1667,6.2695,6.3539,6.4604,6.5301,6.5301,6.5558,6.5742,6.5742,6.6219,6.6512,6.6512,6.5962,6.5632,6.5632,6.4845,6.341,6.124,6.0248,5.7754,0.0,0.0,0.0,0.0,0.0,0.0,0.0,0.0,0.0,0.0,0.0,0.0,0.0,0.0,0.0,0.0,0.0,0.0,0.0,0.0,0.0,0.0,0.0,0.0,0.0,7.2055,7.4845,7.4588,7.7671,7.8956,7.6754,7.679,7.6864,7.657,7.8846,8.0241,8.0241,8.1489,8.2847,8.4168,8.4205,8.4609,8.5416,8.5416,8.5673,8.6187,8.6187,8.6481,8.6995,8.6995,8.6995,8.6958,8.6151,8.5783,8.571,8.4352,8.2553,8.0534,7.9727,7.8883,7.8222,7.8772,7.8993,7.9066,7.9617,7.9984,7.9889,7.7988,7.6648,7.5578,7.4583,7.4422,7.4778,7.5632,7.604,7.6501,7.781,7.7941,7.7713,7.7713,7.7234,7.6714,7.6603,7.5852,7.4988,7.4229,7.1152,6.8025,6.6099,6.5284,6.4533,6.327,6.3907,6.4511,6.4508,6.5345,6.5764,6.5338,6.5558,6.5673,6.5494,6.6257,6.6775,6.6939,6.6679,6.6642,6.6939,6.6198,6.4852,6.2929,6.145,5.9008,5.561,0.0,0.0,0.0,0.0,0.0,0.0,0.0,0.0,0.0,0.0,0.0,0.0,0.0,0.0,0.0,0.0,0.0,0.0,0.0,0.0,0.0,0.0,0.0,7.1403,7.4852,7.7781,7.8662,8.0901,8.237,8.237,8.1636,8.1489,8.2296,8.3067,8.3544,8.3581,8.4278,8.5086,8.5894,8.5857,8.6224,8.7031,8.7031,8.7031,8.6995,8.7068,8.7068,8.6995,8.7066,8.7066,8.6993,8.6219,8.5922,8.5848,8.504,8.4676,8.4419,8.2035,8.064,7.9974,7.9968,7.9968,7.9932,7.9932,8.0446,8.0793,7.901,7.8437,7.8196,7.7258,7.7351,7.7932,7.8656,7.9297,7.9911,8.0635,8.014,7.9527,7.9527,7.8262,7.6897,7.6465,7.5685,7.4923,7.4497,7.3596,7.2087,6.9606,6.9117,6.8366,6.6342,6.7067,0.0,6.5554,6.6396,6.6703,6.5441,6.6014,6.6294,6.5932,6.6624,6.7282,6.7734,6.6983,6.6908,6.7718,6.6195,6.4994,6.4189,6.0536,5.8494,5.8132,0.0,0.0,0.0,0.0,0.0,0.0,0.0,0.0,0.0,0.0,0.0,0.0,0.0,0.0,0.0,0.0,0.0,0.0,0.0,0.0,0.0,7.2679,7.4588,7.4001,7.7414,8.0718,8.27,8.5086,8.6554,8.6554,8.527,8.4792,8.5637,8.5894,8.6261,8.6848,8.7105,8.7582,8.839,8.7288,8.7068,8.7876,8.7876,8.7582,8.7031,8.8206,8.8202,8.7237,8.8211,8.8387,8.7948,8.8097,8.8186,8.8111,8.7314,8.6639,8.5919,8.4778,8.3833,8.3188,8.3675,8.349,8.3003,8.3003,8.274,8.2357,8.2246,8.1423,8.051,8.0659,8.0399,8.0064,8.0383,8.0597,8.0738,8.0953,8.036,7.9707,7.9707,7.8852,7.7982,7.7845,7.7088,7.6599,7.7105,7.5982,7.4086,7.1505,6.9553,6.8173,6.7535,6.7259,0.0,6.6313,6.6528,6.64,6.5462,6.5552,6.5656,6.556,6.6272,6.6802,6.6929,6.7293,6.733,6.6871,6.6842,6.6572,6.6048,6.3282,6.1499,0.0,0.0,0.0,0.0,0.0,0.0,0.0,0.0,0.0,0.0,0.0,0.0,0.0,0.0,0.0,0.0,0.0,0.0,0.0,0.0,0.0,0.0,7.7084,7.936,7.991,8.1709,8.3911,8.6334,8.7876,8.883,8.916,8.8059,8.7509,8.7986,8.8023,8.8206,8.8683,8.872,8.894,8.9417,8.85,8.8243,8.872,8.899,8.8934,8.8454,8.9734,8.9882,8.9113,8.9922,9.0051,8.9677,8.9668,8.9612,8.9574,8.877,8.8103,0.0,0.0,0.0,0.0,0.0,8.4883,8.4179,8.4203,8.3864,8.3469,8.3726,8.3171,8.2433,8.2702,8.2452,8.2029,8.2115,8.2131,8.2054,8.1708,8.1246,8.0669,7.9977,7.9085,7.8362,7.8016,7.7524,7.7185,7.73,7.6532,0.0,7.3339,7.1461,6.9793,6.8546,6.8393,6.8129,6.7347,6.769,6.7767,6.7078,6.702,6.6987,6.6786,6.7202,0.0,0.0,0.0,6.6913,6.5666,6.5982,0.0,0.0,0.0,0.0,0.0,0.0,0.0,0.0,6.1412,6.0977,0.0,0.0,0.0,0.0,0.0,0.0,0.0,0.0,0.0,0.0,0.0,0.0,0.0,0.0,0.0,0.0,8.1562,8.4572,8.7068,8.6775,8.7142,8.9307,8.9638,8.9968,9.0701,9.004,8.9601,8.9674,8.9601,8.9601,8.9674,8.9565,0.0,0.0,0.0,8.9559,8.9704,9.0387,9.0713,9.0639,9.1479,9.1778,9.1616,9.1782,9.1834,9.1709,9.094,9.0625,9.0588,8.9692,8.9276,8.8948,8.6592,8.571,8.5744,8.5555,8.5039,8.4434,8.4396,0.0,0.0,8.422,8.4039,8.385,8.3632,8.3478,8.3324,8.3324,8.3324,8.3131,8.2362,8.2093,8.1631,8.0169,7.9131,7.8284,7.7592,7.7361,7.7092,7.6399,7.613,7.5745,7.4976,7.3936,7.2333,6.9709,7.0171,7.033,6.8868,6.9603,7.0076,6.9643,0.0,0.0,6.9116,6.8981,6.9093,6.9504,6.7985,6.6375,6.4893,6.4855,6.483,6.4843,6.4843,6.56,6.7151,6.7266,6.7716,6.8423,6.3681,6.2708,0.0,0.0,0.0,0.0,0.0,0.0,0.0,0.0,0.0,0.0,0.0,0.0,0.0,0.0,0.0,8.0094,8.3251,8.6407,8.9491,8.9784,8.9858,9.0335,9.0959,9.1472,9.1763,9.1063,9.0879,9.1541,9.0953,9.0809,9.1289,9.0739,9.0737,9.1542,9.0757,9.0669,9.1503,9.2088,9.2052,9.1412,9.2905,0.0,9.1886,9.2969,9.3168,9.2633,9.2233,9.2085,9.2047,9.1165,9.0379,8.9573,8.7828,8.7534,8.7905,8.6486,8.5854,8.5739,8.5739,8.5757,8.5719,8.571,8.4767,8.3648,8.3615,8.267,0.0,8.1593,8.1593,8.1554,8.1362,8.0823,8.0208,7.99,7.9131,7.8453,7.8284,7.7746,7.7438,7.79,7.6899,7.5938,7.5784,7.4486,7.3197,7.254,7.2072,7.1942,7.2161,7.1848,7.1596,7.1494,7.1494,7.1434,7.1344,7.0731,7.0341,7.0439,6.8867,6.7836,6.7547,6.7547,6.7547,6.7547,6.7601,6.7781,6.8141,6.8833,6.9269,6.9398,6.7679,6.7166,0.0,0.0,0.0,0.0,0.0,0.0,0.0,0.0,0.0,0.0,0.0,7.3597,7.5249,0.0,8.0351,8.4022,8.6628,8.9086,9.1654,9.2353,9.2279,9.1434,9.2095,9.2646,9.2823,9.286,9.286,9.286,9.2491,9.2198,9.2091,9.1723,9.1722,9.2233,9.198,9.2094,9.2604,9.3542,9.382,9.3427,9.463,9.4815,9.4141,9.4794,9.4919,9.4578,9.4022,9.3749,9.3633,9.2364,9.1595,9.1021,8.94,8.8727,8.8594,8.7709,8.7132,8.6709,8.6247,8.6094,8.6094,8.6094,8.5517,8.4863,8.4863,8.4286,8.3516,8.3131,8.3016,8.2785,8.1939,8.1708,8.1477,8.0669,8.0131,7.9669,7.9246,7.8823,7.8554,7.8515,7.8169,7.763,7.6784,7.5976,7.4962,7.3611,7.3073,7.2943,7.3283,7.3014,7.2745,7.2745,7.2745,7.2745,7.2745,7.2361,7.19,7.1478,7.0647,7.0008,6.9613,6.9575,6.9819,7.0242,7.0269,7.0514,7.0975,7.1398,7.1591,7.1591,7.1168,7.0706,0.0,0.0,0.0,0.0,0.0,0.0,0.0,7.312,7.4551,7.4221,7.5432,7.7451,8.0424,8.1636,8.3581,8.7949,8.993,9.1508,9.338,9.4337,9.4337,9.2861,9.3304,9.3745,9.3885,9.4549,9.4659,9.3957,9.3883,9.3516,9.2668,9.2631,9.2661,9.261,9.3146,9.347,9.3618,9.4817,9.5407,9.5407,9.602,9.6288,9.6288,9.6288,9.6288,9.6249,9.5365,9.4826,9.4403,9.3056,9.2402,9.2095,9.071,8.9748,8.9133,8.8825,8.8132,8.7286,8.6594,8.6247,8.6094,8.6094,8.5978,8.5863,8.5863,8.5747,8.5478,8.4824,8.4516,8.4055,8.267,8.2708,8.2747,8.14,8.1093,8.09,8.0208,7.9939,7.9592,7.89,7.9169,7.9131,7.7784,7.7515,7.6746,7.4361,7.386,7.3783,7.3976,7.386,7.3822,7.3976,7.4014,7.3937,7.3745,7.3745,7.336,7.2514,7.2437,7.2129,7.1437,7.1398,7.1745,7.2437,7.2437,7.2783,7.3514,7.3654,7.3745,7.3745,7.3899,7.3437,6.721,6.7981,6.9889,7.0697,7.2642,7.4735,0.0,7.7304,7.8442,7.9764,8.1342,8.2994,8.4792,8.5783,8.7215,8.9895,9.125,9.2498,9.4227,9.533,9.5622,9.4874,9.4733,9.477,9.4946,9.502,9.502,9.4946,9.4909,9.4506,9.3553,9.3481,9.3452,9.337,9.3878,9.4502,9.5166,9.5841,9.6155,9.6155,9.6251,9.6288,9.6288,9.6288,9.6288,9.6249,9.5365,9.4134,9.2749,9.2595,9.2056,9.1325,9.1133,9.1018,9.0748,8.9248,8.8132,8.7401,8.7286,8.6748,8.6094,8.6094,8.5632,8.5016,8.5016,8.4478,8.3862,8.3747,8.317,8.2554,8.2362,8.1823,8.1323,8.1131,8.1093,8.1054,8.0977,8.0362,7.9785,7.9669,7.9092,7.8592,7.84,7.8361,7.7746,7.5976,7.5053,7.4861,7.563,7.5053,7.4861,7.563,7.5707,7.5399,7.463,7.4591,7.4207,7.3399,7.336,7.3322,7.3206,7.3206,7.3245,7.336,7.336,7.3399,7.3514,7.4207,7.4591,7.4591,7.5361,7.4861,7.022,7.1064,7.2863,7.5579,7.7708,7.958,8.1195,8.2553,8.3544,8.3765,8.5086,8.6407,8.7068,8.7943,8.9226,9.1175,9.2716,9.4148,9.5474,9.6431,9.6723,9.6046,9.6382,9.6458,9.6043,9.6451,9.6525,9.6006,9.5969,9.56,9.4716,9.4491,9.4392,9.4355,9.4715,9.5119,9.5407,9.6,9.6288,9.6288,9.6288,9.6288,9.6288,9.6288,9.6288,9.6288,9.5903,9.5365,9.4672,9.4172,9.3441,9.2595,9.2133,9.1633,9.1056,8.9825,8.9171,8.8786,8.8325,8.7594,8.6863,8.6863,8.6286,8.5593,8.5593,8.5324,8.4939,8.4478,8.4093,8.3708,8.317,8.2785,8.2554,8.2554,8.217,8.1785,8.1785,8.1131,8.0554,8.0554,8.0246,7.9862,7.9323,7.9246,7.8861,7.763,7.713,7.7053,7.74,7.713,7.7053,7.74,7.7438,7.7323,7.6938,7.6476,7.6284,7.6399,7.5976,7.5938,7.6399,7.6399,7.6399,7.6399,7.6399,7.6399,7.6399,7.6746,7.6899,7.6899,7.7284,7.7092,7.2275,7.3891,7.6203,7.958,8.215,8.4205,8.56,8.6995,8.7986,8.7839,8.8353,8.9014,8.9454,8.9814,9.0619,9.2496,9.4001,9.5286,9.6573,9.7496,9.7678,9.6706,9.7149,9.7223,9.6369,9.726,9.7632,9.7,9.6963,9.6591,9.5774,9.5682,9.5488,9.5007,9.5477,9.5637,9.5407,9.6,9.6288,9.6288,9.6288,9.6288,9.6326,9.6519,9.6519,9.6326,9.6519,9.6365,9.5865,9.498,9.4134,9.3287,9.2441,9.1748,9.1133,9.0479,9.0133,8.9825,8.9248,8.8479,8.7709,8.7478,8.6978,8.6401,8.617,8.6094,8.5978,8.5401,8.5093,8.4747,8.4132,8.3785,8.3593,8.3593,8.3131,8.267,8.267,8.2208,8.1708,8.1477,8.1439,8.117,8.0323,8.0169,7.9939,7.9323,7.9208,7.9015,7.8554,7.8477,7.8477,7.8477,7.8477,7.8477,7.8477,7.7977,7.7861,7.8453,7.7938,7.79,7.8477,7.8477,7.8477,7.8477,7.8477,7.8477,7.8477,7.8477,7.8477,7.8477,7.8477,7.8477,7.2275,7.5983,8.0021,8.1709,8.5086,8.8243,8.9087,8.9895,9.0959,9.2537,9.162,9.1033,9.2648,9.1801,9.1686,9.4117,9.4846,9.5684,9.7314,9.8418,9.8449,9.6814,9.6629,9.6331,9.5514,9.6926,9.7892,9.7855,9.7855,9.7483,9.6629,9.7135,9.6689,9.5075,9.6071,9.6248,9.5407,9.6,9.6288,9.6288,9.6288,9.6288,9.6326,9.7096,9.7057,9.6326,9.7134,9.6519,9.498,9.4095,9.3249,9.2441,9.1595,9.121,9.121,9.1171,9.0633,8.9902,8.9863,8.9325,8.8517,8.7671,8.7363,8.7209,8.6363,8.6094,8.6094,8.6055,8.5517,8.4901,8.4863,8.4247,8.3593,8.3593,8.3555,8.3555,8.3555,8.3516,8.3247,8.2439,8.2247,8.2016,8.1208,8.1054,8.1054,8.1016,8.1016,8.04,7.8707,7.8477,7.8477,7.8477,7.8477,7.8477,7.8477,7.8477,7.8477,7.8477,7.8477,7.8477,7.8477,7.8477,7.8477,7.8477,7.8477,7.8477,7.8477,7.8477,7.8477,7.8477,7.8477,7.8477,7.5028,7.8479,8.2296,8.604,8.8793,9.0959,9.2354,9.3272,9.3712,9.3198,9.2244,9.1289,9.0776,9.0436,9.0937,9.282,9.4353,9.5857,9.7562,9.8563,9.8077,9.5328,9.6443,9.648,9.4065,9.5291,9.6443,9.7,9.7557,9.7912,9.7996,9.8011,9.779,9.7223,9.7792,9.7737,9.7089,9.7075,9.7096,9.7096,9.6557,9.6288,9.6326,9.6596,9.6557,9.6326,9.6596,9.6365,9.5788,9.4903,9.4057,9.321,9.2402,9.171,9.121,9.121,9.1018,9.0748,9.0748,9.021,8.944,8.9171,8.8325,8.7363,8.7055,8.6555,8.6094,8.6094,8.5901,8.5709,8.5709,8.5478,8.5247,8.5247,8.4863,8.4478,8.4478,8.4016,8.3516,8.3208,8.317,8.3093,8.2785,8.2747,8.2747,8.2747,8.1823,8.09,8.0285,8.0208,8.0208,8.0208,8.0208,8.0208,8.0208,7.9708,7.9823,8.0939,7.9977,7.9862,8.0977,8.0516,8.0208,8.0208,8.0208,8.0208,8.0208,8.0208,8.0208,8.0208,8.0208,8.0208,7.8112,8.1452,8.4866,8.8867,9.1289,9.2978,9.4042,9.4923,9.5144,9.3786,9.217,9.0592,8.9234,8.8591,8.8971,9.1188,9.3233,9.5217,9.7149,9.8152,9.7669,9.4957,9.5774,9.5626,9.3211,9.4214,9.5291,9.6108,9.6963,9.7678,9.8235,9.8593,9.8621,9.8356,9.8955,9.8823,9.7929,9.7651,9.7365,9.7057,9.6557,9.6288,9.6326,9.6596,9.6557,9.6326,9.6596,9.6557,9.6211,9.5018,9.421,9.3595,9.2479,9.171,9.121,9.121,9.121,9.121,9.121,9.0825,9.0325,9.0017,8.8979,8.7825,8.7478,8.6786,8.6094,8.6094,8.6094,8.617,8.6478,8.6324,8.617,8.6478,8.594,8.5324,8.5324,8.4901,8.4401,8.4132,8.4055,8.3978,8.3632,8.3593,8.3593,8.3593,8.267,8.1862,8.1554,8.1785,8.1747,8.117,8.1631,8.1862,8.1554,8.1285,8.1631,8.2708,8.1747,8.1631,8.2708,8.2285,8.1977,8.1977,8.1977,8.1977,8.1977,8.167,8.1516,8.1516,8.1246,8.1093,8.1232,8.4682,8.7692,9.0078,9.2501,9.4299,9.4299,9.485,9.5144,9.4299,9.1473,8.894,8.8169,8.6417,8.6168,8.9488,9.1787,9.3954,9.6331,9.7483,9.7409,9.5626,9.4845,9.4065,9.3136,9.3768,9.4585,9.5328,9.6146,9.6858,9.7447,9.8848,9.9255,9.8496,9.9567,9.9514,9.8143,9.7748,9.7134,9.6288,9.6288,9.6288,9.6326,9.7096,9.7019,9.6326,9.7057,9.6942,9.6095,9.4364,9.3633,9.348,9.1825,9.121,9.121,9.121,9.121,9.121,9.121,9.121,9.1056,9.0248,8.944,8.8594,8.7786,8.6901,8.6247,8.6247,8.6247,8.644,8.7248,8.6863,8.644,8.7286,8.6824,8.6209,8.617,8.617,8.594,8.5132,8.4978,8.4709,8.3939,8.3747,8.3747,8.3824,8.3785,8.3401,8.2477,8.3093,8.2978,8.14,8.2631,8.3247,8.2439,8.3131,8.3593,8.367,8.3632,8.3593,8.367,8.3632,8.3593,8.3593,8.3593,8.3593,8.3593,8.2747,8.2362,8.2362,8.1593,8.1246,8.3214,8.6334,8.9234,9.1033,9.2905,9.4299,9.4299,9.4006,9.3308,9.184,8.85,8.5781,8.5695,8.5373,8.6232,8.9654,9.2781,9.544,9.7297,9.9303,9.9303,9.5811,9.6852,9.6814,9.414,9.4622,9.518,9.5365,9.6146,9.6858,9.7447,9.8848,9.9493,9.933,10.041,10.0627,9.9878,9.8918,9.775,9.6288,9.6288,9.6288,9.6326,9.6519,9.648,9.6288,9.5826,9.5518,9.5211,9.348,9.2826,9.271,9.1633,9.121,9.121,9.121,9.121,9.121,9.121,9.121,9.1171,9.0941,9.0287,8.9556,8.9325,8.8671,8.8017,8.8017,8.8017,8.8094,8.8286,8.8209,8.8094,8.8325,8.8209,8.7863,8.7209,8.7055,8.6824,8.5978,8.5786,8.594,8.6363,8.5901,8.5901,8.7209,8.6286,8.4939,8.3439,8.3439,8.3439,8.3016,8.3324,8.3516,8.3285,8.3478,8.3862,8.4516,8.3939,8.3901,8.4555,8.3939,8.3593,8.3593,8.3593,8.3593,8.3593,8.3362,8.3247,8.3247,8.3054,8.2939,8.5628,8.8127,9.0369,9.1509,9.2941,9.3602,9.1987,9.1619,9.0699,8.7545,8.4572,8.2655,8.3148,8.2823,8.3935,8.8461,9.1775,9.4622,9.7,9.9118,9.9601,9.7297,9.7929,9.7706,9.5477,9.5663,9.5909,9.579,9.6537,9.7141,9.7478,9.9098,9.9974,9.9974,10.0804,10.1016,10.0305,9.9671,9.8711,9.7403,9.7019,9.6826,9.6788,9.6057,9.5711,9.5672,9.4788,9.4634,9.4864,9.3172,9.271,9.2941,9.2095,9.1556,9.1287,9.2018,9.1825,9.1248,9.1633,9.1518,9.121,9.121,9.0633,8.9902,8.9902,8.9325,8.8709,8.8709,8.8709,8.8786,8.9133,8.894,8.8786,8.9133,8.894,8.8556,8.8055,8.7979,8.7825,8.7325,8.7248,8.7401,8.7902,8.7555,8.7555,8.8556,8.7863,8.6748,8.544,8.4939,8.4401,8.367,8.4247,8.4555,8.4209,8.4478,8.4901,8.5401,8.4978,8.4901,8.5401,8.4978,8.4709,8.4709,8.4709,8.4709,8.4709,8.4324,8.417,8.417,8.3785,8.3593,8.8154,8.9954,9.1208,9.1728,9.268,9.2489,8.8897,8.8635,8.7746,8.3055,8.0708,7.9858,8.107,8.0345,8.1457,8.7233,9.0328,9.3136,9.6331,9.8367,9.9443,9.922,9.8765,9.8091,9.7133,9.7014,9.6868,9.6652,9.7395,9.7831,9.7629,9.9441,10.0497,10.0604,10.1088,10.0904,10.0096,10.0096,9.9635,9.8788,9.8019,9.7596,9.7442,9.598,9.5211,9.496,9.421,9.4172,9.4557,9.321,9.2941,9.3326,9.271,9.1979,9.1364,9.2826,9.2518,9.1479,9.2095,9.1902,9.1364,9.1248,9.071,9.0094,9.0094,8.9594,8.9017,8.9017,8.9017,8.9171,8.9902,8.9556,8.921,8.9902,8.9556,8.8979,8.8863,8.8786,8.8709,8.8709,8.8709,8.8709,8.8825,8.8748,8.8786,8.8979,8.8825,8.8479,8.7825,8.6863,8.567,8.4093,8.5247,8.5824,8.5132,8.5709,8.6094,8.6094,8.6094,8.6094,8.6094,8.6094,8.6094,8.6094,8.6094,8.6094,8.6094,8.5401,8.5055,8.5055,8.4286,8.3939,8.9993,9.1276,9.219,9.2266,9.2451,9.1747,8.8394,8.6734,8.5069,8.2128,7.964,7.8749,8.1155,8.1864,8.3818,8.914,9.2133,9.4697,9.7297,10.0113,10.1298,10.0017,10.0707,10.0872,9.9524,9.92,9.8865,9.8297,9.933,9.948,9.8286,9.9681,10.0672,10.1093,10.1288,10.0904,10.0096,10.0096,9.9635,9.8788,9.8634,9.8211,9.748,9.7211,9.6288,9.498,9.4826,0.0,9.2941,9.3326,9.2749,9.171,9.2287,9.1979,9.1248,9.1518,9.1902,9.2172,9.1633,9.1787,9.2172,9.1441,9.1095,9.0979,9.0979,9.0864,9.0787,9.0787,9.0787,9.0787,9.0941,9.0864,9.0787,9.0941,9.0864,9.0556,8.9863,8.9171,8.8709,8.8709,8.8709,8.8902,8.9594,8.9133,8.9171,9.0556,8.9594,8.8902,8.9402,8.8132,8.6786,8.5786,8.594,8.6055,8.5901,8.6017,8.6094,8.6094,8.6094,8.6094,8.6094,8.6094,8.6094,8.6094,8.6094,8.6094,8.6094,8.5978,8.5901,8.5901,8.5747,8.567,9.0858,9.2183,9.3065,9.2555,9.2547,9.1354,8.62,8.4458,8.2641,7.8005,7.6699,7.7134,7.943,8.0437,8.2466,8.7199,8.931,9.165,9.544,9.7857,9.9724,10.1114,10.1397,10.1315,10.1103,10.0199,9.9634,9.9623,10.0188,10.0084,9.9092,9.9959,10.0716,10.1308,10.1289,10.1096,10.0712,10.0712,10.0481,10.0096,9.9211,9.8596,9.8134,9.6788,9.5749,9.498,9.4518,9.3864,9.3133,9.3518,9.2979,9.1979,9.2787,9.2326,9.1325,9.2172,9.2479,9.2441,9.2018,9.2133,9.2364,9.1479,9.121,9.121,9.121,9.121,9.121,9.121,9.1518,9.1787,9.1325,9.1864,9.2287,9.1402,9.121,9.121,9.1248,9.0594,9.0017,9.0017,9.0364,9.0787,9.121,9.0941,9.0941,9.1748,9.0825,8.9979,8.9902,8.921,8.8402,8.7555,8.744,8.7286,8.6824,8.6786,8.6786,8.6786,8.6786,8.6978,8.744,8.744,8.7248,8.6786,8.6786,8.6786,8.6786,8.6786,8.6786,8.6786,8.7248,8.6978,9.1576,9.2829,9.357,9.2952,9.264,9.0769,8.4256,8.2615,8.0748,7.482,7.458,7.6059,7.8043,7.9043,8.0814,8.471,8.6004,8.827,9.3248,9.5252,9.768,10.1602,10.1598,10.138,10.1996,10.081,10.01,10.0489,10.0604,10.0489,10.0,10.0404,10.0902,10.1308,10.1289,10.1212,10.1019,10.1212,10.1212,10.1019,9.9865,9.9135,9.8711,9.6711,9.5518,9.498,9.448,9.3941,9.348,9.3826,9.3287,9.2287,9.3133,9.2518,9.1364,9.2903,9.3133,9.2749,9.2749,9.2864,9.2903,9.2018,9.1479,9.1248,9.1441,9.1479,9.1518,9.171,9.221,9.2595,9.1902,9.271,9.3364,9.2056,9.1595,9.171,9.2556,9.2095,9.1518,9.171,9.2287,9.2749,9.2749,9.2749,9.2749,9.2749,9.2018,9.1287,9.0787,9.0402,9.0017,8.9556,8.9017,8.8402,8.7748,8.7671,8.7671,8.7671,8.7671,8.7979,8.8671,8.8709,8.8363,8.7671,8.7671,8.7671,8.7671,8.7671,8.7671,8.7671,8.8363,8.7979,9.2647,9.3412,9.3215,9.3883,9.2361,8.9421,8.4302,8.1999,7.9882,7.628,7.5578,7.6375,7.8917,7.9945,8.1296,8.4042,8.5186,8.7452,9.2393,9.48,9.7257,10.0613,10.1888,10.2308,10.1803,10.14,10.0987,10.0497,10.1004,10.121,10.1093,10.121,10.1211,10.1289,10.1289,10.0904,10.0212,10.0904,10.0904,10.0212,10.0789,10.0289,9.8788,9.8557,9.7173,9.5018,9.5749,9.4749,0.0,9.4249,9.348,9.1402,9.2287,9.2018,9.1325,9.2249,9.3018,9.3595,9.3595,9.4095,9.4634,9.3749,9.2441,9.1364,9.2133,9.2364,9.2518,9.3249,9.3518,9.3557,9.348,9.3595,9.3672,9.3518,9.2903,9.2595,9.3403,9.2941,9.2595,9.3326,9.3518,9.3595,9.3595,9.3595,9.3595,9.3595,9.2903,9.2633,9.3249,9.2018,9.1364,9.2056,9.0056,8.8671,8.8594,8.8556,8.8556,8.8556,8.8556,8.8632,8.8709,8.8709,8.8671,8.8556,8.8556,8.8556,8.8556,8.8556,8.8556,8.8556,8.8671,8.8594,9.2258,9.3887,9.44,9.4251,9.3099,9.0573,8.5149,8.2251,7.9614,7.5824,7.5055,7.5325,7.6344,7.7617,7.8963,8.0468,8.1397,8.3477,8.7898,9.0408,9.3445,9.8117,9.9784,10.1017,10.21,10.1689,10.121,10.1008,10.119,10.1289,10.1289,10.1289,10.1289,10.1289,10.1289,10.1096,10.0789,10.1096,10.1096,10.0789,10.0712,9.9942,9.8788,9.825,9.7211,9.5788,9.6134,9.5441,0.0,9.5288,9.4287,9.2056,9.2903,9.271,9.2018,9.2364,9.3326,9.4403,9.3864,9.4249,9.4864,9.398,9.3249,9.2787,9.3133,9.321,9.3287,9.3595,9.4057,9.4364,9.3826,9.371,9.3941,9.5018,9.3864,9.271,9.3518,9.3056,9.2595,9.2903,9.3787,9.448,9.448,9.448,9.448,9.448,9.3749,9.3326,9.3672,9.3133,9.2633,9.2518,9.1133,8.9979,8.9479,8.944,8.944,8.944,8.944,8.9671,9.0171,9.021,8.994,8.944,8.944,8.944,8.944,8.944,8.944,8.944,8.994,8.9671,9.1725,9.3842,9.4622,9.4288,9.2839,9.0239,8.5186,8.1917,7.8945,7.5341,7.4598,7.4673,7.4896,7.6148,7.7301,7.783,7.9019,8.1025,8.4406,8.6808,8.9959,9.4755,9.6339,9.8074,10.0788,10.1212,10.1289,10.1289,10.1289,10.1289,10.1289,10.1289,10.1289,10.1289,10.1289,10.1212,10.0904,10.1212,10.1096,10.0596,10.0212,9.9519,9.8404,9.7788,9.7057,9.6288,9.6288,9.5826,0.0,9.5672,9.4711,9.2903,9.348,9.3364,9.2903,9.3133,9.398,9.4941,9.4595,9.4864,9.5288,9.4672,9.448,9.448,9.448,9.4287,9.4134,9.4403,9.4903,9.5249,9.4634,9.448,9.4788,9.6019,9.4711,9.348,9.4287,9.3826,9.3326,9.3557,9.4595,9.5365,9.5365,9.5365,9.5365,9.5365,9.4634,9.4172,9.4441,9.4018,9.348,9.2903,9.2095,9.1248,9.0364,9.0287,9.0287,9.0287,9.0287,9.0556,9.1171,9.121,9.0902,9.0325,9.0287,9.0287,9.0287,9.0287,9.0287,9.0325,9.0902,9.0556,9.1395,9.2988,9.3211,9.3991,9.113,8.7267,8.396,8.0654,7.7608,7.5081,7.4598,7.4821,7.5639,7.6493,7.7115,7.7115,7.9094,8.1285,8.2994,8.5152,8.7622,9.0612,9.1499,9.3366,9.7173,9.9827,10.1289,10.1289,10.1289,10.1289,10.1289,10.1289,10.1289,10.1289,10.1289,10.0904,10.0096,10.0904,10.0519,9.8827,9.9673,9.9173,9.7519,9.7519,9.7057,9.6288,9.6288,9.5826,0.0,9.5018,9.448,9.3672,9.371,9.3672,9.3787,9.4634,9.498,9.5095,9.598,9.6288,9.6288,9.6288,9.6288,9.6288,9.6288,9.5672,9.5172,9.6019,9.6288,9.6288,9.6288,9.6288,9.6288,9.6288,9.5634,9.5211,9.6095,9.5595,9.5211,9.6095,9.6288,9.6288,9.6288,9.6288,9.6288,9.6288,9.5518,9.5288,9.6172,9.4788,9.371,9.3672,9.2979,9.2133,9.1248,9.121,9.121,9.121,9.121,9.121,9.121,9.121,9.121,9.121,9.121,9.121,9.121,9.121,9.121,9.121,9.121,9.121,8.5335,8.749,8.8678,8.8381,8.7341,8.5521,8.2251,7.9837,7.7719,7.5824,7.4524,7.4004,7.4821,7.5193,7.5963,7.7608,7.9019,8.0572,8.2526,8.4904,8.7033,8.8651,9.2904,9.6866,9.9808,10.0789,10.1289,10.1289,10.1289,10.1289,10.1289,10.0789,10.0712,10.1289,10.0789,10.0404,10.0096,9.9173,9.875,9.8788,9.8481,9.775,9.6673,9.6673,9.6211,9.5403,9.5403,9.5595,9.5903,9.5903,9.5365,9.4595,9.4595,9.4595,9.4595,9.4921,9.5365,9.5942,9.6211,9.6288,9.6288,9.6288,9.6288,9.6288,9.6288,9.6095,9.5942,9.6211,9.6288,9.6288,9.6288,9.6288,9.6288,9.6288,9.5634,9.5057,9.5326,9.5172,9.5057,9.5365,9.5903,9.6288,9.6288,9.6288,9.6288,9.6288,9.6057,9.598,9.6249,9.5826,9.5249,9.4634,9.4364,9.3403,9.1364,9.121,9.121,9.121,9.121,9.121,9.121,9.121,9.121,9.121,9.121,9.121,9.121,9.121,9.121,9.121,9.121,9.121,8.2177,8.4518,8.5855,8.5632,8.4926,8.3514,8.084,7.8759,7.6865,7.523,7.4104,7.3547,7.4041,7.4375,7.5161,7.6898,7.8901,8.0421,8.093,8.3753,8.6174,8.7322,9.2565,9.6942,9.9211,10.0596,10.1212,10.0904,10.0789,10.0712,10.0404,9.9865,9.9827,10.0289,9.9865,9.9596,9.9596,9.8519,9.8096,9.8288,9.7442,9.6596,9.5788,9.548,9.5211,9.498,9.498,9.548,0.0,9.6288,9.598,9.548,9.548,9.548,9.548,9.548,9.5826,9.6288,9.6288,9.6288,9.6288,9.6288,9.6288,9.6288,9.6288,9.6288,9.6288,9.6288,9.6288,9.6288,9.6288,9.6288,9.6288,9.6288,9.5903,9.548,9.548,9.548,9.548,9.548,9.5942,9.6403,9.6711,9.6519,9.6403,9.6711,9.648,9.6288,9.6288,9.6288,9.598,9.5095,9.498,9.421,9.2326,9.2133,9.2133,9.2133,9.2133,9.2018,9.171,9.171,9.1556,9.121,9.1518,9.171,9.171,9.2018,9.2133,9.2133,9.2133,9.2133,0.0,8.318,8.396,8.4629,8.318,8.1137,7.9502,7.7347,0.0,7.3807,7.3435,7.3435,7.3524,7.4119,7.4758,7.5365,7.8865,8.0766,7.8772,8.2065,8.5344,8.7003,9.1087,9.448,9.6288,9.9365,10.0904,10.0096,10.0115,9.9712,9.8865,9.875,9.8711,9.8711,9.8634,9.8634,9.8711,9.8596,9.8134,9.7403,9.6596,9.5749,9.4864,9.4057,9.4134,0.0,9.4903,9.5441,9.6288,9.6288,9.6288,9.6288,9.6288,9.6288,9.6288,9.6288,9.6288,9.6288,9.6288,9.6288,9.6288,9.6288,9.6288,9.6288,9.6288,9.6288,9.6288,9.6288,9.6288,9.6288,9.6288,9.6288,9.6288,9.6288,9.6288,9.6288,9.6288,9.6288,9.6288,9.6288,9.6288,9.6557,9.7365,9.6865,9.6634,9.7403,9.6865,9.6365,9.6326,9.6288,9.598,9.5172,9.5095,9.4749,9.3941,9.3749,9.371,9.371,9.371,9.3364,9.2633,9.2595,9.221,9.1402,9.2172,9.2595,9.2595,9.3326,9.371,9.371,9.371,9.371,7.6084,0.0,7.7719,7.7273,7.7199,7.6976,0.0,7.5304,7.4747,7.4375,7.3844,7.3687,7.4672,7.4482,7.4806,7.6815,7.9317,8.0651,7.9475,8.2492,8.6637,9.1469,9.3636,9.5595,9.798,9.9519,9.9981,9.9173,9.9712,9.9712,9.8865,9.8173,9.7827,9.7827,9.7211,9.7173,9.7788,9.6519,9.6134,9.6557,9.5711,9.4826,9.398,9.3787,9.3787,9.4018,9.4018,9.4864,9.6288,9.6288,9.6288,9.6288,9.6288,9.6288,9.6288,9.6288,9.6288,9.6288,9.6288,9.6288,9.6288,9.6288,9.6288,9.6288,9.6288,9.6288,9.6288,9.6288,9.6288,9.6288,9.6288,9.6288,9.6288,9.6288,9.6288,9.6288,9.6288,9.6288,9.6288,9.6288,9.6288,9.6557,9.7365,9.7326,9.7288,9.748,9.7326,9.7019,9.6365,9.6288,9.6211,9.6019,9.598,9.5903,9.5711,9.448,9.371,9.371,9.371,9.3633,9.3441,9.3403,9.3326,9.3133,9.3326,9.3403,9.3403,9.3595,9.371,9.371,9.371,9.371,7.393,7.4896,7.5787,7.5777,7.6047,7.6159,7.5341,7.4858,7.4487,7.4142,7.3696,7.3552,7.4066,7.4085,7.4448,7.5825,7.8014,8.0101,8.1805,8.3993,8.7363,9.2518,9.4249,9.5826,9.798,9.8981,9.9135,9.825,9.8634,9.8519,9.7711,9.7211,9.6942,9.6942,9.6519,9.6519,9.6942,9.6057,9.5826,9.6288,9.5403,9.4518,9.371,9.371,9.371,9.371,9.4134,9.5057,9.6288,9.6288,9.6288,9.6288,9.6288,9.6288,9.6288,9.6288,9.6288,9.6288,9.6288,9.6288,9.6288,9.6288,9.6288,9.6288,9.6288,9.6557,9.6788,9.6403,9.6288,9.6403,9.6749,9.6596,9.6403,9.6749,9.6557,9.6288,9.6288,9.6288,9.6403,9.6788,9.6557,9.6826,9.8404,9.8019,9.7634,9.8057,9.775,9.7211,9.6403,9.6288,9.6288,9.6288,9.6288,9.6288,9.6288,9.5441,9.4903,9.4903,9.4903,9.4711,9.4287,9.4287,9.4287,9.4287,9.4287,9.448,9.4903,9.4903,9.4903,9.4903,9.4903,9.4903,7.3547,7.4714,7.6005,7.6409,7.6685,7.659,7.5734,7.5068,7.4374,7.3591,7.3404,7.3329,7.3071,7.3649,7.4346,7.4783,7.6991,8.0364,8.5198,8.6324,8.8209,9.2402,9.4249,9.5749,9.7173,9.8096,9.825,9.7365,9.7442,9.7134,9.6326,9.6288,9.6288,9.6288,9.6288,9.6288,9.6288,9.6288,9.6288,9.6288,9.5557,9.4749,9.3903,9.3903,9.3903,9.3941,9.4672,0.0,9.6288,9.6288,9.6288,9.6288,9.6288,9.6288,9.6288,9.6288,9.6288,9.6288,9.6288,9.6288,9.6288,9.6288,9.6288,9.6288,9.6288,9.6865,9.7365,9.6673,9.6596,9.6826,9.7519,9.7211,9.6826,9.7365,9.698,9.6442,9.6326,9.6288,9.6557,9.7326,9.6942,9.725,9.9673,9.8865,9.8096,9.8711,9.8173,9.7365,9.6442,9.6288,9.6288,9.6288,9.6288,9.6288,9.6288,9.6288,9.6365,9.648,9.6365,9.598,9.5211,9.5211,9.5211,9.5211,9.5211,9.5557,9.6288,9.6288,9.6288,9.6288,9.6288,9.6288,7.4227,7.537,7.6007,7.4357,7.4773,7.5355,7.4492,7.4478,7.4422,7.3569,7.338,7.3487,7.3838,7.4559,7.5834,7.7984,8.0467,8.402,8.9465,8.971,9.0633,9.4172,9.548,9.6211,9.648,9.7211,9.7365,9.6557,9.7134,9.7134,9.6326,9.6288,9.6288,9.6288,9.6288,9.6288,9.6288,9.6288,9.6288,9.6288,9.6172,9.5634,9.4788,9.4788,9.4788,9.4788,0.0,9.548,9.6288,9.6288,9.6288,9.6288,9.6288,9.6288,9.6288,9.6288,9.6288,9.6288,9.6288,9.6288,9.6288,9.6288,9.6288,9.6288,9.6288,9.6865,9.748,9.7365,9.7865,9.8442,9.8557,9.8519,9.825,9.7634,9.7403,9.7134,9.6442,9.6288,9.6557,9.7326,9.7403,9.7904,9.9788,9.9865,9.9481,9.8904,9.8673,9.8057,9.6519,9.6288,9.6288,9.6288,9.6288,9.6288,9.6288,9.6288,9.6596,9.7288,9.6673,9.6249,9.6095,9.6095,9.6095,9.6095,9.6095,9.6172,9.6288,9.6288,9.6288,9.6288,9.6288,9.6288,7.3844,7.4861,7.5839,7.5795,7.6033,7.6111,7.5221,7.4863,7.444,7.3586,7.3396,7.3401,7.3389,7.5233,7.792,8.1636,8.3205,8.5501,8.9867,9.0556,9.171,9.4634,9.5788,9.6288,9.6288,9.6634,9.6711,9.6326,9.6634,9.6711,9.6326,9.6288,9.6288,9.6288,9.6288,9.6288,9.6288,9.6288,9.6288,9.6288,9.6288,9.5826,9.5037,9.548,9.5441,9.5018,0.0,9.5942,9.6288,9.6288,9.6288,9.6288,9.6288,9.6288,9.6288,9.6288,9.6288,9.6288,9.6288,9.6288,9.6288,9.6288,9.6288,9.6288,9.6288,9.7173,9.8211,9.8211,9.8481,9.8904,9.9365,9.9135,9.8827,9.8904,9.8557,9.798,9.7134,9.6942,9.7211,9.8057,9.7827,9.8173,10.0404,10.0404,9.9942,9.9558,9.9481,9.9058,9.7827,9.7634,9.7634,9.7634,9.7634,9.7634,9.7634,9.7634,9.7403,9.6903,9.6903,9.6749,9.6326,9.6288,9.6288,9.6288,9.6288,9.6288,9.6288,9.6288,9.6288,9.6288,9.6288,9.6288,7.3398,7.4399,7.5773,7.7084,7.7382,7.7372,7.7524,7.6844,7.6008,7.5342,7.4886,7.4446,7.3964,7.6786,8.0528,8.4506,8.6017,8.7709,9.0671,9.1672,9.2903,9.5057,9.5903,9.6288,9.6288,9.6288,9.6288,9.6288,9.6288,9.6288,9.6288,9.6288,9.6288,9.6288,9.6288,9.6288,9.6288,9.6288,9.6288,9.6288,9.6288,9.5942,9.5326,9.6019,9.5826,9.5057,9.5903,9.6172,9.6019,9.6019,9.6134,9.6288,9.6095,9.6134,9.6288,9.6288,9.6288,9.6288,9.6288,9.6288,9.6288,9.6288,9.6288,9.6326,9.6519,9.7634,9.8827,9.9058,9.925,9.9519,10.0212,9.9904,9.9519,9.9981,9.9596,9.8865,9.798,9.7788,9.8057,9.8942,9.8557,9.8788,10.0904,10.0789,10.0289,10.0096,10.0096,9.9788,9.8904,9.8788,9.8788,9.8788,9.8788,9.8788,9.8788,9.8981,9.8481,9.698,9.7442,9.7519,9.6903,9.6903,9.6903,9.6903,9.6903,9.6903,9.6903,9.6903,9.6903,9.6865,9.6673,9.6596,7.3398,7.4624,7.5973,7.6087,7.6959,7.8559,8.169,8.1486,8.0607,8.0568,7.9261,7.7877,7.7139,8.0369,8.3808,8.5709,8.9363,9.2595,9.4364,9.4672,9.5095,9.6095,9.6249,9.6288,9.6288,9.6288,9.6288,9.6288,9.6288,9.6288,9.6288,9.6288,9.6288,9.6288,9.6288,9.6288,9.6288,9.6288,9.6288,9.6288,9.6288,9.6288,9.6211,9.6288,9.5826,9.5057,9.5903,9.5826,9.5095,9.5095,9.5557,9.6211,9.5403,9.5595,9.6288,9.6288,9.6288,9.6288,9.6288,9.6288,9.6288,9.6288,9.6288,9.6442,9.7211,9.8057,9.8981,9.9788,10.0481,10.1096,10.1212,10.1212,10.0904,10.0289,10.0115,9.975,9.8904,9.8711,9.8942,9.9827,9.9942,10.0212,10.1096,10.1289,10.1019,10.0212,10.0096,9.9788,9.8904,9.8788,9.8788,9.8788,9.8788,9.8788,9.8788,9.9519,9.9596,9.8673,9.8673,9.8673,9.8634,9.8634,9.8634,9.8634,9.8634,9.8634,9.8634,9.8634,9.8634,9.8596,9.7788,9.7403,7.2208,7.3333,7.4995,7.7341,7.8494,7.9517,8.1359,8.182,8.1862,8.1862,8.1323,8.0785,8.0477,8.217,8.4478,8.7248,8.994,9.2287,9.3941,9.3749,9.3941,9.5326,9.548,9.5711,9.6249,9.6288,9.6288,9.6288,9.6288,9.6288,9.6288,9.6288,9.6288,9.6288,9.6288,9.6288,9.6288,9.6288,9.6288,9.6288,9.6288,9.6288,9.6288,9.6288,9.6134,9.5826,9.6172,9.6095,9.5788,9.5211,9.5518,9.6288,9.5942,9.6019,9.6288,9.6288,9.6288,9.6288,9.6288,9.6288,9.6288,9.6288,9.6288,9.6365,9.6673,9.7326,9.8173,9.9058,9.9904,10.0712,10.1212,10.1289,10.1212,10.0904,10.0789,10.0596,9.9788,9.9596,9.9712,9.9981,10.0096,10.0404,10.1212,10.1289,10.1212,10.0904,10.0789,10.0712,10.0404,10.0404,10.0404,10.0404,10.0404,10.0404,10.0404,10.0712,10.0712,10.0404,9.9904,9.9365,9.8827,9.8788,9.8788,9.8788,9.8788,9.8788,9.8788,9.8788,9.8788,9.8788,9.7904,9.7519,7.1777,7.2727,7.4315,7.6878,7.8662,8.0169,8.1554,8.2939,8.4055,8.4593,8.3862,8.2862,8.2054,8.3285,8.517,8.7478,9.0171,9.2402,9.3518,9.3441,9.3595,9.448,9.4826,9.5211,9.5826,9.6134,9.6288,9.6288,9.6288,9.6288,9.6288,9.6288,9.6288,9.6288,9.6288,9.6288,9.6288,9.6288,9.6288,9.6288,9.6288,9.6288,9.6288,9.6288,9.6134,9.5903,9.6172,9.6134,9.5826,9.4941,9.4941,9.5518,9.5788,9.6057,9.6288,9.6288,9.6288,9.6288,9.6288,9.6288,9.6326,9.6596,9.6519,9.6403,9.6942,9.748,9.8096,9.8981,9.9827,10.0596,10.1212,10.1289,10.1289,10.1289,10.1289,10.1096,10.0596,10.0481,10.0481,10.0481,10.0481,10.0712,10.1212,10.1289,10.1289,10.1289,10.1289,10.1289,10.1289,10.1289,10.1289,10.1289,10.1289,10.1289,10.1289,10.1289,10.1289,10.1289,10.0789,10.0212,9.9596,9.9596,9.9596,9.9596,9.9596,9.9596,9.9596,9.9596,9.9596,9.9558,9.8711,9.8327,7.2393,7.3116,7.4087,7.4121,7.7012,8.0516,8.3054,8.5593,8.7902,8.9594,8.7248,8.417,8.1631,8.3862,8.6094,8.6094,9.0364,9.3672,9.3672,9.4403,9.4634,9.3787,9.4441,9.498,9.498,9.5788,9.6288,9.6288,9.6288,9.6288,9.6288,9.6288,9.6288,9.6288,9.6288,9.6288,9.6288,9.6288,9.6288,9.6288,9.6288,9.6288,9.6288,9.6288,9.5826,9.5057,9.5942,9.5826,9.4903,9.4057,9.371,9.3787,9.4634,9.5518,9.6288,9.6288,9.6288,9.6288,9.6288,9.6326,9.6442,9.725,9.698,9.6634,9.8288,9.8788,9.8981,9.9827,10.0712,10.1289,10.1289,10.1289,10.1289,10.1289,10.1289,10.1289,10.1289,10.1289,10.1289,10.1289,10.1289,10.1289,10.1289,10.1289,10.1289,10.1289,10.1289,10.1289,10.1289,10.1289,10.1289,10.1289,10.1289,10.1289,10.1289,10.1289,10.1289,10.1289,10.1289,10.1289,10.1289,10.1289,10.1289,10.1289,10.1289,10.1289,10.1289,10.1289,10.1289,10.1289,10.0481,10.0096,7.1037,7.2452,7.4478,7.5986,7.9453,8.3131,8.567,8.7325,8.8786,9.0479,8.8594,8.644,8.567,8.6324,8.7017,8.7017,8.9787,9.1941,9.1941,9.2172,9.2441,9.2826,9.3595,9.4326,9.4941,9.5788,9.6288,9.6288,9.6288,9.6288,9.6288,9.6288,9.6288,9.6288,9.6288,9.6288,9.6288,9.6288,9.6288,9.6288,9.6288,9.6288,9.6288,9.6288,9.6172,9.5942,9.6172,9.5826,9.4903,9.4057,9.371,9.3787,9.4634,9.5518,9.6288,9.6288,9.6288,9.6288,9.6288,9.6673,9.7173,9.7403,9.7326,9.725,9.775,9.7904,9.8057,9.8942,9.9788,10.0596,10.1212,10.1289,10.1289,10.1289,10.1289,10.1289,10.1289,10.1289,10.1289,10.1289,10.1289,10.1289,10.1289,10.1289,10.1289,10.1289,10.1289,10.1289,10.1289,10.1289,10.1289,10.1289,10.1289,10.1289,10.1289,10.1289,10.1289,10.1289,10.1289,10.1289,10.1289,10.1289,10.1289,10.1289,10.1289,10.1289,10.1289,10.1289,10.1289,10.1289,10.0481,10.0096,7.211,7.3897,7.6245,7.7893,8.0977,8.4516,8.8094,8.9325,8.9979,9.0979,8.971,8.8286,8.7979,8.8171,8.8286,8.7979,9.0056,9.171,9.171,9.171,9.1902,9.2441,9.321,9.3903,9.4441,9.5595,9.6288,9.6288,9.6288,9.6288,9.6288,9.6288,9.6288,9.6288,9.6288,9.6288,9.6288,9.6288,9.6288,9.6288,9.6288,9.6288,9.6288,9.6288,9.6288,9.6288,9.5942,9.5288,9.4403,9.3557,9.3633,9.421,9.4403,9.5634,9.7211,9.6557,9.6519,9.6749,9.6403,9.6634,9.7096,9.7403,9.7288,9.7096,9.7403,9.775,9.8134,9.8634,9.9673,10.0712,10.1212,10.1289,10.1289,10.1289,10.1289,10.1289,10.1289,10.1289,10.1289,10.1289,10.1289,10.1289,10.1289,10.1289,10.1289,10.1289,10.1289,10.1289,10.1289,10.1289,10.1289,10.1289,10.1289,10.1289,10.1289,10.1289,10.1289,10.1289,10.1289,10.1289,10.1289,10.1289,10.1289,10.1289,10.1289,10.1289,10.1289,10.1289,10.1289,10.1289,10.0789,10.0596,7.4707,7.6669,7.8938,7.99,8.217,8.5401,9.0133,9.121,9.121,9.1287,9.0633,8.9787,8.9056,8.9517,8.9787,8.9056,9.0864,9.2364,9.2364,9.2364,9.2364,9.2364,9.3172,9.371,9.371,9.5288,9.6288,9.6288,9.6288,9.6288,9.6288,9.6288,9.6288,9.6288,9.6288,9.6288,9.6288,9.6288,9.6288,9.6288,9.6288,9.6288,9.6288,9.6288,9.6288,9.6249,9.5288,9.4441,9.3633,9.2749,9.3403,9.4903,9.4018,9.5749,9.8481,9.6903,9.6749,9.7288,9.6557,9.6365,9.6519,9.725,9.7019,9.6557,9.7288,9.8096,9.8788,9.8788,10.0019,10.1289,10.1289,10.1289,10.1289,10.1289,10.1289,10.1289,10.1289,10.1289,10.1289,10.1289,10.1289,10.1289,10.1289,10.1289,10.1289,10.1289,10.1289,10.1289,10.1289,10.1289,10.1289,10.1289,10.1289,10.1289,10.1289,10.1289,10.1289,10.1289,10.1289,10.1289,10.1289,10.1289,10.1289,10.1289,10.1289,10.1289,10.1289,10.1289,10.1289,10.1289,10.1289,10.1289,7.4707,7.7553,8.09,8.2401,8.5709,8.9017,9.0787,9.121,9.1402,9.2095,9.1518,9.0864,9.071,9.0787,9.0864,9.071,9.1133,9.1479,9.1479,9.1479,9.1479,9.1479,9.2787,9.371,9.371,9.5288,9.6288,9.6288,9.6288,9.6288,9.6288,9.6288,9.6288,9.6288,9.6288,9.6288,9.6288,9.6288,9.6288,9.6288,9.6288,9.6288,9.6288,9.6288,9.6288,9.6211,9.4672,9.3864,9.3595,9.2095,9.2864,9.4903,9.4018,9.5365,9.7673,9.6673,9.6403,9.6519,9.6365,9.6711,9.7288,9.7442,9.7365,9.7288,9.7442,9.8096,9.8788,9.8788,10.0019,10.1289,10.1289,10.1289,10.1289,10.1289,10.1289,10.1289,10.1289,10.1289,10.1289,10.1289,10.1289,10.1289,10.1289,10.1289,10.1289,10.1289,10.1289,10.1289,10.1289,10.1289,10.1289,10.1289,10.1289,10.1289,10.1289,10.1289,10.1289,10.1289,10.1289,10.1289,10.1289,10.1289,10.1289,10.1289,10.1289,10.1289,10.1289,10.1289,10.1289,10.1289,10.1289,10.1289,7.563,7.8746,8.2477,8.5786,8.8594,9.0748,9.1633,9.1518,9.1441,9.2326,9.1825,9.121,9.121,9.121,9.121,9.121,9.121,9.1364,9.1748,9.1479,9.1364,9.1787,9.2595,9.3287,9.3672,9.4903,9.5865,9.6288,9.6288,9.6288,9.6288,9.6288,9.6288,9.6288,9.6288,9.6288,9.6288,9.6288,9.6288,9.6288,9.6288,9.6288,9.6288,9.6288,9.6288,9.6249,9.4903,9.4095,9.3633,9.2749,9.3672,9.5518,9.4672,9.6134,9.8596,9.7326,9.6865,9.6865,9.6865,9.6903,9.6942,9.6942,9.6942,9.6942,9.6942,9.7788,9.8788,9.8788,10.0019,10.1289,10.1289,10.1289,10.1289,10.1289,10.1289,10.1289,10.1289,10.1289,10.1289,10.1289,10.1289,10.1289,10.1289,10.1289,10.1289,10.1289,10.1289,10.1289,10.1289,10.1289,10.1289,10.1289,10.1289,10.1289,10.1289,10.1289,10.1289,10.1289,10.1289,10.1289,10.1289,10.1289,10.1289,10.1289,10.1289,10.1289,10.1289,10.1289,10.1289,10.1289,10.1289,10.1289,7.6399,7.9862,8.3901,8.8709,9.0441,9.121,9.2095,9.171,9.1402,9.2133,9.171,9.121,9.121,9.121,9.121,9.121,9.121,9.1441,9.2172,9.1633,9.1479,9.2172,9.2402,9.2749,9.3441,9.4403,9.5288,9.6019,9.6211,9.6288,9.6288,9.6288,9.6288,9.6288,9.6288,9.6288,9.6288,9.6288,9.6288,9.6288,9.6134,9.6019,9.5865,9.5865,9.6019,9.6249,9.5365,9.4595,9.3903,9.3749,9.4711,9.6249,9.5518,9.7019,9.9481,9.8019,9.7403,9.7288,9.7288,9.6865,9.6288,9.6288,9.6288,9.6288,9.6288,9.748,9.8788,9.8788,10.0019,10.1289,10.1289,10.1289,10.1289,10.1289,10.1289,10.1289,10.1289,10.1289,10.1289,10.1289,10.1289,10.1289,10.1289,10.1289,10.1289,10.1289,10.1289,10.1289,10.1289,10.1289,10.1289,10.1289,10.1289,10.1289,10.1289,10.1289,10.1289,10.1289,10.1289,10.1289,10.1289,10.1289,10.1289,10.1289,10.1289,10.1289,10.1289,10.1289,10.1289,10.1289,10.1289,10.1289,7.5707,8.0285,8.5401,8.9017,8.9979,9.0325,9.1171,9.1287,9.1248,9.1364,9.1287,9.121,9.121,9.121,9.121,9.121,9.121,9.1248,9.1364,9.1287,9.1248,9.1364,9.2056,9.2556,9.2633,9.4057,9.5057,9.5172,9.5865,9.6288,9.6288,9.6288,9.6288,9.6288,9.6288,9.6288,9.6288,9.6288,9.6288,9.6288,9.5518,9.4788,9.4057,9.4057,9.4864,9.6249,9.5365,9.4903,9.4749,9.4018,9.4711,9.6288,9.6172,9.6826,9.7827,9.7596,9.7057,9.648,9.648,9.6403,9.6288,9.6288,9.6288,9.6288,9.6288,9.748,9.8788,9.8788,10.0019,10.1289,10.1289,10.1289,10.1289,10.1289,10.1289,10.1289,10.1289,10.1289,10.1289,10.1289,10.1289,10.1289,10.1289,10.1289,10.1289,10.1289,10.1289,10.1289,10.1289,10.1289,10.1289,10.1289,10.1289,10.1289,10.1289,10.1289,10.1289,10.1289,10.1289,10.1289,10.1289,10.1289,10.1289,10.1289,10.1289,10.1289,10.1289,10.1289,10.1289,10.1289,10.1289,10.1289,7.6784,8.1785,8.6286,8.9171,9.0287,9.0594,9.0517,9.0864,9.121,9.121,9.121,9.121,9.121,9.121,9.121,9.121,9.121,9.121,9.121,9.121,9.121,9.121,9.1556,9.1979,9.2441,9.3557,9.448,9.496,9.5826,9.6288,9.6288,9.6288,9.6288,9.6288,9.6288,9.6288,9.6288,9.6288,9.6057,9.5557,9.4672,9.4057,9.3672,9.321,9.3672,9.4864,9.4941,9.448,9.3672,9.4711,9.5326,9.5634,9.6095,9.6788,9.7519,9.7519,9.698,9.6365,9.6826,9.6673,9.6288,9.6288,9.6288,9.6288,9.6288,9.7134,9.8173,9.8673,9.9673,10.0712,10.1212,10.1289,10.1289,10.1289,10.1289,10.1289,10.1289,10.1289,10.1289,10.1289,10.1289,10.1289,10.1289,10.1289,10.1289,10.1289,10.1289,10.1289,10.1289,10.1289,10.1289,10.1289,10.1289,10.1289,10.1289,10.1289,10.1289,10.1289,10.1289,10.1289,10.1289,10.1289,10.1289,10.1289,10.1289,10.1289,10.1289,10.1289,10.1289,10.1289,10.1289,10.1289,7.6207,8.0477,8.3939,8.694,8.8479,8.9325,8.9556,9.0094,9.0633,9.0825,9.0864,9.0864,9.0864,9.1056,9.121,9.121,9.121,9.121,9.121,9.121,9.121,9.121,9.121,9.1479,9.2095,9.3095,9.398,9.4595,9.5672,9.6211,9.598,9.598,9.5865,9.5634,9.5865,9.598,9.598,9.598,9.5518,9.4634,9.4018,9.371,9.3672,9.2864,9.2826,9.3441,9.4518,9.4172,9.2979,9.5095,9.5441,9.4788,9.5865,9.6519,9.6903,9.7326,9.698,9.6403,9.698,9.6788,9.6288,9.6288,9.6288,9.6288,9.6288,9.6865,9.7634,9.8288,9.925,10.0212,10.0789,10.1096,10.1289,10.1289,10.1289,10.1289,10.1289,10.1289,10.1289,10.1289,10.1289,10.1289,10.1289,10.1289,10.1289,10.1289,10.1289,10.1289,10.1289,10.1289,10.1289,10.1289,10.1289,10.1289,10.1289,10.1289,10.1289,10.1289,10.1289,10.1289,10.1289,10.1289,10.1289,10.1289,10.1289,10.1289,10.1289,10.1289,10.1289,10.1289,10.1289,10.1289,7.2052,7.3937,7.6322,8.0516,8.2785,8.4824,8.8017,8.8786,8.9056,8.9825,8.9979,8.9979,8.9979,9.0633,9.121,9.121,9.121,9.121,9.121,9.121,9.121,9.121,9.121,9.121,9.1248,9.2749,9.371,9.3749,9.5326,9.5942,9.5095,9.5057,9.4672,9.3864,9.4634,9.5057,9.5057,9.5057,9.4634,9.3749,9.371,9.371,9.3672,9.2864,9.2518,9.2633,9.4287,9.448,9.371,9.4672,9.4557,9.3941,9.5634,9.5826,9.5326,9.6903,9.698,9.6326,9.6365,9.6326,9.6288,9.6288,9.6288,9.6288,9.6288,9.6865,9.7519,9.7557,9.8788,10.0096,10.0192,10.0712,10.1289,10.1289,10.1289,10.1289,10.1289,10.1289,10.1289,10.1289,10.1289,10.1289,10.1289,10.1289,10.1289,10.1289,10.1289,10.1289,10.1289,10.1289,10.1289,10.1289,10.1289,10.1289,10.1289,10.1289,10.1289,10.1289,10.1289,10.1289,10.1289,10.1289,10.1289,10.1289,10.1289,10.1289,10.1289,10.1289,10.1289,10.1289,10.1289,10.1289,7.1591,7.3437,7.5476,7.8631,8.1093,8.3208,8.5016,8.6671,8.8094,8.894,8.9556,8.9902,8.9902,9.0633,9.121,9.121,9.121,9.121,9.121,9.121,9.121,9.121,9.121,9.1441,9.1979,9.3018,9.3941,9.448,9.5095,9.5326,9.5037,9.448,9.4287,9.4518,9.4826,9.498,9.498,9.498,9.4557,9.371,9.371,9.371,9.3672,9.2864,9.2479,9.2518,9.3133,9.321,9.2979,9.3826,9.4287,9.4595,9.5211,9.5634,9.5903,9.6519,9.6557,9.6288,9.6288,9.6288,9.6288,9.6288,9.6288,9.6403,9.6903,9.7288,9.775,9.8865,9.9596,10.0212,10.0712,10.1096,10.1289,10.1289,10.1289,10.1289,10.1289,10.1289,10.1289,10.1289,10.1289,10.1289,10.1289,10.1289,10.0904,9.9865,10.0596,10.0904,9.9827,10.0596,10.1289,10.1289,10.1289,10.1289,10.1289,10.1289,10.1289,10.1289,10.1289,10.1289,10.1289,10.1289,10.1289,10.1289,10.1289,10.1289,10.1289,10.1289,10.1289,10.1289,10.1289,10.1289,6.9629,7.1091,7.2899,7.6053,7.8092,8.0169,8.3324,8.4901,8.617,8.7902,8.8902,8.9517,8.9517,9.0441,9.121,9.121,9.121,9.1287,9.1595,9.1364,9.1325,9.1595,9.1633,9.1864,9.2441,9.348,9.4249,9.4518,9.4826,9.4864,9.4557,9.3749,9.3672,9.4518,9.4826,9.498,9.498,9.498,9.4711,9.4134,9.4134,9.4287,9.4557,9.371,9.3326,9.3326,9.3018,9.2749,9.2556,9.3364,9.4018,9.4595,9.4864,9.5326,9.5903,9.6211,9.6288,9.6288,9.6288,9.6288,9.6288,9.6288,9.6288,9.6442,9.725,9.7519,9.7788,9.925,9.9865,10.0212,10.0789,10.1096,10.1289,10.1289,10.1289,10.1289,10.1289,10.1289,10.1289,10.1289,10.1289,10.1289,10.1289,10.1289,10.0904,9.9827,10.0596,10.0904,9.9788,10.0596,10.1289,10.1289,10.1289,10.1289,10.1289,10.1289,10.1289,10.1289,10.1289,10.1289,10.1289,10.1289,10.1289,10.1289,10.1289,10.1289,10.1289,10.1289,10.1289,10.1289,10.1289,10.1289,0.0,0.0,0.0,7.2283,7.336,7.5361,8.2862,8.3324,8.3131,8.6594,8.7979,8.8632,8.8709,9.0094,9.121,9.121,9.121,9.1518,9.2364,9.1748,9.1556,9.2402,9.2479,9.2518,9.2556,9.4057,9.4634,9.3826,9.4518,9.4634,9.3787,9.2979,9.2941,9.371,9.4557,9.5018,9.498,9.498,9.498,9.498,9.498,9.5441,9.6288,9.5403,9.498,9.4941,9.4057,9.3249,9.2633,9.3403,9.3749,9.3903,9.4672,9.5018,9.5172,9.6019,9.6288,9.6288,9.6326,9.6326,9.6326,9.6365,9.6365,9.6519,9.7326,9.7596,9.775,9.8634,9.9481,10.0096,10.0096,10.0712,10.1289,10.1289,10.1289,10.1289,10.1289,10.1289,10.1289,10.1289,10.1289,10.1289,10.1289,10.1289,10.1289,10.1212,10.1212,10.1212,10.1212,10.1212,10.1212,10.1289,10.1289,10.1289,10.1289,10.1289,10.1289,10.1289,10.1289,10.1289,10.1289,10.1289,10.1289,10.1289,10.1289,10.1289,10.1289,10.1289,10.1289,10.1289,10.1289,10.1289,6.5743,0.0,0.0,0.0,0.0,0.0,7.5745,7.7707,7.9823,8.3824,8.5824,8.7363,8.9248,9.0479,9.121,9.121,9.1748,9.2018,9.1595,9.1902,9.221,9.2479,9.2479,9.2979,9.4172,9.4711,9.5172,9.5557,9.5211,9.4864,9.4634,9.4441,9.4403,9.4634,9.548,9.5634,9.5018,9.498,9.498,9.498,9.498,9.5441,9.6288,9.5403,9.498,9.4941,9.4057,9.3941,9.4287,9.3864,9.4788,9.6365,9.5365,9.5749,9.6788,9.6442,9.6288,9.6365,9.698,9.7173,9.7288,9.7904,9.8096,9.825,9.9096,9.9365,9.9558,10.0404,10.0789,10.1019,10.1019,10.1096,10.1289,10.1289,10.1289,10.1289,10.1289,10.1289,10.1289,10.1289,10.1289,10.1289,10.1289,10.1289,10.0904,9.9673,9.9481,9.9481,9.9481,9.9481,9.9942,10.1212,10.1289,10.1289,10.1289,10.1289,10.1289,10.1289,10.1289,10.1289,10.1289,10.1289,10.1289,10.1289,10.1289,10.1289,10.1289,10.1289,10.1289,10.1289,10.1289,10.1289,0.0,0.0,0.0,0.0,0.0,0.0,7.4091,7.5938,7.7938,8.217,8.4401,8.617,8.7979,8.9325,9.0287,9.0594,9.1979,9.2826,9.2326,9.2402,9.2749,9.3441,9.3518,9.3941,9.4921,9.5326,9.5595,9.5749,9.5288,9.4826,9.448,9.5134,9.5365,9.5018,9.5865,9.6057,9.5557,9.5518,9.5518,9.5518,9.5518,9.5826,9.6288,9.5788,9.5518,9.5518,9.5018,9.5057,9.5518,9.5365,9.5942,9.6903,9.5903,9.6134,9.6942,9.648,9.6519,9.6865,9.7326,9.775,9.8134,9.8634,9.8788,9.8942,9.9827,10.0096,10.0289,10.1096,10.1289,10.1289,10.1289,10.1289,10.1289,10.1289,10.1289,10.1289,10.1289,10.1289,10.1289,10.1289,10.1289,10.1289,10.1289,10.1289,10.1019,9.9981,9.9827,9.9827,9.9827,9.9827,10.0212,10.1212,10.1289,10.1289,10.1289,10.1289,10.1289,10.1289,10.1289,10.1289,10.1289,10.1289,10.1289,10.1289,10.1289,10.1289,10.1289,10.1289,10.1289,10.1289,10.1289,10.1289,6.5859,0.0,0.0,0.0,6.8167,0.0,7.4784,7.5784,7.6592,8.0631,8.2824,8.4362,8.5363,8.6863,8.8171,8.8825,9.121,9.3133,9.3518,9.3095,9.3326,9.4826,9.498,9.5018,9.5134,9.5865,9.598,9.5211,9.5134,9.4749,9.3903,9.5403,9.5942,9.5172,9.5903,9.6288,9.6288,9.6288,9.6288,9.6288,9.6288,9.6288,9.6288,9.6288,9.6288,9.6288,9.6288,9.6365,9.648,9.7211,9.7096,9.6442,9.6442,9.6442,9.6442,9.6442,9.6903,9.7519,9.7711,9.8288,9.8942,9.9058,9.9096,9.9211,9.9981,10.0212,10.0404,10.1096,10.1289,10.1289,10.1289,10.1289,10.1289,10.1289,10.1289,10.1289,10.1289,10.1289,10.1289,10.1289,10.1289,10.1289,10.1289,10.1289,10.1289,10.1289,10.1096,10.1096,10.1289,10.1096,10.1096,10.1289,10.1289,10.1289,10.1289,10.1289,10.1289,10.1289,10.1289,10.1289,10.1289,10.1289,10.1289,10.1289,10.1289,10.1289,10.1289,10.1289,10.1289,10.1289,10.1289,10.1289,6.5705,6.5897,6.6013,6.6513,0.0,0.0,6.8783,7.0552,7.2706,7.5592,7.7553,7.9477,8.167,8.2862,8.3401,8.2901,8.6094,8.9594,9.2364,9.3749,9.4634,9.496,9.498,9.5288,9.598,9.6211,9.6249,9.6057,9.6057,9.5672,9.4788,9.5711,9.6211,9.6057,9.6211,9.6288,9.6288,9.6288,9.6288,9.6288,9.6288,9.6288,9.6288,9.6288,9.6288,9.6288,9.6288,9.6673,9.7288,9.7442,9.7403,9.7288,9.7288,9.7288,9.7288,9.7288,9.7365,9.7711,9.9096,9.9712,9.9942,10.0596,10.0789,10.0789,10.1019,10.1096,10.1096,10.1289,10.1289,10.1289,10.1289,10.1289,10.1289,10.1289,10.1289,10.1289,10.1289,10.1289,10.1289,10.1289,10.1289,10.1289,10.1289,10.1289,10.1289,10.1289,10.0212,9.9788,10.1096,10.0096,9.9788,10.1212,10.1289,10.1289,10.1289,10.1289,10.1289,10.1289,10.1289,10.1289,10.1289,10.1289,10.1289,10.1289,10.1289,10.1289,10.1289,10.1289,10.1289,10.1289,10.1289,10.1289,6.5782,6.5897,6.6013,6.6397,0.0,0.0,0.0,6.9398,7.0898,7.3014,7.4822,7.6399,7.7669,7.9285,8.04,8.0439,8.4362,8.7863,8.9133,9.221,9.4672,9.5557,9.5634,9.5826,9.6249,9.6288,9.6134,9.5672,9.6057,9.5903,9.5057,9.5826,9.6288,9.6288,9.6288,9.6288,9.6288,9.6288,9.6288,9.6288,9.6288,9.6288,9.6288,9.6288,9.6519,9.6903,9.6903,9.7365,9.8134,9.8134,9.7904,9.7519,9.7519,9.725,9.6942,9.7365,9.7519,9.775,9.9481,10.0096,10.0212,10.1019,10.1289,10.1289,10.1289,10.1289,10.1289,10.1289,10.1289,10.1289,10.1289,10.1289,10.1289,10.1289,10.1289,10.1289,10.1289,10.1289,10.1289,10.1289,10.1289,10.1289,10.1289,10.1289,10.1289,10.1289,10.0596,10.0404,10.1212,10.0596,10.0404,10.1212,10.1289,10.1289,10.1289,10.1289,10.1289,10.1289,10.1289,10.1289,10.1289,10.1289,10.1289,10.1289,10.1289,10.1289,10.1289,10.1289,10.1289,10.1289,10.1289,10.1289,0.0,0.0,0.0,0.0,0.0,6.6821,0.0,0.0,0.0,7.1206,7.2668,7.3745,7.3745,7.5553,7.7207,7.7784,8.2131,8.5247,8.4709,8.8902,9.2826,9.5057,9.5595,9.5865,9.6019,9.5749,9.5326,9.4788,9.5095,9.5095,9.4557,9.548,9.6057,9.6057,9.6211,9.6288,9.6288,9.6288,9.6288,9.6288,9.6288,9.6288,9.6326,9.648,9.6903,9.7519,9.7673,9.8134,9.8788,9.8788,9.8288,9.7519,9.7519,9.7019,9.6442,9.7403,9.7634,9.7788,9.9673,10.0212,10.0212,10.1019,10.1289,10.1289,10.1289,10.1289,10.1289,10.1289,10.1289,10.1289,10.1289,10.1289,10.1289,10.1289,10.1289,10.1289,10.1289,10.1289,10.1289,10.1289,10.1289,10.1289,10.1289,10.1289,10.1289,10.1289,10.1289,10.1289,10.1289,10.1289,10.1289,10.1289,10.1289,10.1289,10.1289,10.1289,10.1289,10.1289,10.1289,10.1289,10.1289,10.1289,10.1289,10.1289,10.1289,10.1289,10.1289,10.1289,10.1289,10.1289,10.1289,10.1289,0.0,0.0,0.0,0.0,6.7628,0.0,0.0,0.0,6.859,6.8783,0.0,7.0283,7.0283,0.0,0.0,7.0937,7.513,7.8669,7.9285,8.3131,8.7363,9.1325,9.3095,9.4287,9.5057,9.3787,9.3172,9.3787,9.2556,9.2056,9.2749,9.4287,9.5134,9.5134,9.5903,9.6288,9.6288,9.6288,9.6288,9.6288,9.6288,9.6288,9.6326,9.7057,9.7403,9.7557,9.8327,9.8711,9.8788,9.8788,9.8288,9.7519,9.7519,9.7019,9.648,9.8057,9.8173,9.7865,10.0289,10.0712,10.0212,10.1019,10.1289,10.1289,10.1289,10.1289,10.1289,10.1289,10.1289,10.1289,10.1289,10.1289,10.1289,10.1289,10.1289,10.1289,10.1289,10.1289,10.1289,10.1289,10.1289,10.1289,10.1289,10.1289,10.1289,10.1289,10.1289,10.1289,10.1289,10.1289,10.1289,10.1289,10.1289,10.1289,10.1289,10.1289,10.1289,10.1289,10.1289,10.1289,10.1289,10.1289,10.1289,10.1289,10.1289,10.1289,10.1289,10.1289,10.1289,10.1289,10.1289,10.1289,0.0,0.0,0.0,0.0,0.0,0.0,6.6744,0.0,6.7667,0.0,0.0,0.0,0.0,0.0,0.0,0.0,7.3553,7.6476,7.6322,7.9977,8.4055,8.7786,8.8863,8.9633,9.0517,9.0825,9.1133,9.1479,9.1325,9.1595,9.2441,9.4095,9.498,9.498,9.5865,9.6288,9.6288,9.6288,9.6288,9.6288,9.6288,9.6557,9.698,9.6865,9.7326,9.825,9.8634,9.8788,9.8788,9.8788,9.8288,9.7442,9.698,9.6596,9.6519,9.8173,9.825,9.7865,10.0404,10.0789,10.0212,10.1019,10.1289,10.1289,10.1289,10.1289,10.1289,10.1289,10.1289,10.1289,10.1289,10.1289,10.1289,10.1289,10.1289,10.1289,10.1289,10.1289,10.1289,10.1289,10.1289,10.1289,10.1289,10.1289,10.1289,10.1289,10.1289,10.1289,10.1289,10.1289,10.1289,10.1289,10.1289,10.1289,10.1289,10.1289,10.1289,10.1289,10.1289,10.1289,10.1289,10.1289,10.1289,10.1289,10.1289,10.1289,10.1289,10.1289,10.1289,10.1289,10.1289,10.1289,6.9629,0.0,0.0,0.0,0.0,0.0,0.0,0.0,0.0,0.0,0.0,0.0,0.0,0.0,0.0,0.0,0.0,7.4745,7.4091,7.6899,8.0362,8.3939,8.5401,8.644,8.7325,8.7863,8.8556,8.9517,8.9286,8.9902,9.1672,9.3403,9.4403,9.4634,9.5711,9.6288,9.6288,9.6288,9.6288,9.6288,9.6519,9.6942,9.748,9.7134,9.7788,9.9135,9.8904,9.8788,9.8788,9.8519,9.7942,9.7096,9.6519,9.6288,9.648,9.7904,9.8057,9.7827,10.0212,10.0712,10.0481,10.1096,10.1289,10.1289,10.1289,10.1289,10.1289,10.1289,10.1289,10.1289,10.1289,10.1289,10.1289,10.1289,10.1289,10.1289,10.1289,10.1289,10.1289,10.1289,10.1289,10.1289,10.1289,10.1289,10.1289,10.1289,10.1289,10.1289,10.1289,10.1289,10.1289,10.1289,10.1289,10.1289,10.1289,10.1289,10.1289,10.1289,10.1289,10.1289,10.1289,10.1289,10.1289,10.1289,10.1289,10.1289,10.1289,10.1289,10.1289,10.1289,10.1289,10.1289,0.0,0.0,0.0,7.0052,0.0,0.0,0.0,0.0,6.859,0.0,0.0,0.0,0.0,0.0,0.0,0.0,0.0,0.0,0.0,0.0,0.0,0.0,0.0,0.0,8.7325,8.5209,8.517,8.8479,8.5709,8.5632,8.9748,9.1633,9.2941,9.371,9.5403,9.6288,9.6288,9.6288,9.6288,9.6326,9.7096,9.748,9.7519,9.8365,9.9211,9.9981,9.9173,9.8788,9.8711,9.7904,9.7057,9.6326,9.6326,9.6288,9.6403,9.725,9.7519,9.775,9.9519,10.0596,10.1289,10.1289,10.1289,10.1289,10.1289,10.1289,10.1289,10.1289,10.1289,10.1289,10.1289,10.1289,10.1289,10.1289,10.1289,10.1289,10.1289,10.1289,10.1289,10.1289,10.1289,10.1289,10.1289,10.1289,10.1289,10.1289,10.1289,10.1289,10.1289,10.1289,10.1289,10.1289,10.1289,10.1289,10.1289,10.1289,10.1289,10.1289,10.1289,10.1289,10.1289,10.1289,10.1289,10.1289,10.1289,10.1289,10.1289,10.1289,10.1289,10.1289,10.1289,10.1289,0.0,0.0,7.3437,7.1783,0.0,0.0,0.0,0.0,0.0,0.0,0.0,0.0,0.0,0.0,0.0,0.0,0.0,0.0,0.0,0.0,0.0,0.0,0.0,0.0,0.0,8.1939,8.3208,8.4362,8.3939,8.5209,8.8902,9.071,9.2287,9.3672,9.5403,9.6288,9.6288,9.6288,9.6288,9.6326,9.7134,9.7519,9.7519,9.8404,9.8634,9.8404,9.8673,9.8173,9.7173,9.7403,9.7019,9.6288,9.6288,9.6288,9.6403,9.7211,9.7865,9.8596,10.0289,10.1096,10.1289,10.1289,10.1289,10.1289,10.1289,10.1289,10.1289,10.1289,10.1289,10.1289,10.1289,10.1289,10.1289,10.1289,10.1289,10.1289,10.1289,10.1289,10.1289,10.1289,10.1289,10.1289,10.1289,10.1289,10.1289,10.1289,10.1289,10.1289,10.1289,10.1289,10.1289,10.1289,10.1289,10.1289,10.1289,10.1289,10.1289,10.1289,10.1289,10.1289,10.1289,10.1289,10.1289,10.1289,10.1289,10.1289,10.1289,10.1289,10.1289,10.1289,10.1289,10.1289,7.5899,7.5822,0.0,7.3899,7.2514,0.0,7.0398,0.0,0.0,0.0,0.0,0.0,0.0,0.0,0.0,0.0,0.0,0.0,0.0,7.2014,0.0,0.0,0.0,0.0,0.0,7.9785,8.1131,8.2631,8.217,8.3401,0.0,8.9517,9.1364,9.2787,9.5095,9.6288,9.6288,9.6288,9.6288,9.6326,9.7442,9.7788,9.7519,9.8404,9.8481,9.7942,9.7942,9.7442,9.6749,9.698,9.6788,9.6288,9.6288,9.6288,9.6365,9.6865,9.7827,9.9019,10.0712,10.1289,10.1289,10.1289,10.1289,10.1289,10.1289,10.1289,10.1289,10.1289,10.1289,10.1289,10.1289,10.1289,10.1289,10.1289,10.1289,10.1289,10.1289,10.1289,10.1289,10.1289,10.1289,10.1289,10.1289,10.1289,10.1289,10.1289,10.1289,10.1289,10.1289,10.1289,10.1289,10.1289,10.1289,10.1289,10.1289,10.1289,10.1289,10.1289,10.1289,10.1289,10.1289,10.1289,10.1289,10.1289,10.1289,10.1289,10.1289,10.1289,10.1289,10.1289,10.1289,10.1289]}]]